[[{"header":{"parameterUnit":"m.s-1","parameterCategory":1,"la1":30.6,"la2":29.2853,"lo1":-89.7004,"lo2":-87.6739,"dy":0.0162,"dx":0.0183,"nx":112,"ny":82,"refTime":"2024-07-09T12:00:00:Z","depth":0,"parameterNumber":2,"parameterNumberName":"U-component_of_WINDS"},"data":[0.0,0.0,0.0,0.0,0.0,0.0,0.0,0.0,0.0,0.0,0.0,0.0,0.0,0.0,0.0,0.0,0.0,0.0,0.0,0.0,0.0,0.0,0.0,0.0,0.0,0.0,0.0,0.0,0.0,0.0,0.0,0.0,0.0,0.0,0.0,0.0,0.0,0.0,0.0,0.0,0.0,0.0,0.0,0.0,0.0,0.0,0.0,0.0,0.0,0.0,0.0,0.0,0.0,0.0,0.0,0.0,0.0,0.0,0.0,0.0,0.0,0.0,0.0,0.0,0.0,0.0,0.0,0.0,0.0,0.0,0.0,0.0,0.0,0.0,0.0,0.0,0.0,0.0,0.0,0.0,0.0,0.0,0.0,0.0,0.0,0.0,0.0,0.0,0.0,0.0,1.7333,1.9443,2.2282,2.3979,2.3976,2.4007,2.2732,1.9689,0.0,0.0,0.0,0.0,0.0,0.0,0.0,0.0,0.0,0.0,0.0,0.0,0.0,0.0,0.0,0.0,0.0,0.0,0.0,0.0,0.0,0.0,0.0,0.0,0.0,0.0,0.0,0.0,0.0,0.0,0.0,0.0,0.0,0.0,0.0,0.0,0.0,0.0,0.0,0.0,0.0,0.0,0.0,0.0,0.0,0.0,0.0,0.0,0.0,0.0,0.0,0.0,0.0,0.0,0.0,0.0,0.0,0.0,0.0,0.0,0.0,0.0,0.0,0.0,0.0,0.0,0.0,0.0,0.0,0.0,0.0,0.0,0.0,0.0,0.0,0.0,0.0,0.0,0.0,0.0,0.0,0.0,0.0,0.0,0.0,0.0,0.0,0.0,0.0,0.0,0.0,0.0,0.0,0.0,0.0,0.0,0.0,0.0,0.0,0.0,0.0,0.0,0.0,0.0,1.7251,2.1386,2.2891,2.3638,2.3753,2.3141,2.1844,1.9637,0.0,0.0,0.0,0.0,0.0,0.0,0.0,0.0,0.0,0.0,0.0,0.0,0.0,0.0,0.0,0.0,0.0,0.0,0.0,0.0,0.0,0.0,0.0,0.0,0.0,0.0,0.0,0.0,0.0,0.0,0.0,0.0,0.0,0.0,0.0,0.0,0.0,0.0,0.0,0.0,0.0,0.0,0.0,0.0,0.0,0.0,0.0,0.0,0.0,0.0,0.0,0.0,0.0,0.0,0.0,0.0,0.0,0.0,0.0,0.0,0.0,0.0,0.0,0.0,0.0,0.0,0.0,0.0,0.0,0.0,0.0,0.0,0.0,0.0,0.0,0.0,0.0,0.0,0.0,0.0,0.0,0.0,0.0,0.0,0.0,0.0,0.0,0.0,0.0,0.0,0.0,0.0,0.0,0.0,0.0,0.0,0.0,0.0,0.0,0.0,0.0,0.0,0.0,1.6892,1.8735,2.2535,2.3285,2.3522,2.3594,2.3322,2.2039,1.9444,1.7868,0.0,0.0,0.0,0.0,0.0,0.0,0.0,0.0,0.0,0.0,0.0,0.0,0.0,0.0,0.0,0.0,0.0,0.0,0.0,0.0,0.0,0.0,0.0,0.0,0.0,0.0,0.0,0.0,0.0,0.0,0.0,0.0,0.0,0.0,0.0,0.0,0.0,0.0,0.0,0.0,0.0,0.0,0.0,0.0,0.0,0.0,0.0,0.0,0.0,0.0,0.0,0.0,0.0,0.0,0.0,0.0,0.0,0.0,0.0,0.0,0.0,0.0,0.0,0.0,0.0,0.0,0.0,0.0,0.0,0.0,0.0,0.0,0.0,0.0,0.0,0.0,0.0,0.0,0.0,0.0,0.0,0.0,0.0,0.0,0.0,0.0,0.0,0.0,0.0,0.0,0.0,0.0,0.0,0.0,0.0,0.0,0.0,0.0,0.0,0.0,0.0,0.0,1.8914,2.0392,2.3191,2.3494,2.3494,2.3494,2.3257,2.196,1.9265,1.734,0.0,0.0,0.0,0.0,0.0,0.0,0.0,0.0,0.0,0.0,0.0,0.0,0.0,0.0,0.0,0.0,0.0,0.0,0.0,0.0,0.0,0.0,0.0,0.0,0.0,0.0,0.0,0.0,0.0,0.0,0.0,0.0,0.0,0.0,0.0,0.0,0.0,0.0,0.0,0.0,0.0,0.0,0.0,0.0,0.0,0.0,0.0,0.0,0.0,0.0,0.0,0.0,0.0,0.0,0.0,0.0,0.0,0.0,0.0,0.0,0.0,0.0,0.0,0.0,0.0,0.0,0.0,0.0,0.0,0.0,0.0,0.0,0.0,0.0,0.0,0.0,0.0,0.0,0.0,0.0,0.0,0.0,0.0,0.0,0.0,0.0,0.0,0.0,0.0,0.0,0.0,0.0,0.0,0.0,0.0,0.0,0.0,0.0,0.0,0.0,0.0,0.0,1.9164,2.1607,2.3315,2.3494,2.3494,2.3494,2.2143,2.0653,1.9193,1.6186,0.0,0.0,0.0,0.0,0.0,0.0,0.0,0.0,0.0,0.0,0.0,0.0,0.0,0.0,0.0,0.0,0.0,0.0,0.0,0.0,0.0,0.0,0.0,0.0,0.0,0.0,0.0,0.0,0.0,0.0,0.0,0.0,0.0,0.0,0.0,0.0,0.0,0.0,0.0,0.0,0.0,0.0,0.0,0.0,0.0,0.0,0.0,0.0,0.0,0.0,0.0,0.0,0.0,0.0,0.0,0.0,0.0,0.0,0.0,0.0,0.0,0.0,0.0,0.0,0.0,0.0,0.0,0.0,0.0,0.0,0.0,0.0,0.0,0.0,0.0,0.0,0.0,0.0,0.0,0.0,0.0,0.0,0.0,0.0,0.0,0.0,0.0,0.0,0.0,0.0,0.0,0.0,0.0,0.0,0.0,0.0,0.0,0.0,0.0,0.0,0.0,0.0,1.8289,2.0563,0.0,2.3494,2.3494,2.3494,2.2482,2.1044,1.9093,0.0,0.0,0.0,0.0,0.0,0.0,0.0,0.0,0.0,0.0,0.0,0.0,0.0,0.0,0.0,0.0,0.0,0.0,0.0,0.0,0.0,0.0,0.0,0.0,0.0,0.0,0.0,0.0,0.0,0.0,0.0,0.0,0.0,0.0,0.0,0.0,0.0,0.0,0.0,0.0,0.0,0.0,0.0,0.0,0.0,0.0,0.0,0.0,0.0,0.0,0.0,0.0,0.0,0.0,0.0,0.0,0.0,0.0,0.0,0.0,0.0,0.0,0.0,0.0,0.0,0.0,0.0,0.0,0.0,0.0,0.0,0.0,0.0,0.0,0.0,0.0,0.0,0.0,0.0,0.0,0.0,0.0,0.0,0.0,0.0,0.0,0.0,0.0,0.0,0.0,0.0,0.0,0.0,0.0,0.0,0.0,0.0,0.0,0.0,0.0,0.0,0.0,1.6415,1.8269,2.0353,0.0,2.3407,2.3448,2.3448,2.2198,2.0604,1.8628,0.0,0.0,0.0,0.0,0.0,0.0,0.0,0.0,0.0,0.0,0.0,0.0,0.0,0.0,0.0,0.0,0.0,0.0,0.0,0.0,0.0,0.0,0.0,0.0,0.0,0.0,0.0,0.0,0.0,0.0,0.0,0.0,0.0,0.0,0.0,0.0,0.0,0.0,0.0,0.0,0.0,0.0,0.0,0.0,0.0,0.0,0.0,0.0,0.0,0.0,0.0,0.0,0.0,0.0,0.0,0.0,0.0,0.0,0.0,0.0,0.0,0.0,0.0,0.0,0.0,0.0,0.0,0.0,0.0,0.0,0.0,0.0,0.0,0.0,0.0,0.0,0.0,0.0,0.0,0.0,0.0,0.0,0.0,0.0,0.0,0.0,0.0,0.0,0.0,0.0,0.0,0.0,0.0,0.0,0.0,0.0,0.0,0.0,0.0,0.0,0.0,0.0,1.71,1.9406,2.1381,2.2944,2.3217,2.3289,2.3289,2.1031,1.908,0.0,0.0,0.0,0.0,0.0,0.0,0.0,0.0,0.0,0.0,0.0,0.0,0.0,0.0,0.0,0.0,0.0,0.0,0.0,0.0,0.0,0.0,0.0,0.0,0.0,0.0,0.0,0.0,0.0,0.0,0.0,0.0,0.0,0.0,0.0,0.0,0.0,0.0,0.0,0.0,0.0,0.0,0.0,0.0,0.0,0.0,0.0,0.0,0.0,0.0,0.0,0.0,0.0,0.0,0.0,0.0,0.0,0.0,0.0,0.0,0.0,0.0,0.0,0.0,0.0,0.0,0.0,0.0,0.0,0.0,0.0,0.0,0.0,0.0,0.0,0.0,0.0,0.0,0.0,0.0,0.0,0.0,0.0,0.0,0.0,0.0,0.0,0.0,0.0,0.0,0.0,0.0,0.0,0.0,0.0,0.0,0.0,0.0,0.0,0.0,0.0,0.0,0.0,1.717,1.9896,2.206,2.3135,2.336,2.336,2.3168,2.1497,1.9731,1.8089,0.0,0.0,0.0,0.0,0.0,0.0,0.0,0.0,0.0,0.0,0.0,0.0,0.0,0.0,0.0,0.0,0.0,0.0,0.0,0.0,0.0,0.0,0.0,0.0,0.0,0.0,0.0,0.0,0.0,0.0,0.0,0.0,0.0,0.0,0.0,0.0,0.0,0.0,0.0,0.0,0.0,0.0,0.0,0.0,0.0,0.0,0.0,0.0,0.0,0.0,0.0,0.0,0.0,0.0,0.0,0.0,0.0,0.0,0.0,0.0,0.0,0.0,0.0,0.0,0.0,0.0,0.0,0.0,0.0,0.0,0.0,0.0,0.0,0.0,0.0,0.0,0.0,0.0,0.0,0.0,0.0,0.0,0.0,0.0,0.0,0.0,0.0,0.0,0.0,0.0,0.0,0.0,0.0,0.0,0.0,0.0,0.0,0.0,0.0,0.0,0.0,0.0,1.7537,2.0197,2.2229,2.3056,2.3313,2.3313,2.3028,2.1849,2.014,1.78,0.0,0.0,0.0,0.0,0.0,0.0,0.0,0.0,0.0,0.0,0.0,0.0,0.0,0.0,0.0,0.0,0.0,0.0,0.0,0.0,0.0,0.0,0.0,0.0,0.0,0.0,0.0,0.0,0.0,0.0,0.0,0.0,0.0,0.0,0.0,0.0,0.0,0.0,0.0,0.0,0.0,0.0,0.0,0.0,0.0,0.0,0.0,0.0,0.0,0.0,0.0,0.0,0.0,0.0,0.0,0.0,0.0,0.0,0.0,0.0,0.0,0.0,0.0,0.0,0.0,0.0,0.0,0.0,0.0,0.0,0.0,0.0,0.0,0.0,0.0,0.0,0.0,0.0,0.0,0.0,0.0,0.0,0.0,0.0,0.0,0.0,0.0,0.0,0.0,0.0,0.0,0.0,0.0,0.0,0.0,0.0,0.0,0.0,0.0,0.0,0.0,0.0,1.8106,2.0436,2.2171,2.2849,2.3144,2.3168,2.2876,2.2055,2.0291,1.7264,0.0,0.0,0.0,0.0,0.0,0.0,0.0,0.0,0.0,0.0,0.0,0.0,0.0,0.0,0.0,0.0,0.0,0.0,0.0,0.0,0.0,0.0,0.0,0.0,0.0,0.0,0.0,0.0,0.0,0.0,0.0,0.0,0.0,0.0,0.0,0.0,0.0,0.0,0.0,0.0,0.0,0.0,0.0,0.0,0.0,0.0,0.0,0.0,0.0,0.0,0.0,0.0,0.0,0.0,0.0,0.0,0.0,0.0,0.0,0.0,1.3041,0.0,0.0,0.0,0.0,0.0,0.0,0.0,0.0,0.0,0.0,0.0,0.0,0.0,0.0,0.0,0.0,0.0,0.0,0.0,0.0,0.0,0.0,0.0,0.0,0.0,0.0,0.0,0.0,0.0,0.0,0.0,0.0,0.0,0.0,0.0,0.0,0.0,0.0,0.0,0.0,0.0,1.8196,2.0906,2.2745,2.2876,2.3045,2.2935,2.2483,2.172,2.0263,1.786,1.5817,0.0,0.0,0.0,0.0,0.0,0.0,0.0,0.0,0.0,0.0,0.0,0.0,0.0,0.0,0.0,0.0,0.0,0.0,0.0,0.0,0.0,0.0,0.0,0.0,0.0,0.0,0.0,0.0,0.0,0.0,0.0,0.0,0.0,0.0,0.0,0.0,0.0,0.0,0.0,0.0,0.0,0.0,0.0,0.0,0.0,0.0,0.0,0.0,0.0,0.0,0.0,0.0,0.0,0.0,0.0,0.0,0.0,0.0,0.0,0.0,1.4639,0.0,0.0,0.0,0.0,0.0,0.0,0.0,0.0,0.0,0.0,0.0,0.0,0.0,0.0,0.0,0.0,0.0,0.0,0.0,0.0,0.0,0.0,0.0,0.0,0.0,0.0,0.0,0.0,0.0,0.0,0.0,0.0,0.0,0.0,0.0,0.0,0.0,0.0,0.0,0.0,1.8876,2.1301,2.2893,2.2893,2.302,2.2952,2.2527,2.2158,2.1008,1.8919,1.6963,0.0,0.0,0.0,0.0,0.0,0.0,0.0,0.0,0.0,0.0,0.0,0.0,0.0,0.0,0.0,0.0,0.0,0.0,0.0,0.0,0.0,0.0,0.0,0.0,0.0,0.0,0.0,0.0,0.0,0.0,0.0,0.0,0.0,0.0,0.0,0.0,0.0,0.0,0.0,0.0,0.0,0.0,0.0,0.0,0.0,0.0,0.0,0.0,0.0,0.0,0.0,0.0,0.0,2.0304,1.9584,1.822,1.7641,1.7443,1.7546,1.677,1.6959,1.7679,1.6514,0.0,0.0,0.0,0.0,0.0,0.0,0.0,0.0,0.0,0.0,0.0,0.0,0.0,0.0,0.0,0.0,0.0,0.0,0.0,0.0,0.0,0.0,0.0,0.0,1.821,1.7759,0.0,0.0,0.0,0.0,0.0,0.0,0.0,0.0,0.0,0.0,0.0,0.0,1.985,2.1779,2.2985,2.2985,2.3102,2.3035,2.2782,2.2747,2.1892,2.002,1.8383,1.6693,0.0,0.0,0.0,0.0,0.0,0.0,0.0,0.0,0.0,0.0,0.0,0.0,0.0,0.0,0.0,0.0,0.0,0.0,0.0,0.0,0.0,0.0,0.0,0.0,0.0,0.0,0.0,0.0,0.0,0.0,0.0,0.0,1.0024,1.0564,0.0,0.0,0.0,0.0,0.0,0.0,0.0,0.0,0.0,0.0,0.0,0.0,0.0,1.5381,1.8812,1.9088,1.9595,2.0304,2.0304,2.0181,1.995,1.9691,1.9664,1.9849,1.9572,0.0,1.8804,1.861,0.0,0.0,0.0,0.0,0.0,0.0,0.0,0.0,0.0,0.0,0.0,0.0,0.0,0.0,0.0,0.0,0.0,0.0,0.0,0.0,0.0,0.0,2.1383,2.1244,2.1013,2.0803,0.0,1.8361,1.6218,1.6392,1.5434,0.0,0.0,0.0,0.0,0.0,0.0,0.0,2.0908,2.2414,2.3323,2.3323,2.3364,2.3294,2.3063,2.2822,2.2134,2.0817,1.9586,1.8278,1.6899,1.4866,0.0,0.0,0.0,0.0,0.0,0.0,0.0,0.0,0.0,0.0,0.0,0.0,0.0,0.0,0.0,0.0,0.0,0.0,0.0,0.0,0.0,0.0,0.0,0.0,0.0,0.0,0.0,0.0,0.0,0.9593,1.0807,1.1225,1.2042,1.2367,0.0,0.0,0.0,0.0,0.0,0.0,0.0,0.0,0.0,1.4892,1.5814,1.7609,2.0273,2.008,1.9975,1.999,2.1455,2.1827,2.1231,2.0482,2.0096,2.0031,2.14,2.1857,2.147,2.0131,1.9358,1.8927,0.0,0.0,0.0,0.0,1.433,1.6539,1.671,1.912,2.2077,2.2077,0.0,0.0,0.0,0.0,0.0,0.0,0.0,0.0,0.0,0.0,2.3271,2.3308,2.3048,2.2862,2.299,2.1777,2.0144,0.0,1.8005,1.7443,1.5956,0.0,0.0,0.0,0.0,2.0752,2.1888,2.2823,2.3392,2.3392,2.3392,2.3369,2.3277,2.3165,2.2814,2.2175,2.1002,1.9953,1.9095,1.7027,1.5443,0.0,0.0,0.0,0.0,0.0,0.0,0.0,0.0,0.0,0.0,0.0,0.0,0.0,0.0,0.0,0.0,0.0,0.0,0.0,0.0,0.0,0.0,0.0,0.0,0.0,0.0,0.0,0.0,1.1077,1.1984,1.2431,1.3678,1.4189,0.0,0.0,0.0,0.0,0.0,0.0,1.6309,1.7403,1.788,1.754,1.816,1.9356,2.1124,2.0843,2.0692,2.0707,2.2667,2.3185,2.2385,2.1523,2.0992,2.0797,2.2881,2.3782,2.3631,2.1711,2.0488,1.9889,2.0137,1.8211,1.5362,1.5709,1.8414,2.1945,2.2209,2.2237,2.218,2.218,2.2049,2.2089,2.2952,0.0,0.0,0.0,0.0,2.3075,2.4703,2.4788,2.4532,2.4913,2.4557,2.4208,2.4475,2.4389,2.3489,0.0,2.06,2.0241,1.8123,0.0,0.0,0.0,0.0,2.2058,2.2876,2.3353,2.3588,2.3588,2.3588,2.3588,2.3588,2.3544,2.3437,2.33,2.2206,2.1351,2.0855,1.8984,1.7471,1.6402,0.0,0.0,0.0,0.0,0.0,0.0,0.0,0.0,0.0,0.0,0.0,0.0,0.0,0.0,0.0,0.0,0.0,0.0,0.0,0.0,0.0,0.0,0.0,0.0,0.0,0.0,0.0,0.0,0.0,1.5117,1.6062,0.0,0.0,0.0,0.0,1.5352,1.6633,1.7887,1.8864,1.9767,2.0035,1.9551,1.9783,2.1031,2.3428,2.34,2.34,2.3415,2.3535,2.3565,2.3505,2.3473,2.34,2.3458,2.4017,2.4261,2.4204,2.3631,2.2173,2.0254,2.0296,2.0175,2.0106,2.1379,2.2057,2.2282,2.2282,2.2077,2.1827,2.1827,2.202,2.2282,2.2338,2.3148,0.0,0.0,2.527,2.545,2.5679,2.5561,2.5497,2.624,2.5424,2.4754,2.576,2.5483,2.4735,0.0,2.2867,2.222,2.202,0.0,2.1194,2.2388,2.2702,2.3123,2.3909,2.4095,2.417,2.417,2.417,2.417,2.417,2.3917,2.3774,2.3774,2.3058,2.2356,2.1747,2.0643,1.9549,1.8462,1.6502,0.0,0.0,0.0,0.0,0.0,0.0,0.0,0.0,0.0,0.0,0.0,0.0,0.0,0.0,0.0,0.0,0.0,0.0,0.0,0.0,0.0,0.0,0.0,0.0,0.0,0.0,0.0,0.0,1.6464,1.7267,0.0,1.7248,1.7374,1.7685,1.8187,1.8675,1.9474,2.0707,2.1069,2.1167,2.0976,2.1068,2.1909,2.358,2.3595,2.3595,2.3595,2.3595,2.3595,2.3595,2.3595,2.3767,2.4036,2.4219,2.4302,2.4302,2.4135,2.3611,2.2871,2.2871,2.2871,2.2972,2.3855,2.4462,2.4813,2.4813,2.4878,2.4958,2.4845,2.4943,2.5103,2.5041,2.5378,2.5896,2.6385,2.6347,2.6292,2.6757,2.6823,2.6749,2.6757,2.6402,2.6109,2.635,2.639,2.6208,2.5634,2.4968,2.4331,2.3927,2.3963,2.4104,2.4272,2.4777,2.5278,2.5552,2.567,2.557,2.5153,2.502,2.478,2.4303,2.4096,2.3958,2.3917,2.3522,2.3052,2.2522,2.1826,2.0981,2.0021,1.867,1.684,0.0,0.0,0.0,0.0,0.0,0.0,0.0,0.0,0.0,0.0,0.0,0.0,0.0,0.0,0.0,0.0,0.0,0.0,0.0,0.0,0.0,0.0,0.0,0.0,0.0,0.0,1.6344,1.7525,1.8268,1.8772,1.8868,1.8987,1.9413,2.0362,2.04,2.0842,2.1964,2.2024,2.2113,2.2323,2.2338,2.2742,2.3595,2.3595,2.3595,2.3595,2.3595,2.3681,2.3824,2.3824,2.4009,2.4302,2.4302,2.4302,2.4317,2.4276,2.4276,2.4302,2.4302,2.4302,2.4343,2.4744,2.5519,2.6364,2.6364,2.6452,2.6469,2.6225,2.6173,2.6191,2.6082,2.6066,2.6123,2.6351,2.635,2.6378,2.694,2.7092,2.7078,2.692,2.6824,2.6741,2.6708,2.6956,2.7165,2.7045,2.6425,2.5782,2.5279,2.5541,2.5727,2.552,2.599,2.6407,2.6497,2.6578,2.6499,2.6154,2.5708,2.5243,2.4746,2.4301,2.4054,2.3996,2.3689,2.3318,2.2923,2.2184,2.1467,2.08,1.9419,1.7872,1.6181,0.0,0.0,0.0,0.0,0.0,0.0,0.0,0.0,0.0,0.0,0.0,0.0,0.0,0.0,0.0,0.0,0.0,0.0,0.0,0.0,0.0,0.0,0.0,1.6039,1.7258,1.8207,1.8424,1.9201,1.9756,1.9858,2.04,2.1021,2.168,2.1724,2.2009,2.2667,2.2739,2.2981,2.358,2.3595,2.3595,2.3595,2.3595,2.3595,2.3595,2.3595,2.3867,2.4302,2.4302,2.4302,2.4302,2.4302,2.4302,2.4317,2.4151,2.4193,2.4302,2.4302,2.4302,2.4302,2.4302,2.5313,2.6691,2.6657,2.6452,2.6079,2.5647,2.5368,2.5192,2.5192,2.5059,2.4902,2.4902,2.5265,2.5753,2.6162,2.6266,2.637,2.6757,2.6657,2.6521,2.6807,2.7129,2.75,2.7897,2.7257,2.657,2.6309,2.6051,2.6002,2.6327,2.6368,0.0,2.6739,2.6759,2.6876,2.7119,2.621,2.5578,2.5523,2.4611,2.4014,2.3996,2.3576,2.3194,2.2923,2.179,2.108,2.0866,1.876,1.7649,1.7542,0.0,0.0,0.0,0.0,0.0,0.0,0.0,0.0,0.0,0.0,0.0,0.0,0.0,0.0,0.0,0.0,0.0,0.0,0.0,0.0,0.0,1.668,1.7694,1.7535,1.8112,1.8929,1.9944,2.0287,2.0617,2.1135,2.1321,2.1695,2.2353,2.2413,2.2682,2.331,2.334,2.343,2.3595,2.3595,2.3595,2.3595,2.3595,2.3767,2.4135,2.4135,2.4177,2.4302,2.4302,2.4302,2.4302,2.4302,2.4302,2.4302,2.4276,2.4276,2.4317,2.425,2.425,2.4343,2.4639,2.5577,2.6624,2.6016,2.5779,2.5684,2.5481,2.5291,2.5137,2.5192,2.5253,2.5313,2.5176,2.5044,2.5028,2.5281,2.5341,2.5379,2.5433,2.5615,2.5852,2.6052,2.659,2.7098,2.7382,2.7549,2.7727,2.7904,2.7868,2.7868,2.7942,2.8016,0.0,2.8353,2.8418,2.8363,2.814,2.7754,2.701,2.5744,2.53,2.4737,2.3912,2.3732,2.3473,2.3049,2.2775,2.2444,2.2027,2.0365,1.9212,0.0,0.0,0.0,0.0,0.0,0.0,0.0,0.0,0.0,0.0,0.0,0.0,0.0,0.0,0.0,0.0,0.0,0.0,0.0,0.0,0.0,0.0,1.8273,1.9228,1.9204,1.9391,1.9839,2.0617,2.0961,2.138,2.2039,2.2113,2.2383,2.3011,2.3071,2.3221,2.358,2.3595,2.3595,2.3595,2.3595,2.3595,2.3595,2.3595,2.3824,2.4302,2.4094,2.4009,2.3994,2.4219,2.4302,2.4302,2.4302,2.4302,2.4302,2.4302,2.4302,0.0,0.0,0.0,0.0,0.0,2.5082,2.5652,2.5427,2.5198,2.502,2.5137,2.5059,2.4879,2.4839,2.4879,2.4863,2.4695,2.4508,2.4426,2.4639,2.4704,2.4744,2.4863,2.5098,2.5313,2.5631,2.6125,2.6607,2.6971,2.7439,0.0,2.8093,2.8396,2.8612,2.8637,2.8662,2.8725,2.8971,2.9016,2.9003,2.8858,2.8388,2.7675,2.6672,2.5792,0.0,0.0,0.0,2.3147,2.2322,2.2322,0.0,0.0,0.0,0.0,0.0,0.0,0.0,0.0,1.803,1.7777,0.0,0.0,0.0,0.0,0.0,0.0,0.0,0.0,0.0,0.0,0.0,0.0,0.0,0.0,0.0,0.0,1.9599,2.036,2.0775,2.0887,2.0932,2.0932,2.1455,2.2054,2.2727,2.2787,2.3011,2.355,2.3595,2.3551,2.3508,0.0,0.0,0.0,0.0,2.3508,2.3595,2.3595,2.3824,2.4219,2.3824,2.3638,2.3681,2.4135,2.4317,2.4261,2.4261,2.4317,2.4317,2.4317,2.4302,2.4302,2.4302,2.4302,2.4302,2.4302,2.4302,2.4385,2.4823,0.0,0.0,2.4719,2.4742,2.4616,2.4425,2.4254,2.4055,2.4018,2.3945,2.3912,2.4135,2.4219,2.4287,2.4664,2.4784,2.4942,2.5313,2.5656,2.6038,2.6556,2.7002,2.7299,2.7374,2.7992,2.8518,2.8594,2.8569,2.8651,2.8906,2.8984,2.9093,2.9272,0.0,0.0,2.7805,2.6253,2.5204,2.5109,2.3922,2.2693,2.1547,2.1419,2.1392,2.1451,2.1451,2.1796,2.2564,2.2564,2.2564,2.2479,1.9111,1.8614,0.0,0.0,0.0,0.0,0.0,0.0,0.0,0.0,0.0,0.0,0.0,0.0,0.0,0.0,0.0,1.9626,2.0466,2.1103,2.1449,2.1964,2.2293,2.2293,2.2413,2.2742,2.3355,2.343,2.3475,2.3595,2.3595,2.3421,2.3068,2.2875,2.2785,2.2785,2.2543,2.277,2.3595,2.3595,2.3653,2.3724,0.0,0.0,2.4177,2.4261,2.4234,2.4067,2.4166,2.4208,2.4208,2.4208,2.4234,2.4302,2.4302,2.4302,2.4302,2.4302,2.4302,2.4302,2.4426,2.4385,2.4302,2.4317,2.4629,2.4973,2.4902,2.445,0.0,2.4534,2.4131,2.3653,2.3739,2.3739,2.3767,2.3852,2.4147,2.4451,2.4592,2.4934,2.5297,2.5615,2.6179,2.6639,2.674,2.7409,2.7876,2.7886,2.8065,2.829,2.8554,2.8827,2.9093,2.9272,2.9142,2.8685,2.7864,2.7237,2.6507,2.5689,2.4607,2.3789,2.333,2.2735,2.2593,2.2982,2.2953,2.3354,2.4052,2.4052,2.4052,2.4036,2.2745,2.2355,0.0,0.0,0.0,0.0,0.0,0.0,0.0,0.0,0.0,0.0,0.0,1.703,1.7864,0.0,1.9754,2.0967,2.1599,2.2007,2.2169,2.2742,2.3026,2.2753,2.2951,2.3266,2.3565,2.3595,2.3508,2.329,2.3246,2.3157,2.2889,2.2434,2.2296,2.2603,2.1813,2.186,2.286,2.3363,2.3595,2.3595,2.3595,2.3724,2.3982,2.4767,2.4965,2.4637,2.504,2.5218,2.5234,2.5277,2.5305,2.5318,2.5318,2.4902,2.4302,2.4302,2.4302,2.4317,2.4276,2.4526,2.4793,2.4658,2.4982,2.547,2.5713,2.5455,2.5198,2.5545,2.5018,2.4297,2.4221,2.3893,2.3595,2.3595,2.3782,2.4021,2.4338,2.4583,2.4823,2.5214,2.5635,2.5911,2.5999,2.6334,2.6838,2.7595,2.7811,2.7992,2.8272,2.8446,2.8639,2.892,2.879,2.8506,2.7978,2.7294,2.6455,2.5437,2.5006,2.4689,2.4413,2.404,2.4016,2.4389,2.427,2.4389,2.4748,2.4748,2.4658,2.4506,2.4492,2.4289,0.0,0.0,0.0,0.0,0.0,0.0,0.0,0.0,1.5446,1.6254,1.7439,1.8654,1.981,2.0254,2.0822,2.2079,2.2511,2.2727,2.2847,2.3281,2.3415,2.2921,2.3295,2.3595,2.3595,2.3595,2.3421,2.2934,2.2979,2.2934,2.2754,2.2249,2.2109,2.2512,2.165,2.1537,2.2286,2.3212,2.394,2.4462,2.4162,2.3984,2.4029,2.5455,2.5848,2.547,2.5971,2.6184,2.6229,2.6335,2.6364,2.6334,2.6289,2.5628,2.466,2.466,2.466,2.4675,2.4563,2.4994,2.5469,2.5227,2.5546,2.6072,2.6434,2.6519,2.6546,2.654,2.592,2.5197,2.4852,2.4238,2.3614,2.3511,2.3363,2.345,2.4021,2.4147,2.4313,2.4879,2.5153,2.5253,2.5269,2.5351,2.5875,2.708,2.7378,2.756,2.7787,2.7918,2.812,2.837,2.8174,2.7992,2.7936,2.7115,2.6231,2.53,2.5392,2.5408,2.5207,2.508,2.5234,2.5631,2.5362,2.5276,2.5431,2.5372,2.5193,2.4946,2.5541,2.5423,1.3042,1.3564,1.4514,1.5842,1.5659,1.5926,0.0,0.0,1.85,1.9823,2.0487,2.0937,2.1394,2.1488,2.1749,2.2525,2.2679,2.2877,2.3415,2.355,2.3565,2.3505,2.355,2.3595,2.3595,2.3595,2.3421,2.2934,2.329,2.3143,2.2221,2.2558,2.2558,2.2175,2.2614,2.2846,2.2906,2.3606,2.5143,2.75,2.6053,2.539,2.5405,2.6101,2.6406,2.6363,2.623,2.6184,2.6229,2.6335,2.638,2.638,2.6274,2.6122,2.5999,2.5999,2.5999,2.5954,2.5834,2.5864,2.5894,2.5757,2.6148,2.6705,2.6591,2.701,2.7355,2.6756,2.6396,2.5908,2.4985,2.4305,2.3731,2.3183,2.2663,2.2452,2.3113,2.326,2.348,2.4151,2.4533,2.4744,2.4855,2.5082,2.5373,2.5693,2.63,2.674,2.6773,2.7348,2.7695,2.7631,2.7695,2.7624,2.7338,2.7189,2.6931,2.6455,2.6053,2.588,2.5897,2.5426,2.5572,2.6448,2.6144,2.6312,2.6954,2.6667,2.6471,2.6454,2.6539,2.6184,1.624,1.623,1.6169,0.0,1.7654,1.7822,1.9706,1.9676,1.9649,2.0985,2.1377,2.165,2.2184,2.2263,2.2473,0.0,2.3206,2.3295,2.3565,2.3595,2.3595,2.3595,2.3377,2.329,2.3551,2.3084,2.2785,2.2889,2.2785,2.268,2.2558,2.2466,2.2775,2.3518,2.3264,2.3558,2.4481,2.4659,2.5546,2.7022,2.6831,2.6531,2.6146,2.6901,2.7364,2.7494,2.7422,2.7408,2.7455,2.7455,2.7455,2.744,2.7313,2.7265,2.7174,2.6382,2.6093,2.6062,2.5924,2.6119,2.6389,2.5912,2.6208,2.6652,2.6263,2.6332,2.6529,2.6307,2.5864,2.5373,2.5034,2.4433,2.3765,2.3126,2.2796,2.2611,2.2629,2.2649,2.274,2.3157,2.3304,2.3463,2.3822,2.396,2.4168,2.4583,2.5281,2.5983,2.6488,2.674,2.6967,2.7241,2.7321,2.7213,2.6892,2.6859,2.6759,2.6554,2.6503,2.6475,2.6524,2.6323,2.6489,2.7046,2.6726,2.6725,2.7019,2.6889,2.6758,2.6589,2.6589,2.6438,1.8035,0.0,0.0,1.8812,1.9196,1.942,2.0137,2.0302,2.0572,2.1724,2.1964,2.2158,2.2817,2.2936,2.3071,2.3535,2.3595,2.3595,2.3595,2.3595,2.3595,2.3595,2.3054,2.2875,2.3377,2.2589,2.2235,2.248,2.2374,2.242,2.2649,2.2543,2.3165,2.4567,2.4054,2.4447,2.5869,2.5923,2.6159,2.6681,2.731,2.733,2.6874,2.7606,2.8008,2.8186,2.8186,2.8186,2.8122,2.8137,2.8039,2.786,2.7725,2.7675,2.757,2.64,2.6168,2.6468,2.6153,2.637,2.6659,2.5959,2.6069,2.6336,2.596,2.5783,2.5837,2.5918,2.5554,2.5124,2.5084,2.4518,2.3778,2.322,2.2935,2.276,2.2426,2.2334,2.2386,2.2495,2.2466,2.2543,2.2905,2.2905,2.3084,2.3668,2.4241,2.4918,2.5859,2.5966,2.6092,2.6539,2.6657,2.6624,2.6417,2.6503,2.6554,2.6434,2.6624,2.6791,2.6872,2.6872,2.7034,2.7378,2.7049,2.6888,2.6888,2.6824,2.6691,2.6485,2.6485,2.6485,0.0,0.0,1.8807,1.9053,1.9878,2.0697,2.084,2.1285,2.1829,2.2544,2.2694,2.2832,2.346,2.3565,2.358,2.3595,2.3595,2.3595,2.3595,2.3595,2.3595,2.3595,2.2725,2.2314,2.2889,2.242,2.1908,2.1458,2.2328,2.2649,2.2128,2.3039,2.3865,2.4567,2.5194,2.5836,2.6557,2.72,2.753,2.758,2.761,2.766,2.7745,2.8073,2.8186,2.8186,2.8186,2.7845,2.7348,2.7825,2.7675,2.7122,2.7004,2.6953,2.6849,2.6065,2.6649,2.763,2.6938,2.6692,2.6587,2.5986,2.5823,2.5837,2.5783,2.5783,2.5783,2.5783,2.5769,2.5659,2.5133,2.4572,2.3933,2.3326,2.2821,2.2405,2.2423,2.2374,2.2407,2.2488,2.242,2.2314,2.2314,2.2221,2.236,2.3038,2.3024,2.3391,2.4527,2.4887,2.5105,2.5259,2.5556,2.5758,2.5832,2.6241,2.6434,2.6295,2.6314,2.6453,2.6791,2.6808,2.7004,2.7378,2.7049,2.6888,2.6888,2.664,2.652,2.6485,2.6485,2.6485,0.0,0.0,1.9266,2.0142,2.0512,2.0748,2.1241,2.1384,2.1442,2.1729,2.1989,2.2102,2.198,2.2515,2.2981,2.2981,2.3325,2.3595,2.3595,2.3334,2.3157,2.3157,2.2235,0.0,0.0,0.0,0.0,2.1813,2.2189,2.2451,2.267,2.3342,2.4069,2.4783,2.5027,2.5429,2.606,2.6275,2.639,2.639,2.6467,2.6573,2.6625,2.6782,2.6872,2.6872,2.6872,2.6768,2.6611,2.6625,2.6573,2.6347,2.6201,2.6162,2.6162,2.5892,2.6108,2.6443,2.6176,2.6122,2.6014,2.5425,2.5272,2.5203,2.4765,2.465,2.465,2.465,2.465,2.4607,2.4447,2.4244,2.3936,2.3371,2.308,2.2834,2.2472,2.2379,2.2298,2.1914,2.1793,2.1772,2.1705,2.1684,2.1921,2.2844,2.3493,2.4021,2.4369,2.4704,2.4965,2.5067,2.516,2.5237,2.5275,2.5684,2.5921,2.5779,2.6046,2.6293,2.6399,2.6399,2.6452,2.6607,2.6504,2.6452,2.6452,2.6329,2.631,2.6274,2.5974,2.5832,1.9708,1.9847,1.9793,2.0824,2.1097,2.1183,2.1589,2.1516,2.1346,2.1304,2.1485,2.1524,2.1158,2.1683,2.2259,2.2664,2.277,2.2922,2.3348,2.2979,2.2603,2.2603,2.2244,2.1917,0.0,0.0,0.0,2.1868,2.2436,2.2825,2.3017,2.3568,2.4134,2.4896,2.4871,2.5166,2.5783,2.5783,2.5783,2.5783,2.5918,2.6011,2.6011,2.6119,2.6187,2.6187,2.6119,2.6026,2.5863,2.5918,2.5823,2.5605,2.5577,2.5522,2.5481,2.5245,2.5189,2.5189,2.5425,2.5522,2.5425,2.4835,2.4677,2.462,2.4229,2.4112,2.4112,2.4112,2.4112,2.4112,2.4112,2.4112,2.4021,2.3629,2.3537,2.3393,2.2818,2.2688,2.2492,2.1917,2.1825,2.1812,2.1776,2.1736,2.1999,2.287,2.3507,2.3921,2.4024,2.4271,2.4446,2.4486,2.4648,2.4744,2.4744,2.5176,2.5368,2.5275,2.5589,2.5733,2.5733,2.5733,2.5733,2.5733,2.5733,2.5807,2.5954,2.5954,2.6158,2.6584,2.6075,2.5999,1.9479,1.9773,2.0356,2.1138,2.1626,2.1828,2.1769,2.1693,2.151,2.1147,2.1054,2.0968,2.0895,0.0,2.1395,2.2469,2.1902,2.1737,2.2906,2.2466,2.2081,0.0,0.0,0.0,0.0,0.0,0.0,2.1681,0.0,2.3719,2.3122,2.3592,2.418,2.4847,2.4875,2.514,2.5728,2.5728,2.5728,2.5728,2.5809,2.5903,2.5903,2.6026,2.6079,2.6079,2.5957,2.5591,2.5175,2.5577,2.5425,2.4948,2.4948,2.4948,2.4892,2.4287,2.4112,2.4171,2.4778,2.4948,2.4835,2.4287,2.4112,2.4112,2.4112,2.4112,2.4112,2.4112,2.4112,2.4112,2.4112,2.4112,2.4112,2.4112,2.4112,2.3955,2.3393,2.3263,2.3093,2.2572,2.24,2.24,2.2428,2.2377,2.2485,2.3001,2.3041,2.316,2.3496,2.3598,2.3641,2.3611,2.4043,2.4326,2.4368,2.4748,2.4973,2.4973,2.4982,2.495,2.495,2.4918,2.4902,2.4902,2.4934,2.5146,2.5513,2.5546,2.6178,2.7292,2.6747,2.6848,2.0746,2.104,2.1152,2.1795,2.1746,2.1442,2.1014,2.0683,2.0057,1.8535,1.8795,1.9008,1.8012,0.0,0.0,2.0734,2.1398,0.0,2.23,2.1921,0.0,2.1602,0.0,2.1847,2.1706,2.303,0.0,0.0,2.3098,2.3271,2.3184,2.369,2.4082,2.4309,2.4323,2.4403,2.4549,2.4549,2.4549,2.4549,2.4593,2.4593,2.4593,2.4593,2.465,2.465,2.4593,2.4492,2.439,2.4492,2.4434,2.4345,2.4345,2.4345,2.4287,2.4171,2.4112,2.4112,2.4287,2.4345,2.4287,2.4171,2.4112,2.4112,2.4112,2.4112,2.4112,2.4112,2.4112,2.4112,2.4112,2.4112,2.4112,2.4112,2.4112,2.4073,2.3916,2.389,2.372,2.3119,2.2662,2.2387,2.24,2.2418,2.2552,2.3016,2.3103,2.3069,2.3126,2.3578,2.3837,2.3829,2.4303,2.4784,2.5228,2.5647,2.588,2.588,2.5712,2.5636,2.5636,2.5187,2.4902,2.4902,2.5368,2.5717,2.5798,2.6297,2.6687,2.7003,2.6491,2.6368,2.1269,2.1634,2.1795,2.21,2.1708,2.1035,2.0375,1.9696,1.8809,1.7342,1.7564,0.0,1.7082,1.8006,0.0,0.0,0.0,0.0,2.1791,2.141,2.1082,0.0,2.1765,0.0,2.1904,2.3473,2.4267,0.0,2.3806,2.3807,2.3589,2.3887,2.4033,2.4112,2.4112,2.4112,2.4112,2.4112,2.4112,2.4112,2.4112,2.4112,2.4112,2.4112,2.4112,2.4112,0.0,2.4112,2.4112,2.4112,2.4112,2.4112,2.4112,2.4112,2.4112,2.4112,2.4112,2.4112,2.4112,2.4112,2.4112,2.4112,2.4112,2.4112,2.4112,2.4112,2.4112,2.4112,2.4112,2.4112,2.4112,2.4112,2.4112,2.4112,2.4112,2.4112,2.4112,2.4112,2.4021,2.3681,2.3184,2.2907,2.3102,2.2923,2.2929,2.3468,2.3324,2.3138,2.3092,2.3533,2.387,2.3912,2.4379,2.4839,2.5191,2.5648,2.5925,2.5925,2.58,2.5718,2.5762,2.5349,2.5149,2.5207,2.5577,2.5849,2.6049,2.6411,2.6858,2.7375,2.6854,2.6826,2.1459,2.1823,2.2184,2.2184,2.1597,2.0757,1.9819,1.8755,1.7685,1.6639,0.0,1.6913,1.6859,1.7276,1.8152,1.972,0.0,1.9628,2.126,2.1033,2.0738,2.0804,2.2137,2.295,2.2559,2.3923,2.4677,2.4112,2.4563,2.4677,2.4112,2.4112,2.4112,2.4112,2.4112,2.4112,2.4112,2.4112,2.4112,2.4112,2.4112,2.4112,2.4112,2.4112,2.4112,2.4112,2.4112,2.4112,2.4112,2.4112,2.4112,2.4112,2.4112,2.4112,2.4112,2.4112,2.4112,2.4112,2.4112,2.4112,2.4112,2.4112,2.4112,2.4112,2.4112,2.4112,2.4112,2.4112,2.4112,2.4112,2.4112,2.4054,2.3995,2.3995,2.3923,2.3923,2.3923,2.3923,2.3923,2.3995,2.37,2.3582,2.3995,2.3681,2.3511,2.4034,2.3668,2.3341,2.3341,2.3689,2.3913,2.3933,2.4382,2.4776,2.4939,2.5408,2.5726,2.5821,2.5637,2.5545,2.5687,2.5503,2.5458,2.5553,2.5657,2.586,2.623,2.6321,2.6887,2.7887,2.7411,2.7544,2.1935,2.21,2.2184,2.2184,2.1537,2.056,1.9259,1.8031,0.0,0.0,1.5081,1.5414,1.5051,1.6488,1.7959,1.8616,0.0,0.0,0.0,0.0,2.0882,0.0,0.0,0.0,0.0,0.0,0.0,0.0,2.4229,2.4229,2.4112,2.4112,2.4112,2.4112,2.4112,2.4112,2.4112,2.4112,2.4112,2.4112,2.4112,2.4112,2.4112,2.4112,2.4112,2.4112,2.4112,0.0,2.4112,2.4112,2.4112,2.4112,2.4112,2.4112,2.4112,2.4112,2.4112,2.4112,2.4112,2.4112,2.4112,2.4112,2.4112,2.4112,2.4112,2.4112,2.4112,2.4112,2.4112,2.4112,2.4112,2.3819,2.3522,2.3522,2.3185,2.2847,2.2847,2.2847,2.298,2.345,2.3463,2.3582,2.3995,2.4021,2.3995,2.4099,2.4021,2.3955,2.3955,2.4037,2.4056,2.4082,2.4463,2.508,2.6112,2.6179,2.6387,2.6893,2.6391,2.6096,2.6096,2.566,2.5411,2.5458,2.5961,2.6292,2.6389,2.6812,2.7125,2.7345,2.7244,2.7253,2.2016,2.2184,2.2184,2.2184,2.13,2.0108,1.8783,0.0,0.0,0.0,1.4139,1.4379,1.4394,0.0,0.0,0.0,0.0,0.0,0.0,0.0,0.0,0.0,0.0,0.0,0.0,0.0,0.0,0.0,2.4112,2.4112,2.4112,2.4112,2.4112,2.4112,2.4112,2.4112,2.4112,2.4112,2.4112,2.4112,2.4112,2.4112,2.4112,2.4112,2.4112,2.4112,2.4112,2.4112,2.4112,2.4112,2.4112,2.4112,2.4112,2.4112,2.4112,2.4112,2.4112,2.4112,2.4112,2.4112,2.4112,2.4112,2.4112,2.4112,2.4112,2.4112,2.4112,2.4112,2.4112,2.4054,2.3819,2.3582,2.333,2.3065,2.2798,2.2592,2.2592,2.2421,2.2359,2.2871,2.2992,2.3125,2.3641,2.3936,2.4112,2.4112,2.4112,2.4112,2.4112,2.3878,2.3631,2.3456,2.3651,2.4142,2.4883,2.5162,2.5563,2.6229,2.5891,2.584,2.622,2.5915,2.5958,2.6337,2.6648,2.6825,2.6825,2.707,2.7063,2.6736,2.6736,2.6563,2.1861,2.2132,2.2156,2.2016,2.1038,1.9738,1.8311,1.6595,0.0,0.0,1.3412,1.348,1.4087,0.0,0.0,0.0,0.0,0.0,0.0,0.0,0.0,0.0,0.0,0.0,0.0,0.0,0.0,0.0,2.4112,2.4112,2.4112,2.4112,2.4112,2.4112,2.4112,2.4112,2.4112,2.4112,2.4112,2.4112,2.4112,2.4112,2.4112,2.4112,2.4067,2.3936,2.3936,2.3936,2.3936,2.3936,2.3995,2.4112,2.4112,2.4112,2.4112,2.3995,2.3936,2.3936,2.3936,2.3936,2.3995,2.4054,2.4112,2.4112,2.4112,2.4112,2.4112,2.4112,2.4054,2.3878,2.3522,2.321,2.2957,2.2421,2.2298,2.2298,2.2298,2.2002,2.1877,2.2359,2.2482,2.2616,2.3138,2.3628,2.3936,2.3936,2.4067,2.4112,2.4112,2.3569,2.3065,2.2713,2.2737,2.2892,2.331,2.3683,2.4218,2.5022,2.498,2.5259,2.6014,2.596,2.6176,2.6788,2.6788,2.6788,2.6788,2.6736,2.6457,2.6014,2.6014,2.5783,2.1462,2.1854,2.2044,2.1541,2.0864,1.9824,1.7824,0.0,0.0,1.3221,1.2625,1.2636,1.3659,1.4598,0.0,0.0,0.0,0.0,0.0,0.0,0.0,0.0,0.0,0.0,0.0,0.0,0.0,0.0,2.4112,2.4112,2.4112,2.4112,2.4112,2.4112,2.4112,2.4112,2.4112,2.4112,2.4112,2.4112,2.4112,2.4112,2.4112,2.4112,2.3878,2.3463,2.3463,2.3463,0.0,2.3463,2.37,2.4112,2.4112,2.4112,2.4054,2.3641,2.3463,2.3463,2.3463,2.3463,2.3522,2.3936,2.4112,2.4112,2.4112,2.4112,2.4112,2.4112,2.3819,2.3463,2.3403,2.2702,2.1951,2.1463,2.1348,2.1348,2.1348,2.1285,2.14,2.1877,2.1939,2.2125,2.2604,2.3125,2.3463,2.3463,2.3819,2.4112,2.4112,2.3292,2.2531,2.2224,2.2051,2.2224,2.2832,2.2445,2.2735,2.3987,2.4058,2.4372,2.5063,2.5231,2.5287,2.5398,2.5398,2.5398,2.5398,2.5231,2.5175,2.5119,2.5119,2.5063,2.1094,2.1575,2.1657,2.1372,2.0836,1.9908,1.7935,0.0,1.4273,1.3081,1.2193,1.1932,1.2996,1.3762,1.4863,0.0,1.7211,1.7907,1.9877,0.0,0.0,0.0,0.0,0.0,0.0,0.0,0.0,0.0,2.4112,2.4112,2.4112,2.4112,2.4112,2.4112,2.4112,2.4112,2.4112,2.4112,2.4112,2.4112,2.4112,2.4112,2.4112,2.3819,2.37,2.3819,2.3185,2.3245,0.0,2.3185,2.3185,2.3641,2.3292,2.3233,2.316,2.2992,2.2932,2.2932,2.3271,2.3403,2.3463,2.3936,2.4112,2.4112,2.4112,2.3878,2.37,2.37,2.3318,2.2871,2.2567,2.2013,2.14,2.1221,2.1221,2.1221,2.1221,2.1221,2.1285,2.1463,2.1702,2.1939,2.2125,2.2884,2.3403,2.3403,2.3819,2.3995,2.37,2.3053,2.2408,2.199,2.1439,2.1313,2.1717,2.1381,2.1557,2.2482,2.2299,2.2664,2.3761,2.3878,2.4226,2.5063,2.5063,2.5063,2.5063,2.5007,2.4794,2.4452,2.4452,2.4221,2.0486,2.1039,2.108,2.0853,2.0457,1.9627,0.0,1.5949,1.4335,1.3109,1.197,1.1527,1.2729,1.3197,1.411,0.0,1.6606,1.7357,1.9211,0.0,0.0,0.0,0.0,0.0,0.0,0.0,0.0,2.4112,2.4112,2.4112,2.4112,2.4112,2.4112,2.4112,2.4112,2.4054,2.3878,2.3878,2.3806,2.3675,2.3675,2.3675,2.3675,2.3318,2.3258,2.3424,2.2677,2.2798,0.0,2.2677,2.2677,2.3138,2.2738,2.2592,2.2592,2.2408,2.2421,2.2482,2.3005,2.3138,2.3258,2.3878,2.4112,2.4054,2.3936,2.3641,2.3403,2.3198,2.2811,2.2298,2.1815,2.1463,2.1221,2.1221,2.1221,2.1221,2.1221,2.1221,2.1221,2.1221,2.1463,2.1702,2.1702,2.2396,2.2957,2.2957,2.3378,2.3556,2.3198,2.2677,2.2237,2.1939,2.1198,2.0828,2.0944,2.0549,2.0602,2.1239,2.0996,2.1302,2.2384,2.2628,2.317,2.4124,2.431,2.4439,2.4439,2.4439,2.4221,2.378,2.378,2.3543,1.9732,2.02,2.0387,1.9778,1.9486,1.8927,0.0,1.5721,1.4457,1.3248,1.1995,1.1537,1.3018,1.3143,1.37,1.5762,1.644,1.7112,1.8324,1.9613,0.0,0.0,0.0,0.0,0.0,0.0,0.0,2.4112,2.4112,0.0,2.4112,2.4112,2.4112,2.4112,2.4112,2.3878,2.3403,2.3403,2.3125,2.2604,2.2604,2.2604,2.2604,2.2592,2.2359,2.1939,2.1877,2.1877,0.0,2.1877,2.2175,2.2604,2.2592,2.2592,2.2531,2.2063,2.1877,2.1939,2.2482,2.2592,2.2786,2.3793,2.4112,2.3995,2.3582,2.3403,2.3271,2.2738,2.2298,2.1827,2.1348,2.1221,2.1221,2.1221,2.1221,2.1221,2.1221,2.1221,2.1221,2.1221,2.1221,2.1221,2.1221,2.1588,2.1939,2.1939,2.2298,2.2592,2.2592,2.2187,2.1889,2.1877,2.1463,2.1031,2.0635,1.9987,1.9922,2.059,2.0279,2.042,2.106,2.1741,2.2113,2.2101,2.275,2.3138,2.3138,2.3138,2.3138,2.3138,2.3138,2.3138,1.7562,1.8321,1.8598,1.7823,1.8067,1.8121,1.6627,1.5406,1.4356,1.3583,1.2711,1.2352,1.309,1.3553,1.454,1.6774,0.0,0.0,0.0,0.0,0.0,0.0,0.0,0.0,0.0,0.0,0.0,2.3641,2.3936,2.3936,2.3641,2.3641,2.376,2.4112,2.376,2.3582,2.3403,2.3065,2.2786,2.2592,2.2592,2.2592,2.2592,2.2298,2.2237,2.2359,2.1702,2.1765,2.2359,2.1702,2.1702,2.2063,2.1765,2.1639,2.1651,2.1463,2.1639,2.1939,2.2421,2.2859,2.3258,2.3878,2.3878,2.3522,2.2992,2.2859,2.2677,2.1889,2.1526,2.1411,2.1221,2.1221,2.1221,2.1221,2.1221,2.1221,2.1221,2.1221,2.1221,2.1221,2.1221,2.1221,2.1221,2.1588,2.1877,2.1877,2.2298,2.247,2.2175,2.2002,2.1765,2.1463,2.1285,2.1158,2.1031,2.0377,2.0042,2.0215,1.9715,1.9715,2.0355,2.0602,2.1164,2.2101,2.2298,2.2616,2.3078,2.3078,2.3078,2.3078,2.3078,2.3078,0.0,1.6737,1.7067,1.6422,1.6838,1.7084,1.5806,1.4818,1.3989,1.3355,1.2834,1.2658,1.3237,1.3821,1.4744,1.6426,1.7086,0.0,0.0,0.0,0.0,0.0,0.0,0.0,0.0,0.0,2.37,2.3403,2.3497,2.3424,2.3125,2.3125,2.3245,2.3543,2.3245,2.3005,2.2836,2.2494,2.2237,2.2063,2.2063,2.2063,2.2063,2.1765,2.1827,2.2063,2.1463,2.1639,0.0,2.1526,2.1463,2.1815,2.14,2.1221,2.1221,2.14,2.1639,2.2002,2.2677,2.3065,2.3271,2.376,2.345,2.2836,2.2433,2.2237,2.1939,2.1336,2.1221,2.1221,2.1221,2.1221,2.1221,2.1221,2.1221,2.1221,2.1221,2.1221,2.1221,2.1221,2.1221,2.1221,2.1221,2.1463,2.1651,2.1651,2.1877,2.1939,2.1702,2.1651,2.1526,2.1221,2.1221,2.1221,2.1221,2.0495,2.0042,1.9911,1.9396,1.9264,1.9715,1.9977,2.0473,2.1353,2.1854,2.2298,2.275,2.3005,2.3078,2.3078,2.3078,2.319,0.0,1.5334,1.5754,1.5419,1.5727,1.5888,1.4811,1.4038,0.0,1.276,1.2527,1.2696,1.3532,1.4074,1.4602,1.5322,0.0,0.0,0.0,0.0,0.0,0.0,0.0,0.0,0.0,0.0,2.339,2.3343,2.2871,2.2592,2.2531,2.2531,2.2531,2.2531,2.2543,2.2298,2.1877,2.1889,2.1639,2.1221,2.1221,2.1221,2.1221,2.1221,2.1221,0.0,2.1221,2.1463,2.1827,2.1411,2.1463,2.1827,2.1336,2.1221,2.1285,2.1702,2.1877,2.2063,2.2957,2.315,2.303,2.3437,2.2896,2.2087,2.1889,2.1526,2.1221,2.1221,2.1221,2.1221,2.1221,2.1221,2.1221,2.1221,2.1221,2.1221,2.1221,2.1221,2.1221,2.1221,2.1221,2.1221,2.1221,2.1221,2.1221,2.1221,2.1221,2.1221,2.1221,2.1221,2.1221,2.1221,2.1221,2.1158,2.1158,2.0495,1.9977,1.9671,1.9274,1.9075,1.9075,1.9715,2.0031,2.0096,2.1416,2.2101,2.2101,2.275,2.3078,2.3078,2.3115,2.3416,1.1428,0.0,1.405,1.357,1.4127,1.4664,0.0,1.3739,1.3298,0.0,0.0,0.0,0.0,0.0,0.0,0.0,0.0,0.0,0.0,0.0,0.0,0.0,0.0,0.0,0.0,0.0,2.3365,2.2555,2.2567,2.2408,2.2051,2.2063,2.2063,2.2063,2.1702,2.1639,2.1877,2.1526,2.1285,2.1221,2.1221,2.1221,2.1221,2.1221,2.1221,2.1221,2.1221,2.1285,2.1348,2.1221,2.1285,2.1348,2.1221,2.1285,2.1336,2.1336,2.1663,2.2173,2.2347,2.2932,2.3577,2.328,2.2763,2.2049,2.1537,2.1285,2.1221,2.1221,2.1221,2.1221,2.1221,2.1221,2.1221,2.1221,2.1221,2.1221,2.1221,2.1221,2.1221,2.1221,2.1221,2.1221,2.1221,2.1221,2.1221,2.1221,2.1221,2.1221,2.1221,2.1221,2.1221,2.1221,2.1221,2.1094,2.0775,2.0366,2.0042,1.9977,1.9396,1.9075,1.9075,1.9264,1.9584,2.0107,2.1416,2.2101,2.2101,2.275,2.3078,2.3078,2.359,2.3529,1.038,1.2255,1.4008,1.3617,1.4225,1.478,1.4357,0.0,0.0,0.0,0.0,0.0,0.0,0.0,0.0,0.0,0.0,0.0,0.0,0.0,0.0,0.0,0.0,0.0,0.0,0.0,2.31,2.2247,2.2025,2.1827,2.1577,2.1588,2.1588,2.1588,2.1348,2.1348,2.1588,2.1348,2.1221,2.1221,2.1221,2.1221,2.1221,2.1221,2.1221,2.1221,2.1221,2.1348,2.1526,2.1285,2.1348,2.1612,2.1296,2.1273,2.1388,2.1526,2.1788,2.2161,2.2811,2.3339,2.3564,2.2798,2.2347,2.1999,2.1474,2.1273,2.1273,2.1221,2.1221,2.1221,2.1221,2.1221,2.1221,2.1221,2.1221,2.1221,2.1221,2.1221,2.1221,2.1221,2.1221,2.1221,2.1221,2.1221,2.1221,2.1221,2.1221,2.1221,2.1221,2.1221,2.1221,2.1221,2.1221,2.1094,2.0892,2.0571,2.0172,1.9922,1.9396,1.9075,1.9075,1.9075,1.9396,2.0107,2.0794,2.1353,2.1616,2.2565,2.2873,2.251,2.3435,2.375,1.0374,1.2609,1.4622,1.4295,1.49,1.5389,0.0,0.0,0.0,0.0,0.0,0.0,0.0,0.0,0.0,0.0,0.0,0.0,0.0,0.0,0.0,0.0,0.0,0.0,0.0,2.3084,2.267,2.1945,2.1385,2.1072,2.1003,2.1141,2.1187,2.1055,2.1187,2.1221,2.1221,2.1221,2.1221,2.1221,2.1221,2.1221,2.1221,2.1221,2.1221,2.1221,0.0,0.0,2.1765,2.1336,2.1549,2.1999,2.1474,2.14,2.1628,2.2013,2.2075,2.2187,2.3458,2.3649,2.3233,2.2334,2.1987,2.1862,2.1537,2.1388,2.1388,2.1296,2.1221,2.1221,2.1221,2.1221,2.1221,2.1221,2.1221,2.1221,2.1221,2.1221,2.1221,2.1221,2.1221,2.1221,2.1221,2.1221,2.1221,2.1221,2.1221,2.1256,2.1273,2.1284,2.1307,2.1452,2.1388,2.1323,2.1323,2.0935,2.038,1.9722,1.9372,1.9142,1.9075,1.9075,1.9396,1.9977,2.0042,2.0355,2.0933,2.2221,2.248,2.1838,2.3003,2.3792,1.0778,1.2897,1.4438,1.3667,1.4452,1.5243,0.0,0.0,0.0,0.0,0.0,0.0,0.0,0.0,0.0,0.0,0.0,0.0,0.0,0.0,0.0,0.0,0.0,0.0,2.1907,2.2091,2.175,2.0523,2.0565,2.0453,1.9941,2.0772,2.0963,2.0538,2.094,2.1221,2.1221,2.1221,2.1221,2.1221,2.1221,2.1221,2.1221,2.1221,2.1221,2.1221,0.0,2.1221,2.1285,2.1221,2.1296,2.1348,2.1714,2.2063,2.2421,2.2482,2.2543,2.2543,2.2774,2.2628,2.2482,2.2689,2.2334,2.1874,2.1686,2.1537,2.1463,2.1561,2.1486,2.14,2.14,2.14,2.1336,2.1221,2.1221,2.1221,2.1221,2.1221,2.1221,2.1221,2.1221,2.1221,2.1221,2.1221,2.1221,2.1221,2.1221,2.1319,2.1755,2.1812,2.1973,2.2398,2.2173,2.1958,2.1958,2.1352,2.0706,2.0232,1.9762,1.9407,1.9131,1.9075,1.9142,1.9264,1.9846,2.0161,2.0226,2.1445,2.1893,2.185,2.2891,2.3013,0.9896,1.1523,1.2985,1.3705,1.5327,1.6493,0.0,0.0,0.0,0.0,0.0,0.0,0.0,0.0,0.0,0.0,0.0,0.0,0.0,0.0,0.0,0.0,0.0,2.2234,2.1142,2.1335,2.1175,2.017,2.011,1.9978,1.97,2.0125,2.0377,2.0412,2.0641,2.0882,2.1221,2.1221,2.1221,2.1221,2.1221,2.1221,2.1221,2.1221,2.1221,2.1221,0.0,2.1588,2.1588,2.1588,2.1651,2.1737,2.1827,2.2175,2.2592,2.2543,2.2786,2.3027,2.2322,2.2396,2.2702,2.2592,2.2297,2.1999,2.1874,2.1675,2.1612,2.1749,2.16,2.1388,2.1388,2.1388,2.14,2.1221,2.1221,2.1221,2.1221,2.1221,2.1221,2.1221,2.1221,2.1221,2.1221,2.1221,2.1261,2.1537,2.1571,2.1755,2.2271,2.2329,2.2421,2.265,2.2537,2.24,2.24,2.1918,2.1155,2.0065,1.9603,1.9274,1.9142,1.9075,1.9075,1.9075,1.9638,1.9967,1.9967,2.138,2.1882,2.1474,2.2601,2.2944,0.9428,1.0556,1.1818,1.3964,0.0,0.0,0.0,0.0,0.0,0.0,0.0,0.0,0.0,0.0,0.0,0.0,0.0,0.0,0.0,0.0,0.0,0.0,2.1555,2.1468,2.032,2.0556,2.047,1.9804,1.9645,1.9506,1.9333,1.9562,1.9861,2.0228,2.0251,2.0538,2.1221,2.1106,2.1106,2.1221,2.1221,2.1221,2.1221,2.1221,2.1221,2.1221,2.1577,2.1765,2.1765,2.1765,2.1839,2.1987,2.1963,2.2372,2.2895,2.2665,2.3027,2.3399,2.2173,2.2223,2.2811,2.2359,2.2197,2.2185,2.1999,2.1874,2.1749,2.1937,2.1737,2.1463,2.1463,2.1463,2.14,2.1221,2.1221,2.1221,2.1221,2.1221,2.1221,2.1221,2.1221,2.1221,2.1221,2.1261,2.1479,2.187,2.203,2.2283,2.28,2.2857,2.2903,2.3029,2.296,2.2891,2.2752,2.2291,2.1501,2.031,1.9713,1.9385,1.9385,1.9385,1.9385,1.9385,1.9737,1.9913,1.9913,2.1357,2.169,2.1124,2.2179,2.2703,1.0506,1.119,1.1812,1.4238,0.0,0.0,0.0,0.0,0.0,0.0,0.0,0.0,0.0,0.0,0.0,0.0,0.0,0.0,0.0,0.0,0.0,2.0055,2.0385,2.0322,1.9194,1.9442,1.9413,1.8774,1.9001,1.8848,1.8221,1.9172,1.9711,1.9746,1.9746,2.0205,2.1221,2.0699,2.0699,2.1221,2.1221,2.1221,2.1221,2.1221,2.1221,2.1221,2.1221,2.1221,2.1221,2.1221,2.1336,2.1514,2.1901,2.2871,2.3943,2.3446,2.3386,2.3458,2.2285,2.2061,2.2247,2.2197,2.2197,2.2197,2.2185,2.1987,2.1839,2.2123,2.1949,2.1698,2.1698,2.1698,2.1635,2.1296,2.1221,2.1221,2.1221,2.1221,2.1221,2.1221,2.1221,2.1221,2.1221,2.156,2.1881,2.1916,2.2329,2.2811,2.3258,2.3315,2.3569,2.4039,2.3784,2.3419,2.304,2.2185,2.1699,2.1594,2.0791,2.0327,2.0327,2.0327,2.0327,2.0327,2.0358,2.0379,2.0379,2.0949,2.1188,2.1124,2.1665,2.1883,0.9603,1.0339,1.1261,1.4116,0.0,0.0,0.0,0.0,0.0,0.0,0.0,0.0,0.0,0.0,0.0,0.0,0.0,0.0,0.0,0.0,2.061,1.9901,2.0003,1.9798,1.9093,1.8987,1.8869,1.8614,1.853,1.8389,1.8096,1.845,1.8873,1.9183,1.9516,2.001,2.0687,2.0814,2.0974,2.1221,2.1221,2.1221,2.1221,2.1221,2.1221,2.1221,2.1827,2.1889,2.1639,2.1939,2.1939,2.1753,2.2249,2.2811,2.3305,2.2967,2.2919,2.2896,2.2061,2.1937,2.2197,2.2197,2.2197,2.2197,2.2061,2.1874,2.1737,2.1886,2.1686,2.16,2.1937,2.1886,2.1635,2.1296,2.1221,2.1221,2.1221,2.1221,2.1221,2.1221,2.1221,2.1221,2.1221,2.1319,2.1663,2.2294,2.2559,2.2983,2.3798,2.3913,2.3982,2.4177,2.4043,2.3897,2.3751,2.3425,2.2802,2.1838,2.0918,2.042,2.042,2.042,2.042,2.042,2.071,2.0855,2.0855,2.1321,2.1549,2.1549,2.1725,2.1807,0.9298,1.0067,1.1123,0.0,0.0,0.0,0.0,0.0,0.0,0.0,0.0,0.0,0.0,0.0,0.0,0.0,0.0,0.0,0.0,2.0105,2.0156,1.9604,1.9552,1.9396,1.904,1.8774,1.8614,1.8614,1.8302,1.8084,1.8084,1.8084,1.838,1.8873,1.9252,1.9757,2.04,2.0756,2.1009,2.1221,2.1221,2.1221,2.1221,2.1221,2.1285,2.1463,2.2125,2.2298,2.2125,2.2482,2.2359,2.2025,2.2372,2.2628,2.2763,2.2616,2.2567,2.2592,2.1999,2.1874,2.2135,2.2185,2.2197,2.2185,2.2061,2.1812,2.1635,2.1698,2.1549,2.14,2.18,2.1749,2.1561,2.1296,2.1221,2.1221,2.1221,2.1221,2.1221,2.1221,2.1221,2.1279,2.1376,2.1537,2.1939,2.28,2.3064,2.3408,2.4108,2.42,2.42,2.42,2.42,2.42,2.42,2.397,2.3372,2.2252,2.1355,2.0855,2.0855,2.0855,2.0855,2.0855,2.1176,2.1331,2.1331,2.1652,2.1807,2.1807,2.1807,2.1807,0.9982,1.0653,0.0,0.0,0.0,0.0,0.0,0.0,0.0,0.0,0.0,0.0,0.0,0.0,0.0,0.0,0.0,0.0,1.9798,1.9798,1.9604,1.904,1.8987,1.8987,1.8987,1.8774,1.8614,1.8614,1.8302,1.8084,1.8084,1.8084,1.8368,1.8873,1.8896,1.9378,2.0389,2.0412,2.0664,2.1221,2.1221,2.1221,2.1221,2.1221,2.1463,2.1877,2.1877,2.2175,2.2592,2.2592,2.2445,2.2197,2.2359,2.2457,2.2604,2.2457,2.2519,2.2543,2.2099,2.1937,2.1925,2.2123,2.2197,2.2197,2.2197,2.1874,2.1549,2.1635,2.1434,2.1221,2.1221,2.1273,2.1336,2.1221,2.1221,2.1221,2.1221,2.1221,2.1221,2.1221,2.1221,2.1319,2.1824,2.234,2.2857,2.3292,2.3856,2.4189,2.42,2.42,2.42,2.42,2.42,2.42,2.42,2.3457,2.3001,2.3001,2.2252,2.1807,2.1807,2.1807,2.1807,2.1807,2.1807,2.1807,2.1807,2.1807,2.1807,2.1807,2.1807,2.1807,0.9821,0.0,0.0,0.0,0.0,0.0,0.0,0.0,0.0,0.0,0.0,0.0,0.0,0.0,0.0,0.0,1.9408,1.9251,1.9251,1.9251,1.9198,1.904,1.8987,1.8946,1.8839,1.8679,1.856,1.8464,1.8247,1.8084,1.8084,1.8084,1.8153,1.8302,1.8701,1.9218,1.9895,2.024,2.0838,2.1702,2.1336,2.1221,2.1221,2.1221,2.1285,2.1411,2.1765,2.2002,2.2125,2.2125,2.1939,2.1663,2.1812,2.2111,2.2457,2.2689,2.2641,2.2457,2.2567,2.2273,2.1925,2.2123,2.2197,2.2135,2.1949,2.18,2.1651,2.1423,2.1296,2.1221,2.1221,2.1221,2.1221,2.1221,2.1221,2.1221,2.1221,2.1221,2.1221,2.1221,2.1221,2.1204,2.1365,2.2111,2.2731,2.288,2.3029,2.3385,2.4108,2.42,2.42,2.42,2.42,2.42,2.42,2.2927,2.2176,2.2176,2.1949,2.1807,2.1807,2.1807,2.1807,2.1807,2.1807,2.1807,2.1807,2.1807,2.1807,2.1807,2.1807,2.1807,1.0573,0.0,0.0,0.0,0.0,0.0,0.0,0.0,0.0,0.0,0.0,0.0,0.0,0.0,0.0,1.9081,1.9052,1.8987,1.8987,1.8987,1.8987,1.8987,1.8987,1.8946,1.8798,1.8679,1.8518,1.8422,1.8193,1.8084,1.8084,1.8084,1.8084,1.8084,1.8632,1.9046,1.9378,1.9872,2.0549,2.1272,2.1047,2.0963,2.1221,2.1221,2.1285,2.1526,2.1939,2.231,2.2506,2.2249,2.2063,2.1877,2.1862,2.2111,2.2396,2.231,2.2445,2.2702,2.2641,2.2408,2.2111,2.2309,2.2309,2.2135,2.1949,2.1862,2.1765,2.1486,2.1296,2.1221,2.1221,2.1221,2.1221,2.1221,2.1221,2.1221,2.1221,2.1221,2.1221,2.1221,2.1221,2.1221,2.1221,2.1663,2.2352,2.3167,2.3282,2.35,2.412,2.42,2.397,2.3298,2.3224,2.283,2.1811,2.0837,2.0712,2.1731,2.1807,2.1807,2.1807,2.1807,2.1807,2.1807,2.1492,2.1339,2.1339,2.1175,2.1328,2.1807,2.1807,2.1807,0.0,0.0,0.0,0.0,0.0,0.0,0.0,0.0,0.0,0.0,0.0,0.0,0.0,0.0,0.0,1.8915,1.8987,1.8987,1.8987,1.8987,1.8987,1.8987,1.8987,1.8946,1.8798,1.8679,1.8518,1.8367,1.8193,1.8084,1.8084,1.8084,1.8084,1.8084,1.8586,1.885,1.8896,1.9378,1.9861,2.0404,2.0343,2.0669,2.1215,2.121,2.14,2.1877,2.2359,2.2811,2.315,2.2798,2.2604,2.2555,2.2297,2.2297,2.2372,2.1765,2.2113,2.2907,2.2408,2.2297,2.2359,2.2555,2.2432,2.2185,2.2185,2.2037,2.1776,2.1686,2.1434,2.1221,2.1221,2.1221,2.1221,2.1221,2.1221,2.1221,2.1221,2.1221,2.1221,2.1221,2.1221,2.1221,2.1221,2.1383,2.2065,2.3913,2.42,2.42,2.42,2.4043,2.3446,2.1959,2.1568,2.0547,1.8193,1.804,1.8975,2.1328,2.1415,2.1568,2.1807,2.1807,2.1807,2.1807,2.0954,2.0489,2.0479,2.007,2.0459,2.1645,2.1645,2.1721,0.0,0.0,0.0,0.0,0.0,0.0,0.0,0.0,0.0,0.0,0.0,0.0,0.0,0.0,0.0,1.8975,1.8987,1.8987,1.8987,1.8893,1.8893,1.8987,1.8893,1.8786,1.8679,1.8614,1.8452,1.8193,1.8139,1.8084,1.8084,1.8084,1.8084,1.8084,1.8187,1.8495,1.8885,1.9011,1.9552,2.0405,2.0016,2.0271,2.1101,2.1163,2.1285,2.1411,2.1827,2.1889,2.1714,2.2359,2.2506,2.2297,2.2247,2.242,2.2775,2.2433,2.2237,2.2187,2.2433,2.2125,2.1651,2.1987,2.1975,2.1901,2.1901,2.1975,2.1999,2.1486,2.1233,2.1221,2.1221,2.1221,2.1221,2.1221,2.1221,2.1221,2.1221,2.1221,2.1221,2.1221,2.1221,2.1221,2.1221,2.249,2.3695,2.4131,2.42,2.42,2.42,2.3075,2.2176,2.1807,2.0001,1.8585,1.8031,1.804,1.8193,1.8745,1.8825,1.9687,2.1731,2.1807,2.1807,2.1807,2.0624,1.9913,1.9618,1.945,1.9756,2.0294,2.0294,2.0847,0.0,0.0,0.0,0.0,0.0,0.0,0.0,0.0,0.0,0.0,0.0,0.0,0.0,0.0,1.8987,1.8987,1.8987,1.8999,1.8893,1.8851,1.8798,1.8827,1.8786,1.8744,1.8518,1.856,1.8452,1.8139,1.8084,1.8084,1.8084,1.8084,1.8084,1.8084,1.8084,1.821,1.8529,1.8529,1.8906,1.969,1.9414,1.9691,2.0427,2.0938,2.1221,2.1221,2.1463,2.1526,2.1577,2.2063,2.2199,2.2037,2.2037,2.2273,2.258,2.2125,2.2187,2.2421,2.2298,2.2125,2.1963,2.2099,2.2111,2.1975,2.1975,2.2123,2.2123,2.1812,2.1423,2.1221,2.1221,2.1221,2.1221,2.1221,2.1221,2.1221,2.1221,2.1221,2.1221,2.1221,2.195,2.2616,2.2616,2.223,2.1821,2.1821,2.1821,2.1821,2.1821,2.076,2.0001,2.0001,1.8825,1.804,1.804,1.804,1.804,1.804,1.804,1.8585,1.9923,2.0001,2.0001,2.0001,1.9362,1.8895,1.8674,1.8674,1.8825,1.8966,1.9292,2.0079,0.0,0.0,0.0,0.0,0.0,0.0,0.0,0.0,0.0,0.0,0.0,0.0,0.0,0.0,1.8999,1.8999,1.8999,1.8946,1.8798,1.8744,1.8732,1.8614,1.8679,1.8637,1.8422,1.8518,1.8464,1.8139,1.8084,1.8084,1.8084,1.8084,1.8084,1.8084,1.803,1.7963,1.8084,1.803,1.818,1.8702,1.8794,1.9068,1.9585,2.0492,2.1014,2.1095,2.1187,2.14,2.1765,2.1889,2.1877,2.1877,2.1877,2.2063,2.2249,2.1463,2.1889,2.2665,2.2002,2.2025,2.2285,2.2285,2.2173,2.2061,2.2185,2.2135,2.1999,2.1999,2.1612,2.1221,2.1221,2.0828,2.056,2.1094,2.1221,2.1221,2.1221,2.1221,2.1221,2.1221,2.2524,2.3632,2.3368,2.1135,1.9301,1.9301,1.9301,1.9301,1.9301,1.8665,1.8193,1.804,1.804,1.804,1.804,1.804,1.804,1.804,1.804,1.804,1.804,1.804,1.804,1.804,1.804,1.804,1.804,1.804,1.804,1.8031,1.8603,1.9311,0.0,0.0,0.0,0.0,0.0,0.0,0.0,0.0,0.0,0.0,0.0,0.0,0.0,1.8851,1.8851,1.8851,1.8851,1.8798,1.8679,1.8625,1.8614,1.8614,1.8518,1.8422,1.8422,1.8422,1.8367,1.8139,1.8084,1.8084,1.8084,1.8084,1.8084,1.8084,1.7611,1.7556,1.8084,1.7556,1.7479,1.7868,1.8351,1.8703,1.9023,1.962,2.0113,2.0538,2.0974,2.1221,2.1348,2.1765,2.1877,2.1877,2.1877,2.1939,2.1877,2.1411,2.1285,2.1463,2.1348,2.1348,2.1348,2.1348,2.1348,2.1423,2.1999,2.18,2.136,2.136,2.1285,2.1221,2.1221,1.9365,1.8104,2.0624,2.1221,2.1221,2.1221,2.1221,2.1221,2.1221,2.144,2.1284,2.011,1.9608,1.9301,1.9301,1.9301,1.9301,1.9301,1.9222,1.8825,1.8121,1.804,1.804,1.804,1.804,1.804,1.804,1.804,1.804,1.804,1.804,1.804,1.804,1.804,1.804,1.804,1.804,1.804,1.804,1.8112,1.8193,0.0,0.0,0.0,0.0,0.0,0.0,0.0,0.0,0.0,0.0,0.0,0.0,1.8246,1.8543,1.8798,1.8679,1.8679,1.8625,1.8518,1.8464,1.8464,1.8356,1.8367,1.8367,1.8247,1.8313,1.8313,1.8139,1.8084,1.7963,1.7611,1.7512,1.7346,1.7112,1.6754,1.6754,1.7112,1.6754,1.6585,1.6662,1.6977,1.7245,1.737,1.7937,1.8866,2.0021,2.024,2.0492,2.0745,2.097,2.1269,2.1526,2.1526,2.1262,2.0933,2.1146,2.0816,2.042,2.1019,2.1221,2.1221,2.1221,2.1221,2.1296,2.1549,2.1423,2.1221,2.1221,2.0031,1.8767,1.8767,1.7833,1.7638,2.0495,1.9966,1.8767,1.8767,1.8767,1.8767,1.8767,1.8767,1.8614,1.8044,1.8705,1.9301,1.9301,1.9301,1.9301,1.9301,1.8904,1.8434,1.804,1.804,1.804,1.804,1.804,1.804,1.804,1.804,1.804,1.804,1.804,1.804,1.804,1.804,1.804,1.804,1.804,1.804,1.804,1.804,1.804,0.0,0.0,0.0,0.0,0.0,0.0,0.0,0.0,0.0,0.0,0.0,0.0,1.7275,1.7949,1.8537,1.8548,1.8572,1.8518,1.8367,1.8367,1.8313,1.8139,1.8247,1.8259,1.8084,1.8259,1.8193,1.7909,1.7854,1.7611,1.6978,1.6821,1.6595,1.6197,1.5958,1.5891,1.6187,1.6026,1.5901,1.5786,1.5901,1.5958,1.6026,1.6557,1.7509,1.8703,1.9078,1.9512,1.9973,1.9902,2.0109,2.0508,2.0579,2.0366,2.0096,2.0624,2.0484,2.0215,2.0955,2.1221,2.1221,2.1221,2.1221,2.1031,2.0302,2.0096,2.0096,2.0096,1.8566,1.6908,1.6908,1.6908,1.7442,1.9562,1.8432,1.6908,1.6908,1.6908,1.6908,1.6908,1.6908,1.7037,1.744,1.8513,1.9301,1.9301,1.9301,1.9222,1.8984,1.8434,1.804,1.804,1.804,1.804,1.804,1.804,1.804,1.804,1.804,1.804,1.804,1.804,1.804,1.804,1.804,1.804,1.804,1.804,1.804,1.804,1.804,1.804,0.0,0.0,0.0,0.0,0.0,0.0,0.0,0.0,0.0,0.0,0.0,1.6125,1.6028,1.6935,1.781,1.834,1.8422,1.8367,1.8139,1.8259,1.8313,1.8139,1.8084,1.8084,1.8084,1.8084,1.7843,1.7313,1.7257,1.6922,1.6187,1.613,1.6073,1.5843,1.5264,1.5255,1.5843,1.5575,1.5575,1.5786,1.5575,1.5575,1.5843,1.5874,1.5894,1.608,1.7355,1.824,1.878,1.8595,1.8542,1.8605,1.9,1.9365,1.9748,1.9748,2.0355,2.1158,2.1158,2.1221,2.1221,2.1221,2.1221,2.07,1.7969,1.7107,1.7107,1.7107,1.7047,1.6908,1.6908,1.6908,1.6908,1.7107,1.7038,1.6908,1.6908,1.6908,1.6908,1.6908,1.6908,1.7385,1.8916,1.9246,1.9301,1.9301,1.9301,1.8984,1.8193,1.8031,1.804,1.804,1.804,1.804,1.804,1.804,1.804,1.804,1.804,1.804,1.804,1.804,1.804,1.804,1.804,1.804,1.804,1.804,1.804,1.804,1.804,1.804,0.0,0.0,0.0,0.0,0.0,0.0,0.0,0.0,0.0,0.0,0.0,1.5799,1.5915,1.6527,1.7201,1.767,1.7762,1.7825,1.8038,1.8139,1.803,1.7556,1.7854,1.7963,1.7556,1.749,1.7435,1.7202,1.6866,1.6358,1.569,1.5439,1.5157,1.4834,1.441,1.4282,1.4519,1.441,1.435,1.4323,1.435,1.441,1.4519,1.4588,1.4874,1.5216,1.5305,1.6187,1.7483,1.754,1.7885,1.8468,1.8807,1.8877,1.8957,2.0215,1.9694,1.8432,1.8432,1.8432,1.8432,1.8432,1.8432,1.824,1.7235,1.6908,1.6908,1.6908,1.6908,1.6908,1.6908,1.6908,1.6908,1.6908,1.6908,1.6908,1.6908,1.6908,1.6908,1.6908,1.6908,1.7413,1.9026,1.8825,1.8434,1.8434,1.8434,1.8353,1.804,1.804,1.804,1.804,1.804,1.804,1.804,1.804,1.804,1.804,1.804,1.804,1.804,1.804,1.804,1.804,1.804,1.804,1.804,1.804,1.804,1.804,1.804,1.804,0.0,0.0,0.0,0.0,0.0,0.0,0.0,0.0,0.0,0.0,0.0,1.5472,1.5591,1.5972,1.6423,1.7014,1.7266,1.7496,1.784,1.7981,1.7909,1.7257,1.7556,1.7556,1.6922,1.6856,1.6754,1.6528,1.6063,0.0,1.4942,1.4697,1.441,1.401,1.383,1.37,1.37,1.37,1.364,1.3511,1.364,1.37,1.37,1.3761,1.4043,1.4382,1.4061,1.4796,1.6178,1.6217,1.6654,1.7272,1.7691,1.7835,1.7969,1.9299,1.8365,1.656,1.656,1.656,1.656,1.656,1.656,1.656,1.6839,1.6908,1.6908,1.6908,1.6908,1.6908,1.6908,1.6908,1.6908,1.6908,1.6908,1.6908,1.6908,1.6908,1.6908,1.6908,1.6908,1.7413,1.9026,1.8825,1.8353,1.804,1.804,1.804,1.804,1.804,1.804,1.804,1.804,1.804,1.804,1.804,1.804,1.804,1.804,1.804,1.804,1.804,1.804,1.804,1.804,1.804,1.804,1.804,1.804,1.804,1.804,1.804,0.0,0.0,0.0,0.0,0.0,0.0,0.0,0.0,0.0,0.0,1.4741,1.5073,1.5062,1.5062,1.5383,1.6367,1.7002,1.7347,1.7369,1.7752,1.7831,1.7202,1.7146,1.6856,1.612,1.6073,1.5843,1.5225,1.4972,1.4628,1.401,1.389,1.37,1.3511,1.3511,1.3511,1.3511,1.3511,1.3511,1.3511,1.3511,1.3511,1.3511,1.3511,1.3511,1.3511,1.37,1.4222,1.4824,1.4637,1.4711,1.5016,1.5575,1.6175,1.6872,1.683,1.6421,1.5805,1.5805,1.5805,1.5805,1.5805,1.5805,1.5938,1.663,1.6839,1.6839,1.6839,1.6839,1.6839,1.6839,1.6839,1.6839,1.6839,1.6839,1.6839,1.6839,1.6839,1.6908,1.6908,1.6908,1.7332,1.8962,1.9265,1.8984,1.8112,1.804,1.804,1.804,1.804,1.804,1.804,1.804,1.804,1.804,1.804,1.804,1.804,1.804,1.804,1.804,1.804,1.804,1.804,1.804,1.804,1.804,1.804,1.804,1.804,1.804,1.804,0.664,0.0,0.0,0.0,0.0,0.0,0.0,0.0,0.0,0.0,1.3914,1.4107,1.4415,1.4455,1.4543,1.4818,1.5706,1.6382,1.6499,1.6784,1.6678,1.5871,1.613,1.613,1.5507,1.5323,1.5138,0.0,1.4519,1.4181,1.401,1.389,1.37,1.3511,1.3511,1.3511,1.3511,1.3511,1.3511,1.3511,1.3511,1.3511,1.3511,1.3511,1.3511,1.3511,1.3571,1.3692,1.3932,1.4116,1.4347,1.4684,1.4551,1.5006,1.5713,1.6008,1.6008,1.5805,1.5805,1.5805,1.5805,1.5805,1.5805,1.5876,1.6008,1.6079,1.6079,1.6079,1.6079,1.6079,1.6079,1.6079,1.6079,1.6079,1.6079,1.6079,1.6079,1.6079,1.6289,1.6769,1.6491,1.628,1.6709,1.7621,1.8273,1.804,1.804,1.804,1.804,1.804,1.804,1.804,1.804,1.804,1.804,1.804,1.804,1.804,1.804,1.804,1.804,1.804,1.804,1.804,1.804,1.804,1.804,1.804,1.804,1.804,1.804,1.804,0.0,0.0,0.0,0.0,0.0,0.0,0.0,1.1003,0.0,0.0,1.3087,1.3422,1.3528,1.3653,1.3789,1.3789,1.4344,1.4969,1.5566,1.5742,1.5569,1.4916,1.5184,1.5195,1.4688,1.4519,1.4451,1.4451,1.4052,1.3821,1.3821,1.37,1.364,1.3511,1.3511,1.3511,1.3511,1.3511,1.3511,1.3511,1.3511,1.3511,1.3511,1.3511,1.3511,1.3511,1.3511,1.3511,1.3511,1.37,1.3952,1.4127,1.3908,1.4302,1.4989,1.524,1.5531,1.5805,1.5805,1.5805,1.5805,1.5805,1.5805,1.5805,1.5805,1.5805,1.5805,1.5805,1.5805,1.5805,1.5805,1.5805,1.5805,1.5805,1.5805,1.5805,1.5805,1.5805,1.5938,1.636,1.6079,1.5805,1.5805,1.6524,1.7321,1.7946,1.804,1.804,1.804,1.804,1.804,1.804,1.804,1.804,1.804,1.804,1.804,1.804,1.804,1.804,1.804,1.804,1.804,1.804,1.804,1.804,1.804,1.804,1.804,1.804,1.804,1.804,0.0,0.7654,0.0,0.0,0.8773,0.0,1.0247,1.0515,1.0591,0.0,0.0,1.2555,1.2343,1.2566,1.2865,1.2914,1.2916,1.3298,1.4475,1.4695,1.4553,1.425,1.4195,1.4061,1.3723,1.3682,1.3708,1.3708,1.3554,1.3511,1.3511,1.3511,1.3511,1.3511,1.3511,1.3511,1.3511,1.3511,1.3511,1.3511,1.3511,1.3511,1.3511,1.3511,1.3511,1.3511,1.3511,1.3511,1.3511,1.345,1.345,1.3511,1.3511,1.3939,1.4499,1.4624,1.5095,1.5649,1.5728,1.5762,1.5805,1.5805,1.5805,1.5805,1.5805,1.5805,1.5805,1.5805,1.5805,1.5805,1.5805,1.5805,1.5805,1.5805,1.5805,1.5805,1.5805,1.5805,1.5805,1.5805,1.5805,1.5805,1.5805,1.5942,1.6499,1.7834,1.804,1.804,1.804,1.804,1.804,1.804,1.804,1.804,1.804,1.804,1.804,1.804,1.804,1.804,1.804,1.804,1.804,1.804,1.804,1.804,1.804,1.804,1.804,1.804,1.804,1.804,0.8013,0.854,0.9184,0.9077,0.0,0.0,0.8891,0.8752,0.88,0.0,0.954,0.9845,1.0251,1.0508,1.0708,1.0994,1.1062,1.1625,1.2995,1.3279,1.328,1.3003,1.2946,1.2917,1.2828,1.3009,1.315,1.315,1.3348,1.3511,1.3511,1.3511,1.3511,1.3511,1.3511,1.3511,1.3511,1.3511,1.3511,1.3511,1.3511,1.3511,1.3511,1.3511,1.3511,1.3511,1.3511,1.3511,1.3511,1.3216,1.3277,1.3511,1.3511,1.3422,1.336,1.4085,1.4512,1.4712,1.5155,1.554,1.5805,1.5805,1.5805,1.5805,1.5805,1.5805,1.5805,1.5805,1.5805,1.5805,1.5805,1.5805,1.5805,1.5805,1.5805,1.5805,1.5805,1.5805,1.5805,1.5805,1.5805,1.5805,1.5805,1.6798,1.7706,1.7997,1.804,1.804,1.804,1.804,1.804,1.804,1.804,1.804,1.804,1.804,1.804,1.804,1.804,1.804,1.804,1.804,1.804,1.804,1.804,1.804,1.804,1.804,1.804,1.804,1.804,1.804,0.8716,0.8988,0.9336,0.9115,0.0,0.0,0.0,0.8279,0.831,0.872,0.8756,0.8884,0.9303,0.0,0.9726,1.0111,1.0294,1.0656,1.1325,1.1778,1.2095,1.218,1.2061,1.2138,1.2483,1.2625,1.2709,1.2722,1.2966,1.3092,1.3268,1.339,1.3511,1.3511,1.3511,1.3511,1.3511,1.3511,1.3511,1.3511,1.3511,1.3511,1.3511,1.3511,1.3511,1.3511,1.3338,1.3277,1.3216,1.292,1.285,1.3025,1.3025,1.3079,1.3268,1.3578,1.3802,1.4106,1.4605,1.4755,1.488,1.5607,1.5805,1.5805,1.5805,1.5805,1.5655,1.4864,1.4649,1.4649,1.4649,1.4649,1.4864,1.5584,1.5805,1.5805,1.5805,1.5805,1.5805,1.5805,1.5805,1.6036,1.679,1.7543,1.804,1.804,1.804,1.804,1.804,1.804,1.804,1.804,1.804,1.804,1.804,1.804,1.804,1.804,1.804,1.804,1.804,1.804,1.804,1.804,1.804,1.804,1.804,1.804,1.804,1.804,1.804,1.804,0.0,0.0,0.9252,0.0,0.0,0.8759,0.0,0.0,0.0,0.8284,0.8136,0.0,0.0,0.0,0.0,0.0,0.0,0.0,0.0,1.0286,0.0,1.1377,1.1372,1.1531,1.2041,1.2121,1.2197,1.2414,1.234,1.2489,1.2918,1.3168,1.3374,1.3511,1.3511,1.3511,1.3511,1.3511,1.3511,1.3511,1.345,1.339,1.339,1.3329,1.3329,1.3268,1.3042,1.292,1.2858,1.2552,1.2421,1.2482,1.2482,1.2843,1.3282,1.3084,1.3132,1.3469,1.4072,1.4079,1.4044,1.5356,1.5584,1.5371,1.5371,1.5371,1.5086,1.3855,1.3492,1.3492,1.3492,1.3492,1.3783,1.5078,1.5371,1.5371,1.5371,1.4991,1.4697,1.4848,1.4768,1.5276,1.7234,1.7603,1.7547,1.7504,1.7465,1.7465,1.7465,1.7304,1.7229,1.7432,1.7465,1.7465,1.7465,1.7465,1.7465,1.7465,1.7465,1.7465,1.7465,1.7465,1.7465,1.7465,1.7797,1.804,1.804,1.7635,1.7708,1.804,1.804,1.804,0.0,0.0,0.0,0.0,0.905,0.0,0.0,0.0,0.7304,0.6712,0.0,0.0,0.0,0.0,0.0,0.0,0.0,0.0,0.8558,0.9141,0.9756,1.0148,1.0638,1.0996,1.1038,1.1046,1.1328,1.2016,1.1548,1.167,1.2597,1.2689,1.2949,1.3494,1.3511,1.3511,1.3511,1.3511,1.3511,1.3511,1.3216,1.3042,1.3042,1.2728,1.2605,1.2605,1.2544,1.2552,1.2552,1.2243,1.2305,1.2482,1.2482,1.239,1.2305,1.2484,1.2625,1.2801,1.3469,1.3974,1.4459,1.5486,1.4864,1.3783,1.3783,1.3783,1.371,1.3564,1.3492,1.3492,1.3492,1.3492,1.3564,1.371,1.3783,1.3783,1.3783,1.207,1.0807,1.1477,1.1031,1.1726,1.5427,1.6054,1.598,1.574,1.5673,1.5673,1.5673,1.4732,1.4455,1.5546,1.5673,1.5673,1.5673,1.5673,1.5673,1.5673,1.5673,1.5673,1.5673,1.5673,1.5673,1.5673,1.7221,1.804,1.804,1.6409,1.6492,1.804,1.804,1.804,0.0,0.0,0.0,0.0,0.0,0.0,0.7423,0.0,0.6937,0.0,0.0,0.0,0.0,0.0,0.0,0.0,0.7764,0.0,0.0,0.0,0.8803,0.0,0.0,0.0,1.0335,1.026,1.0403,1.1091,1.0761,1.0871,1.1686,1.2099,1.2521,1.2957,1.2926,1.3086,1.3511,1.3086,1.3033,1.3224,1.2858,1.2736,1.2736,1.2544,1.2482,1.2482,1.2367,1.2243,1.2243,1.1934,1.1872,1.1996,1.1996,1.2058,1.2058,1.1996,1.2024,1.2063,1.2615,1.2994,1.3431,1.4238,1.4,1.3492,1.3492,1.3492,1.3492,1.3492,1.3492,1.3492,1.3492,1.3492,1.3492,1.3492,1.3492,1.3119,1.1706,1.0588,0.9997,1.0368,1.0143,1.0432,1.2124,1.3535,1.441,1.43,1.4304,1.4304,1.4304,1.3836,1.3704,1.4245,1.4984,1.5431,1.5431,1.5431,1.5431,1.5431,1.5431,1.5431,1.5431,1.5431,1.5431,1.5431,1.6079,1.6492,1.6492,1.5756,1.5756,1.6492,1.7546,1.804,0.8065,0.0,0.0,0.0,0.0,0.0,0.0,0.0,0.0,0.0,0.0,0.0,0.0,0.0,0.0,0.0,0.0,0.7513,0.0,0.0,0.0,0.0,0.0,0.0,0.0,0.9525,0.9611,1.0234,0.9915,1.0096,1.0923,1.1428,1.1953,1.2447,1.2402,1.2692,1.3208,1.2728,1.2605,1.2858,1.2552,1.2359,1.2367,1.2297,1.2236,1.2243,1.2058,1.1934,1.1934,1.1685,1.1622,1.1622,1.1622,1.1747,1.1934,1.1685,1.1622,1.1667,1.1919,1.2358,1.2862,1.3338,1.3492,1.3492,1.3492,1.3492,1.3492,1.3492,1.3492,1.3492,1.3492,1.3046,1.2526,1.2526,1.2526,1.2003,1.0293,0.9922,0.9922,0.9922,0.9922,0.9922,0.9922,1.1335,1.2526,1.2526,1.2526,1.2746,1.3419,1.3492,1.3492,1.3492,1.4655,1.5431,1.5431,1.5431,1.5431,1.5431,1.5431,1.5431,1.5431,1.5431,1.5431,1.5431,1.4664,1.4237,1.4237,1.4237,1.4237,1.4321,1.5801,1.6535,0.0,0.0,0.0,0.5923,0.0,0.0,0.0,0.0,0.6424,0.0,0.0,0.0,0.0,0.0,0.0,0.0,0.0,0.0,0.0,0.0,0.0,0.0,0.0,0.0,0.0,0.8904,0.8898,0.0,0.9089,0.9271,1.0555,1.0624,1.1098,1.207,1.2102,1.227,1.2544,1.2482,1.249,1.249,1.2243,1.212,1.2127,1.1747,1.1622,1.1622,1.1622,1.1622,1.1622,1.1622,1.1622,1.1622,1.1622,1.1622,1.1622,1.1622,1.1622,1.1622,1.1637,1.2409,1.347,1.3484,1.3492,1.3492,1.3492,1.3492,1.3492,1.3492,1.3492,1.3492,1.3492,1.1781,0.9992,0.9992,0.9992,0.9992,0.9916,0.9922,0.9922,0.9922,0.9922,0.9922,0.9922,0.9997,0.9992,0.9992,0.9992,1.0887,1.32,1.3492,1.3492,1.3492,1.4655,1.5431,1.5431,1.5431,1.5431,1.5431,1.5431,1.5431,1.5431,1.5431,1.5431,1.5431,1.2796,1.1435,1.1435,1.1435,1.1435,1.1435,1.2448,1.2869,0.0,0.0,0.5645,0.5649,0.0,0.0,0.0,0.0,0.0,0.0,0.0,0.0,0.0,0.0,0.0,0.0,0.0,0.0,0.0,0.0,0.0,0.0,0.0,0.0,0.0,0.0,0.0,0.0,0.8798,0.0,0.9896,1.0141,1.0635,1.1433,1.144,1.1774,1.2482,1.212,1.1996,1.2243,1.1934,1.1747,1.1747,1.1622,1.156,1.1428,1.156,1.1498,1.1373,1.1373,1.1373,1.1373,1.1365,1.1365,1.1358,1.156,1.1622,1.1622,1.1622,1.2123,1.2921,1.3353,1.3492,1.3492,1.3492,1.3492,1.3492,1.3492,1.2378,1.1111,1.1111,1.0519,0.9922,0.9922,0.9922,0.9922,0.9922,0.9922,0.9922,0.9922,0.9922,0.9922,0.9922,0.9922,0.9922,0.9922,0.9922,1.0218,1.1037,1.1111,1.1111,1.1111,1.2071,1.2711,1.2711,1.2711,1.2711,1.2711,1.2711,1.2711,1.2711,1.2711,1.2711,1.2711,1.1774,1.1262,1.1262,1.1262,1.1262,1.1354,1.1602,1.2112,0.5011,0.4952,0.0,0.5019,0.4999,0.0,0.4778,0.0,0.4811,0.0,0.0,0.0,0.0,0.0,0.0,0.0,0.0,0.0,0.0,0.5799,0.0,0.0,0.0,0.0,0.0,0.0,0.7731,0.8381,0.8463,0.0,0.0,0.9753,1.0184,1.074,1.0849,1.1294,1.1989,1.175,1.1685,1.1934,1.1685,1.1622,1.1622,1.1622,1.1498,1.1303,1.1428,1.1373,1.1247,1.1247,1.1247,1.1247,1.1178,1.0919,1.0598,1.0793,1.0787,1.0724,1.0982,1.1568,1.2284,1.2936,1.3309,1.3492,1.3492,1.3492,1.3346,1.2452,1.1111,0.9922,0.9922,0.9922,0.9922,0.9922,0.9922,0.9922,0.9922,0.9922,0.9922,0.9922,0.9922,0.9922,0.9922,0.9922,0.9922,0.9922,0.9922,0.9922,0.9922,0.9922,0.9922,0.9922,1.0778,1.1262,1.1262,1.1262,1.1262,1.1262,1.1262,1.1262,1.1262,1.1262,1.1262,1.1262,1.1262,1.1262,1.1262,1.1262,1.1262,1.1262,1.1262,1.1602]},{"header":{"parameterUnit":"m.s-1","parameterCategory":1,"la1":30.6,"la2":29.2853,"lo1":-89.7004,"lo2":-87.6739,"dy":0.0162,"dx":0.0183,"nx":112,"ny":82,"refTime":"2024-07-09T12:00:00:Z","depth":0,"parameterNumber":3,"parameterNumberName":"V-component_of_WINDS"},"data":[0.0,0.0,0.0,0.0,0.0,0.0,0.0,0.0,0.0,0.0,0.0,0.0,0.0,0.0,0.0,0.0,0.0,0.0,0.0,0.0,0.0,0.0,0.0,0.0,0.0,0.0,0.0,0.0,0.0,0.0,0.0,0.0,0.0,0.0,0.0,0.0,0.0,0.0,0.0,0.0,0.0,0.0,0.0,0.0,0.0,0.0,0.0,0.0,0.0,0.0,0.0,0.0,0.0,0.0,0.0,0.0,0.0,0.0,0.0,0.0,0.0,0.0,0.0,0.0,0.0,0.0,0.0,0.0,0.0,0.0,0.0,0.0,0.0,0.0,0.0,0.0,0.0,0.0,0.0,0.0,0.0,0.0,0.0,0.0,0.0,0.0,0.0,0.0,0.0,0.0,-0.6784,-0.761,-0.8498,-0.9145,-0.9263,-0.8678,-0.7772,-0.6588,0.0,0.0,0.0,0.0,0.0,0.0,0.0,0.0,0.0,0.0,0.0,0.0,0.0,0.0,0.0,0.0,0.0,0.0,0.0,0.0,0.0,0.0,0.0,0.0,0.0,0.0,0.0,0.0,0.0,0.0,0.0,0.0,0.0,0.0,0.0,0.0,0.0,0.0,0.0,0.0,0.0,0.0,0.0,0.0,0.0,0.0,0.0,0.0,0.0,0.0,0.0,0.0,0.0,0.0,0.0,0.0,0.0,0.0,0.0,0.0,0.0,0.0,0.0,0.0,0.0,0.0,0.0,0.0,0.0,0.0,0.0,0.0,0.0,0.0,0.0,0.0,0.0,0.0,0.0,0.0,0.0,0.0,0.0,0.0,0.0,0.0,0.0,0.0,0.0,0.0,0.0,0.0,0.0,0.0,0.0,0.0,0.0,0.0,0.0,0.0,0.0,0.0,0.0,0.0,-0.7145,-0.9299,-0.9953,-1.0095,-0.9718,-0.9408,-0.844,-0.6618,0.0,0.0,0.0,0.0,0.0,0.0,0.0,0.0,0.0,0.0,0.0,0.0,0.0,0.0,0.0,0.0,0.0,0.0,0.0,0.0,0.0,0.0,0.0,0.0,0.0,0.0,0.0,0.0,0.0,0.0,0.0,0.0,0.0,0.0,0.0,0.0,0.0,0.0,0.0,0.0,0.0,0.0,0.0,0.0,0.0,0.0,0.0,0.0,0.0,0.0,0.0,0.0,0.0,0.0,0.0,0.0,0.0,0.0,0.0,0.0,0.0,0.0,0.0,0.0,0.0,0.0,0.0,0.0,0.0,0.0,0.0,0.0,0.0,0.0,0.0,0.0,0.0,0.0,0.0,0.0,0.0,0.0,0.0,0.0,0.0,0.0,0.0,0.0,0.0,0.0,0.0,0.0,0.0,0.0,0.0,0.0,0.0,0.0,0.0,0.0,0.0,0.0,0.0,-0.704,-0.8146,-1.0033,-1.0367,-1.0411,-1.0198,-0.984,-0.8904,-0.7222,-0.624,0.0,0.0,0.0,0.0,0.0,0.0,0.0,0.0,0.0,0.0,0.0,0.0,0.0,0.0,0.0,0.0,0.0,0.0,0.0,0.0,0.0,0.0,0.0,0.0,0.0,0.0,0.0,0.0,0.0,0.0,0.0,0.0,0.0,0.0,0.0,0.0,0.0,0.0,0.0,0.0,0.0,0.0,0.0,0.0,0.0,0.0,0.0,0.0,0.0,0.0,0.0,0.0,0.0,0.0,0.0,0.0,0.0,0.0,0.0,0.0,0.0,0.0,0.0,0.0,0.0,0.0,0.0,0.0,0.0,0.0,0.0,0.0,0.0,0.0,0.0,0.0,0.0,0.0,0.0,0.0,0.0,0.0,0.0,0.0,0.0,0.0,0.0,0.0,0.0,0.0,0.0,0.0,0.0,0.0,0.0,0.0,0.0,0.0,0.0,0.0,0.0,0.0,-0.8322,-0.9133,-1.0386,-1.0522,-1.0522,-1.0522,-0.9992,-0.9096,-0.7686,-0.6656,0.0,0.0,0.0,0.0,0.0,0.0,0.0,0.0,0.0,0.0,0.0,0.0,0.0,0.0,0.0,0.0,0.0,0.0,0.0,0.0,0.0,0.0,0.0,0.0,0.0,0.0,0.0,0.0,0.0,0.0,0.0,0.0,0.0,0.0,0.0,0.0,0.0,0.0,0.0,0.0,0.0,0.0,0.0,0.0,0.0,0.0,0.0,0.0,0.0,0.0,0.0,0.0,0.0,0.0,0.0,0.0,0.0,0.0,0.0,0.0,0.0,0.0,0.0,0.0,0.0,0.0,0.0,0.0,0.0,0.0,0.0,0.0,0.0,0.0,0.0,0.0,0.0,0.0,0.0,0.0,0.0,0.0,0.0,0.0,0.0,0.0,0.0,0.0,0.0,0.0,0.0,0.0,0.0,0.0,0.0,0.0,0.0,0.0,0.0,0.0,0.0,0.0,-0.8482,-0.962,-1.0442,-1.0522,-1.0522,-1.0522,-0.9859,-0.8927,-0.7657,-0.6498,0.0,0.0,0.0,0.0,0.0,0.0,0.0,0.0,0.0,0.0,0.0,0.0,0.0,0.0,0.0,0.0,0.0,0.0,0.0,0.0,0.0,0.0,0.0,0.0,0.0,0.0,0.0,0.0,0.0,0.0,0.0,0.0,0.0,0.0,0.0,0.0,0.0,0.0,0.0,0.0,0.0,0.0,0.0,0.0,0.0,0.0,0.0,0.0,0.0,0.0,0.0,0.0,0.0,0.0,0.0,0.0,0.0,0.0,0.0,0.0,0.0,0.0,0.0,0.0,0.0,0.0,0.0,0.0,0.0,0.0,0.0,0.0,0.0,0.0,0.0,0.0,0.0,0.0,0.0,0.0,0.0,0.0,0.0,0.0,0.0,0.0,0.0,0.0,0.0,0.0,0.0,0.0,0.0,0.0,0.0,0.0,0.0,0.0,0.0,0.0,0.0,0.0,-0.8191,-0.9371,0.0,-1.0522,-1.0522,-1.0522,-1.001,-0.9205,-0.8055,0.0,0.0,0.0,0.0,0.0,0.0,0.0,0.0,0.0,0.0,0.0,0.0,0.0,0.0,0.0,0.0,0.0,0.0,0.0,0.0,0.0,0.0,0.0,0.0,0.0,0.0,0.0,0.0,0.0,0.0,0.0,0.0,0.0,0.0,0.0,0.0,0.0,0.0,0.0,0.0,0.0,0.0,0.0,0.0,0.0,0.0,0.0,0.0,0.0,0.0,0.0,0.0,0.0,0.0,0.0,0.0,0.0,0.0,0.0,0.0,0.0,0.0,0.0,0.0,0.0,0.0,0.0,0.0,0.0,0.0,0.0,0.0,0.0,0.0,0.0,0.0,0.0,0.0,0.0,0.0,0.0,0.0,0.0,0.0,0.0,0.0,0.0,0.0,0.0,0.0,0.0,0.0,0.0,0.0,0.0,0.0,0.0,0.0,0.0,0.0,0.0,0.0,-0.7309,-0.8422,-0.9545,0.0,-1.0667,-1.0624,-1.0624,-1.0116,-0.9281,-0.81,0.0,0.0,0.0,0.0,0.0,0.0,0.0,0.0,0.0,0.0,0.0,0.0,0.0,0.0,0.0,0.0,0.0,0.0,0.0,0.0,0.0,0.0,0.0,0.0,0.0,0.0,0.0,0.0,0.0,0.0,0.0,0.0,0.0,0.0,0.0,0.0,0.0,0.0,0.0,0.0,0.0,0.0,0.0,0.0,0.0,0.0,0.0,0.0,0.0,0.0,0.0,0.0,0.0,0.0,0.0,0.0,0.0,0.0,0.0,0.0,0.0,0.0,0.0,0.0,0.0,0.0,0.0,0.0,0.0,0.0,0.0,0.0,0.0,0.0,0.0,0.0,0.0,0.0,0.0,0.0,0.0,0.0,0.0,0.0,0.0,0.0,0.0,0.0,0.0,0.0,0.0,0.0,0.0,0.0,0.0,0.0,0.0,0.0,0.0,0.0,0.0,0.0,-0.8065,-0.9308,-1.0428,-1.119,-1.1074,-1.0922,-1.0922,-1.0031,-0.8948,0.0,0.0,0.0,0.0,0.0,0.0,0.0,0.0,0.0,0.0,0.0,0.0,0.0,0.0,0.0,0.0,0.0,0.0,0.0,0.0,0.0,0.0,0.0,0.0,0.0,0.0,0.0,0.0,0.0,0.0,0.0,0.0,0.0,0.0,0.0,0.0,0.0,0.0,0.0,0.0,0.0,0.0,0.0,0.0,0.0,0.0,0.0,0.0,0.0,0.0,0.0,0.0,0.0,0.0,0.0,0.0,0.0,0.0,0.0,0.0,0.0,0.0,0.0,0.0,0.0,0.0,0.0,0.0,0.0,0.0,0.0,0.0,0.0,0.0,0.0,0.0,0.0,0.0,0.0,0.0,0.0,0.0,0.0,0.0,0.0,0.0,0.0,0.0,0.0,0.0,0.0,0.0,0.0,0.0,0.0,0.0,0.0,0.0,0.0,0.0,0.0,0.0,0.0,-0.819,-0.9597,-1.064,-1.0973,-1.0769,-1.0769,-1.1175,-1.0369,-0.9624,-0.9068,0.0,0.0,0.0,0.0,0.0,0.0,0.0,0.0,0.0,0.0,0.0,0.0,0.0,0.0,0.0,0.0,0.0,0.0,0.0,0.0,0.0,0.0,0.0,0.0,0.0,0.0,0.0,0.0,0.0,0.0,0.0,0.0,0.0,0.0,0.0,0.0,0.0,0.0,0.0,0.0,0.0,0.0,0.0,0.0,0.0,0.0,0.0,0.0,0.0,0.0,0.0,0.0,0.0,0.0,0.0,0.0,0.0,0.0,0.0,0.0,0.0,0.0,0.0,0.0,0.0,0.0,0.0,0.0,0.0,0.0,0.0,0.0,0.0,0.0,0.0,0.0,0.0,0.0,0.0,0.0,0.0,0.0,0.0,0.0,0.0,0.0,0.0,0.0,0.0,0.0,0.0,0.0,0.0,0.0,0.0,0.0,0.0,0.0,0.0,0.0,0.0,0.0,-0.8553,-0.996,-1.0962,-1.1183,-1.0871,-1.0871,-1.1418,-1.0893,-1.0206,-0.9415,0.0,0.0,0.0,0.0,0.0,0.0,0.0,0.0,0.0,0.0,0.0,0.0,0.0,0.0,0.0,0.0,0.0,0.0,0.0,0.0,0.0,0.0,0.0,0.0,0.0,0.0,0.0,0.0,0.0,0.0,0.0,0.0,0.0,0.0,0.0,0.0,0.0,0.0,0.0,0.0,0.0,0.0,0.0,0.0,0.0,0.0,0.0,0.0,0.0,0.0,0.0,0.0,0.0,0.0,0.0,0.0,0.0,0.0,0.0,0.0,0.0,0.0,0.0,0.0,0.0,0.0,0.0,0.0,0.0,0.0,0.0,0.0,0.0,0.0,0.0,0.0,0.0,0.0,0.0,0.0,0.0,0.0,0.0,0.0,0.0,0.0,0.0,0.0,0.0,0.0,0.0,0.0,0.0,0.0,0.0,0.0,0.0,0.0,0.0,0.0,0.0,0.0,-0.9077,-1.0356,-1.1297,-1.1642,-1.1226,-1.1175,-1.1719,-1.1604,-1.0846,-0.9422,0.0,0.0,0.0,0.0,0.0,0.0,0.0,0.0,0.0,0.0,0.0,0.0,0.0,0.0,0.0,0.0,0.0,0.0,0.0,0.0,0.0,0.0,0.0,0.0,0.0,0.0,0.0,0.0,0.0,0.0,0.0,0.0,0.0,0.0,0.0,0.0,0.0,0.0,0.0,0.0,0.0,0.0,0.0,0.0,0.0,0.0,0.0,0.0,0.0,0.0,0.0,0.0,0.0,0.0,0.0,0.0,0.0,0.0,0.0,0.0,-0.7529,0.0,0.0,0.0,0.0,0.0,0.0,0.0,0.0,0.0,0.0,0.0,0.0,0.0,0.0,0.0,0.0,0.0,0.0,0.0,0.0,0.0,0.0,0.0,0.0,0.0,0.0,0.0,0.0,0.0,0.0,0.0,0.0,0.0,0.0,0.0,0.0,0.0,0.0,0.0,0.0,0.0,-0.9072,-1.0595,-1.1589,-1.1719,-1.1427,-1.156,-1.2335,-1.2101,-1.1817,-1.1765,-1.0569,0.0,0.0,0.0,0.0,0.0,0.0,0.0,0.0,0.0,0.0,0.0,0.0,0.0,0.0,0.0,0.0,0.0,0.0,0.0,0.0,0.0,0.0,0.0,0.0,0.0,0.0,0.0,0.0,0.0,0.0,0.0,0.0,0.0,0.0,0.0,0.0,0.0,0.0,0.0,0.0,0.0,0.0,0.0,0.0,0.0,0.0,0.0,0.0,0.0,0.0,0.0,0.0,0.0,0.0,0.0,0.0,0.0,0.0,0.0,0.0,-0.8666,0.0,0.0,0.0,0.0,0.0,0.0,0.0,0.0,0.0,0.0,0.0,0.0,0.0,0.0,0.0,0.0,0.0,0.0,0.0,0.0,0.0,0.0,0.0,0.0,0.0,0.0,0.0,0.0,0.0,0.0,0.0,0.0,0.0,0.0,0.0,0.0,0.0,0.0,0.0,0.0,-0.9105,-1.0679,-1.1728,-1.1728,-1.1477,-1.1569,-1.2295,-1.2156,-1.2129,-1.2286,-1.1281,0.0,0.0,0.0,0.0,0.0,0.0,0.0,0.0,0.0,0.0,0.0,0.0,0.0,0.0,0.0,0.0,0.0,0.0,0.0,0.0,0.0,0.0,0.0,0.0,0.0,0.0,0.0,0.0,0.0,0.0,0.0,0.0,0.0,0.0,0.0,0.0,0.0,0.0,0.0,0.0,0.0,0.0,0.0,0.0,0.0,0.0,0.0,0.0,0.0,0.0,0.0,0.0,0.0,-1.5792,-1.5095,-1.3792,-1.2935,-1.2442,-1.2229,-1.2073,-1.1601,-1.0887,-1.017,0.0,0.0,0.0,0.0,0.0,0.0,0.0,0.0,0.0,0.0,0.0,0.0,0.0,0.0,0.0,0.0,0.0,0.0,0.0,0.0,0.0,0.0,0.0,0.0,-1.2225,-1.2435,0.0,0.0,0.0,0.0,0.0,0.0,0.0,0.0,0.0,0.0,0.0,0.0,-0.9099,-1.0505,-1.146,-1.146,-1.1267,-1.136,-1.1859,-1.1968,-1.2072,-1.2149,-1.1711,-1.1366,0.0,0.0,0.0,0.0,0.0,0.0,0.0,0.0,0.0,0.0,0.0,0.0,0.0,0.0,0.0,0.0,0.0,0.0,0.0,0.0,0.0,0.0,0.0,0.0,0.0,0.0,0.0,0.0,0.0,0.0,0.0,0.0,-0.7727,-0.8555,0.0,0.0,0.0,0.0,0.0,0.0,0.0,0.0,0.0,0.0,0.0,0.0,0.0,-1.1749,-1.4305,-1.4779,-1.5241,-1.5792,-1.5792,-1.5696,-1.5516,-1.5593,-1.5501,-1.5231,-1.5429,0.0,-1.2743,-1.2612,0.0,0.0,0.0,0.0,0.0,0.0,0.0,0.0,0.0,0.0,0.0,0.0,0.0,0.0,0.0,0.0,0.0,0.0,0.0,0.0,0.0,0.0,-1.2533,-1.2955,-1.3581,-1.39,0.0,-1.1417,-0.9793,-0.89,-0.8207,0.0,0.0,0.0,0.0,0.0,0.0,0.0,-0.8929,-0.9921,-1.0568,-1.0568,-1.0525,-1.0677,-1.1124,-1.1566,-1.1955,-1.2262,-1.2477,-1.268,-1.2851,-1.1459,0.0,0.0,0.0,0.0,0.0,0.0,0.0,0.0,0.0,0.0,0.0,0.0,0.0,0.0,0.0,0.0,0.0,0.0,0.0,0.0,0.0,0.0,0.0,0.0,0.0,0.0,0.0,0.0,0.0,-0.7164,-0.8406,-0.8536,-0.8911,-0.8862,0.0,0.0,0.0,0.0,0.0,0.0,0.0,0.0,0.0,-1.0671,-1.2244,-1.3944,-1.5768,-1.6044,-1.6175,-1.6188,-1.7451,-1.7675,-1.6888,-1.6292,-1.6057,-1.6293,-1.7641,-1.77,-1.6774,-1.5377,-1.4325,-1.3253,0.0,0.0,0.0,0.0,-0.7579,-0.912,-0.8885,-1.0708,-1.32,-1.32,0.0,0.0,0.0,0.0,0.0,0.0,0.0,0.0,0.0,0.0,-1.2439,-1.3457,-1.4124,-1.4495,-1.4366,-1.3542,-1.2284,0.0,-0.9776,-0.9129,-0.7696,0.0,0.0,0.0,0.0,-0.8543,-0.9066,-0.9864,-1.0415,-1.0415,-1.0415,-1.0466,-1.0669,-1.0864,-1.1189,-1.1544,-1.1943,-1.2408,-1.294,-1.2484,-1.1797,0.0,0.0,0.0,0.0,0.0,0.0,0.0,0.0,0.0,0.0,0.0,0.0,0.0,0.0,0.0,0.0,0.0,0.0,0.0,0.0,0.0,0.0,0.0,0.0,0.0,0.0,0.0,0.0,-0.831,-0.9279,-0.9074,-0.9983,-1.0309,0.0,0.0,0.0,0.0,0.0,0.0,-1.2401,-1.3414,-1.3658,-1.3038,-1.4317,-1.5605,-1.6803,-1.7182,-1.7363,-1.7375,-1.902,-1.9283,-1.8289,-1.7274,-1.6999,-1.7451,-1.8946,-1.9604,-1.948,-1.7817,-1.6814,-1.6034,-1.3455,-1.1214,-0.9322,-0.8843,-1.0685,-1.3382,-1.3017,-1.2968,-1.3065,-1.3065,-1.3248,-1.3142,-1.1569,0.0,0.0,0.0,0.0,-0.9206,-1.0232,-1.1166,-1.2165,-1.3386,-1.4107,-1.4546,-1.4633,-1.451,-1.3767,0.0,-1.1301,-1.0649,-0.8596,0.0,0.0,0.0,0.0,-0.8856,-0.9126,-0.9613,-1.0012,-1.0012,-1.0012,-1.0012,-1.0012,-1.0115,-1.0312,-1.0618,-1.1314,-1.208,-1.2843,-1.317,-1.2869,-1.1916,0.0,0.0,0.0,0.0,0.0,0.0,0.0,0.0,0.0,0.0,0.0,0.0,0.0,0.0,0.0,0.0,0.0,0.0,0.0,0.0,0.0,0.0,0.0,0.0,0.0,0.0,0.0,0.0,0.0,-1.1289,-1.2719,0.0,0.0,0.0,0.0,-1.1464,-1.2196,-1.3357,-1.4938,-1.5305,-1.5724,-1.6261,-1.6164,-1.726,-1.9571,-1.9635,-1.9635,-1.9648,-1.9748,-1.9773,-1.9723,-1.9609,-1.9635,-1.9597,-1.919,-1.904,-1.9081,-1.948,-1.8116,-1.5824,-1.5644,-1.5481,-1.5151,-1.3294,-1.2734,-1.2929,-1.2929,-1.32,-1.3573,-1.3573,-1.3296,-1.2929,-1.2832,-1.35,0.0,0.0,-1.1986,-1.1598,-1.1567,-1.1919,-1.2505,-1.294,-1.3589,-1.4077,-1.3914,-1.3478,-1.3014,0.0,-1.261,-1.2002,-1.0035,0.0,-0.9492,-0.8819,-0.8658,-0.8703,-0.8999,-0.8949,-0.8857,-0.8857,-0.8857,-0.8857,-0.8857,-0.9361,-0.9666,-0.9666,-1.0998,-1.2201,-1.3067,-1.347,-1.3625,-1.3599,-1.2044,0.0,0.0,0.0,0.0,0.0,0.0,0.0,0.0,0.0,0.0,0.0,0.0,0.0,0.0,0.0,0.0,0.0,0.0,0.0,0.0,0.0,0.0,0.0,0.0,0.0,0.0,0.0,0.0,-1.252,-1.343,0.0,-1.3295,-1.3452,-1.3879,-1.4597,-1.4988,-1.577,-1.707,-1.7214,-1.7371,-1.7601,-1.7522,-1.8221,-1.9786,-1.9798,-1.9798,-1.9798,-1.9798,-1.9798,-1.9798,-1.9798,-1.9592,-1.9291,-1.9093,-1.8987,-1.8987,-1.9198,-1.8697,-1.7869,-1.7869,-1.7869,-1.7707,-1.6395,-1.5584,-1.5131,-1.5131,-1.4948,-1.4775,-1.5002,-1.4839,-1.4566,-1.475,-1.4949,-1.4951,-1.4029,-1.3208,-1.2611,-1.2906,-1.3083,-1.3409,-1.4078,-1.441,-1.4697,-1.4984,-1.4553,-1.3862,-1.3061,-1.2517,-1.1867,-1.0653,-1.0669,-1.0543,-0.9684,-0.9573,-0.9577,-0.9681,-0.9534,-0.918,-0.8599,-0.886,-0.8836,-0.8368,-0.889,-0.9256,-0.9361,-1.0167,-1.1057,-1.1975,-1.2665,-1.3047,-1.3064,-1.2416,-1.1041,0.0,0.0,0.0,0.0,0.0,0.0,0.0,0.0,0.0,0.0,0.0,0.0,0.0,0.0,0.0,0.0,0.0,0.0,0.0,0.0,0.0,0.0,0.0,0.0,0.0,0.0,-1.3117,-1.3447,-1.4337,-1.4865,-1.4807,-1.5035,-1.5721,-1.6935,-1.7042,-1.7488,-1.843,-1.848,-1.8555,-1.8731,-1.8744,-1.9083,-1.9798,-1.9798,-1.9798,-1.9798,-1.9798,-1.9695,-1.9552,-1.9552,-1.9356,-1.8987,-1.8987,-1.8987,-1.8999,-1.9052,-1.9052,-1.8987,-1.8987,-1.8987,-1.8934,-1.8309,-1.7213,-1.6077,-1.6077,-1.5894,-1.5826,-1.6228,-1.6275,-1.6208,-1.6457,-1.6446,-1.6244,-1.5833,-1.4984,-1.4248,-1.44,-1.4405,-1.4473,-1.4845,-1.5099,-1.5284,-1.542,-1.4942,-1.4141,-1.3118,-1.2604,-1.1954,-1.0926,-1.1106,-1.112,-1.0246,-1.0172,-1.007,-0.9775,-0.9608,-0.9189,-0.8372,-0.8727,-0.8815,-0.834,-0.8785,-0.9113,-0.9211,-0.9873,-1.0626,-1.1366,-1.2108,-1.2582,-1.2746,-1.2193,-1.1168,-0.9627,0.0,0.0,0.0,0.0,0.0,0.0,0.0,0.0,0.0,0.0,0.0,0.0,0.0,0.0,0.0,0.0,0.0,0.0,0.0,0.0,0.0,0.0,0.0,-1.0869,-1.2829,-1.4289,-1.4137,-1.5549,-1.6504,-1.6442,-1.7042,-1.7639,-1.8191,-1.8229,-1.8468,-1.902,-1.8995,-1.9284,-1.9786,-1.9798,-1.9798,-1.9798,-1.9798,-1.9798,-1.9798,-1.9798,-1.95,-1.8987,-1.8987,-1.8987,-1.8987,-1.8987,-1.8987,-1.8999,-1.921,-1.9158,-1.8987,-1.8987,-1.8987,-1.8987,-1.8987,-1.7479,-1.541,-1.5468,-1.5894,-1.6534,-1.7056,-1.7435,-1.7722,-1.7722,-1.7875,-1.8093,-1.8093,-1.7446,-1.6645,-1.6032,-1.5861,-1.5688,-1.5138,-1.5468,-1.5778,-1.5089,-1.4501,-1.3786,-1.3009,-1.2855,-1.239,-1.0897,-1.1058,-1.1172,-1.0437,-1.0387,0.0,-0.9272,-0.9214,-0.8928,-0.8162,-0.8453,-0.8683,-0.8664,-0.9018,-0.9218,-0.9211,-1.019,-1.0939,-1.1366,-1.1893,-1.2355,-1.2787,-1.144,-1.071,-1.0697,0.0,0.0,0.0,0.0,0.0,0.0,0.0,0.0,0.0,0.0,0.0,0.0,0.0,0.0,0.0,0.0,0.0,0.0,0.0,0.0,0.0,-1.1898,-1.3093,-1.3273,-1.4472,-1.5604,-1.6368,-1.6873,-1.73,-1.7656,-1.789,-1.8204,-1.8756,-1.8807,-1.9032,-1.956,-1.9585,-1.966,-1.9798,-1.9798,-1.9798,-1.9798,-1.9798,-1.9592,-1.9198,-1.9198,-1.9146,-1.8987,-1.8987,-1.8987,-1.8987,-1.8987,-1.8987,-1.8987,-1.9052,-1.9052,-1.8999,-1.9117,-1.9117,-1.8934,-1.8483,-1.709,-1.5526,-1.6415,-1.6821,-1.7,-1.7268,-1.7545,-1.7765,-1.7722,-1.76,-1.7479,-1.771,-1.7863,-1.7852,-1.7457,-1.7335,-1.728,-1.7235,-1.7034,-1.6708,-1.6358,-1.5429,-1.456,-1.4103,-1.3288,-1.2345,-1.1487,-1.1472,-1.1472,-1.1289,-1.1106,0.0,-1.004,-0.9854,-0.9284,-0.7936,-0.8287,-0.8516,-0.8241,-0.865,-0.9126,-0.948,-0.9769,-1.0328,-1.1242,-1.1355,-1.1746,-1.259,-1.164,-1.0981,0.0,0.0,0.0,0.0,0.0,0.0,0.0,0.0,0.0,0.0,0.0,0.0,0.0,0.0,0.0,0.0,0.0,0.0,0.0,0.0,0.0,0.0,-1.346,-1.4821,-1.5482,-1.6056,-1.6647,-1.73,-1.7589,-1.794,-1.8493,-1.8555,-1.8781,-1.9309,-1.9359,-1.9484,-1.9786,-1.9798,-1.9798,-1.9798,-1.9798,-1.9798,-1.9798,-1.9798,-1.9552,-1.8987,-1.9251,-1.9356,-1.9344,-1.9093,-1.8987,-1.8987,-1.8987,-1.8987,-1.8987,-1.8987,-1.8987,0.0,0.0,0.0,0.0,0.0,-1.7809,-1.6978,-1.7313,-1.7644,-1.7929,-1.7765,-1.7875,-1.8159,-1.8213,-1.8159,-1.8147,-1.8441,-1.8721,-1.8827,-1.8483,-1.8363,-1.8309,-1.8147,-1.782,-1.7479,-1.7045,-1.6167,-1.5361,-1.4874,-1.3906,0.0,-1.2581,-1.1981,-1.156,-1.1498,-1.1435,-1.117,-1.0401,-1.0275,-0.9775,-0.8548,-0.8951,-0.9126,-0.8924,-0.9197,0.0,0.0,0.0,-1.0671,-1.1558,-1.1558,0.0,0.0,0.0,0.0,0.0,0.0,0.0,0.0,-1.0567,-1.0264,0.0,0.0,0.0,0.0,0.0,0.0,0.0,0.0,0.0,0.0,0.0,0.0,0.0,0.0,0.0,0.0,-1.5107,-1.6414,-1.7355,-1.7526,-1.7564,-1.7564,-1.8003,-1.8505,-1.907,-1.912,-1.9309,-1.9761,-1.9798,-1.985,-1.9901,0.0,0.0,0.0,0.0,-1.9901,-1.9798,-1.9798,-1.9552,-1.9093,-1.9552,-1.9747,-1.9695,-1.9198,-1.8999,-1.904,-1.904,-1.8999,-1.8999,-1.8999,-1.8987,-1.8987,-1.8987,-1.8987,-1.8987,-1.8987,-1.8987,-1.8881,-1.8201,0.0,0.0,-1.8375,-1.8476,-1.8804,-1.9083,-1.9206,-1.9393,-1.9624,-1.9651,-1.9537,-1.9198,-1.9093,-1.8975,-1.8417,-1.8255,-1.8038,-1.7479,-1.6901,-1.627,-1.5565,-1.4737,-1.4136,-1.3948,-1.2757,-1.174,-1.1553,-1.1615,-1.1358,-1.0521,-1.0478,-1.0231,-0.9582,0.0,0.0,-1.012,-1.0143,-1.0247,-1.0272,-1.0902,-1.1563,-1.2129,-1.2118,-1.2165,-1.226,-1.226,-1.2521,-1.3027,-1.3027,-1.3027,-1.2978,-1.0923,-1.0531,0.0,0.0,0.0,0.0,0.0,0.0,0.0,0.0,0.0,0.0,0.0,0.0,0.0,0.0,0.0,-1.5265,-1.6061,-1.6861,-1.7919,-1.843,-1.8706,-1.8706,-1.8807,-1.9083,-1.9597,-1.966,-1.9698,-1.9798,-1.9798,-2.0003,-2.0409,-2.0597,-2.0696,-2.0696,-2.093,-2.0683,-1.9798,-1.9798,-1.9759,-1.9643,0.0,0.0,-1.9146,-1.904,-1.9105,-1.9316,-1.9223,-1.917,-1.917,-1.917,-1.9105,-1.8987,-1.8987,-1.8987,-1.8987,-1.8987,-1.8987,-1.8987,-1.8827,-1.8881,-1.8987,-1.8999,-1.9329,-1.9776,-1.9897,-1.9711,0.0,-2.0135,-2.007,-1.9759,-1.9656,-1.9656,-1.9592,-1.9488,-1.9121,-1.8762,-1.8447,-1.795,-1.7468,-1.7034,-1.6042,-1.5226,-1.5129,-1.3965,-1.3147,-1.3078,-1.2642,-1.2081,-1.1392,-1.085,-1.0231,-0.9582,-0.9539,-0.9737,-1.0073,-1.0523,-1.098,-1.1304,-1.1606,-1.1991,-1.2536,-1.228,-1.2459,-1.3202,-1.3252,-1.3416,-1.3887,-1.3887,-1.3887,-1.3877,-1.3066,-1.2842,0.0,0.0,0.0,0.0,0.0,0.0,0.0,0.0,0.0,0.0,0.0,-1.2147,-1.3159,0.0,-1.5226,-1.6529,-1.7335,-1.798,-1.852,-1.9083,-1.9321,-1.9008,-1.9258,-1.9522,-1.9773,-1.9798,-1.9901,-2.0156,-2.0207,-2.0308,-2.061,-2.1104,-2.1251,-2.0894,-2.1718,-2.167,-2.0584,-2.0042,-1.9798,-1.9798,-1.9798,-1.9643,-1.942,-1.9878,-2.0037,-2.004,-2.0007,-1.997,-1.9982,-1.9927,-1.986,-1.978,-1.978,-1.9456,-1.8987,-1.8987,-1.8987,-1.8999,-1.9052,-1.9335,-1.9721,-1.9702,-2.014,-2.0717,-2.0915,-2.089,-2.0772,-2.1058,-2.0715,-2.0298,-2.0145,-1.996,-1.9798,-1.9798,-1.9604,-1.9279,-1.8845,-1.8525,-1.8201,-1.7655,-1.6968,-1.6507,-1.6404,-1.5823,-1.4953,-1.3683,-1.3191,-1.2757,-1.2074,-1.171,-1.1281,-1.0598,-1.0836,-1.1085,-1.1304,-1.1727,-1.2126,-1.2406,-1.2264,-1.2377,-1.2912,-1.2782,-1.2702,-1.2832,-1.3178,-1.3449,-1.3648,-1.3648,-1.3809,-1.4077,-1.4141,-1.4023,0.0,0.0,0.0,0.0,0.0,0.0,0.0,0.0,-1.1534,-1.2472,-1.3141,-1.393,-1.4928,-1.5824,-1.6712,-1.7642,-1.8474,-1.907,-1.9171,-1.9535,-1.9648,-1.9233,-1.9547,-1.9798,-1.9798,-1.9798,-2.0003,-2.056,-2.051,-2.056,-2.0759,-2.1299,-2.1444,-2.0993,-2.2127,-2.24,-2.171,-2.0718,-2.0267,-2.0345,-2.0185,-2.0125,-2.0162,-2.089,-2.1119,-2.0903,-2.0844,-2.0827,-2.077,-2.0668,-2.0598,-2.0574,-2.0632,-2.0113,-1.9353,-1.9353,-1.9353,-1.9365,-1.9539,-1.997,-2.0533,-2.0428,-2.0872,-2.1492,-2.1791,-2.2056,-2.2176,-2.1878,-2.1462,-2.1049,-2.0853,-2.0429,-2.0168,-2.0258,-2.022,-1.994,-1.9279,-1.9121,-1.891,-1.8159,-1.7776,-1.76,-1.7611,-1.7424,-1.6564,-1.4551,-1.4025,-1.3666,-1.3105,-1.287,-1.252,-1.2042,-1.2397,-1.2757,-1.2879,-1.3152,-1.3438,-1.3737,-1.3148,-1.2946,-1.3332,-1.3195,-1.2857,-1.2363,-1.2992,-1.3369,-1.3451,-1.3562,-1.3893,-1.433,-1.4746,-1.4678,-0.9694,-1.0267,-1.0987,-1.1722,-1.164,-1.2001,0.0,0.0,-1.394,-1.6269,-1.6443,-1.6505,-1.7557,-1.7872,-1.8169,-1.8734,-1.8945,-1.9196,-1.9648,-1.9761,-1.9773,-1.9723,-1.9761,-1.9798,-1.9798,-1.9798,-2.0003,-2.056,-2.0156,-2.0295,-2.1272,-2.0944,-2.0944,-2.1321,-2.1934,-2.2451,-2.2807,-2.211,-2.1953,-2.2369,-2.1668,-2.1305,-2.1317,-2.1612,-2.1671,-2.1539,-2.1052,-2.0827,-2.077,-2.0668,-2.061,-2.061,-2.0713,-2.0685,-2.0588,-2.0588,-2.0588,-2.0645,-2.0827,-2.0945,-2.1063,-2.1138,-2.1555,-2.2014,-2.2214,-2.2564,-2.2852,-2.2351,-2.2051,-2.1933,-2.2105,-2.1693,-2.1368,-2.1904,-2.1601,-2.1028,-2.0359,-2.022,-1.9965,-1.921,-1.8655,-1.8309,-1.8224,-1.7809,-1.7357,-1.6845,-1.5881,-1.5129,-1.507,-1.4085,-1.3433,-1.3476,-1.3433,-1.3623,-1.4231,-1.4305,-1.4622,-1.5351,-1.4516,-1.3979,-1.3988,-1.3166,-1.275,-1.2828,-1.3393,-1.3917,-1.4332,-1.4858,-1.5206,-1.5273,-1.5322,-1.5117,-1.2745,-1.2853,-1.2804,0.0,-1.3917,-1.4303,-1.5605,-1.5581,-1.577,-1.753,-1.77,-1.7768,-1.8532,-1.8681,-1.8857,0.0,-1.9472,-1.9547,-1.9773,-1.9798,-1.9798,-1.9798,-2.0055,-2.0156,-1.985,-2.0333,-2.0696,-2.061,-2.0696,-2.0782,-2.0944,-2.1042,-2.1053,-2.0991,-2.1789,-2.2161,-2.214,-2.2497,-2.2502,-2.2275,-2.2414,-2.2163,-2.1649,-2.2176,-2.2258,-2.2066,-2.1812,-2.1704,-2.1644,-2.1644,-2.1644,-2.1632,-2.1823,-2.1883,-2.1809,-2.1174,-2.0941,-2.1011,-2.1181,-2.1436,-2.1753,-2.2229,-2.2783,-2.3373,-2.3751,-2.4024,-2.4097,-2.3791,-2.3493,-2.325,-2.3243,-2.2884,-2.2454,-2.2332,-2.2111,-2.174,-2.101,-2.0845,-2.0746,-2.0308,-2.008,-1.9863,-1.9463,-1.923,-1.8967,-1.8525,-1.7457,-1.6394,-1.5603,-1.5129,-1.4718,-1.4332,-1.4222,-1.4469,-1.5137,-1.5196,-1.5371,-1.5798,-1.5071,-1.46,-1.4552,-1.4144,-1.3789,-1.3558,-1.4136,-1.451,-1.4746,-1.4982,-1.5294,-1.5662,-1.5662,-1.5573,-1.4474,0.0,0.0,-1.5439,-1.5894,-1.6296,-1.6748,-1.6885,-1.7262,-1.8229,-1.843,-1.8593,-1.9145,-1.9246,-1.9359,-1.9748,-1.9798,-1.9798,-1.9798,-1.9798,-1.9798,-1.9798,-2.0396,-2.0597,-2.0055,-2.0881,-2.1286,-2.1055,-2.114,-2.1091,-2.0845,-2.093,-2.0858,-2.0706,-2.1564,-2.1916,-2.1707,-2.2634,-2.284,-2.2289,-2.2815,-2.273,-2.2055,-2.2455,-2.258,-2.242,-2.242,-2.242,-2.2469,-2.2482,-2.2604,-2.2763,-2.2957,-2.3017,-2.293,-2.2349,-2.1958,-2.1626,-2.1945,-2.2324,-2.2769,-2.3476,-2.3993,-2.4452,-2.4851,-2.5007,-2.4951,-2.4811,-2.4569,-2.4368,-2.4436,-2.4094,-2.3675,-2.3322,-2.3136,-2.276,-2.1847,-2.1662,-2.1524,-2.1068,-2.1042,-2.093,-2.0534,-2.0534,-2.0333,-1.9772,-1.8939,-1.7938,-1.6553,-1.6384,-1.6146,-1.5555,-1.5391,-1.5526,-1.5951,-1.5846,-1.5798,-1.5961,-1.5526,-1.5157,-1.4972,-1.4972,-1.4678,-1.4025,-1.461,-1.4904,-1.4904,-1.5099,-1.541,-1.5914,-1.5914,-1.5914,0.0,0.0,-1.5781,-1.6783,-1.7204,-1.7599,-1.8682,-1.8503,-1.8317,-1.8833,-1.8958,-1.9158,-1.9685,-1.9773,-1.9786,-1.9798,-1.9798,-1.9798,-1.9798,-1.9798,-1.9798,-1.9798,-2.0733,-2.1175,-2.061,-2.1091,-2.1623,-2.2123,-2.1188,-2.0845,-2.1369,-2.0383,-2.0114,-2.0706,-2.1234,-2.1776,-2.2284,-2.2824,-2.31,-2.304,-2.3065,-2.3005,-2.2871,-2.2531,-2.242,-2.242,-2.242,-2.275,-2.3255,-2.2836,-2.3017,-2.3577,-2.3682,-2.3741,-2.3859,-2.4627,-2.3995,-2.298,-2.3728,-2.4034,-2.415,-2.4768,-2.4937,-2.4951,-2.5007,-2.5007,-2.5007,-2.5007,-2.4993,-2.5106,-2.5687,-2.5334,-2.5001,-2.5568,-2.5235,-2.4451,-2.3119,-2.2867,-2.2505,-2.1247,-2.1091,-2.1175,-2.1175,-2.1272,-2.1126,-2.0472,-2.0459,-1.9978,-1.8566,-1.8081,-1.7743,-1.7523,-1.7157,-1.6888,-1.6775,-1.6239,-1.5961,-1.6114,-1.6046,-1.5816,-1.5235,-1.5167,-1.4815,-1.4025,-1.461,-1.4904,-1.4904,-1.5536,-1.5856,-1.5914,-1.5914,-1.5914,0.0,0.0,-1.6896,-1.8057,-1.855,-1.8929,-1.9635,-1.9767,-1.982,-1.9911,-1.9712,-1.9468,-1.9192,-1.923,-1.9284,-1.9284,-1.9572,-1.9798,-1.9798,-2.0105,-2.0308,-2.0308,-2.1286,0.0,0.0,0.0,0.0,-2.1718,-2.1334,-2.1399,-2.1988,-2.1389,-2.1577,-2.2909,-2.3135,-2.3506,-2.4089,-2.4288,-2.4394,-2.4394,-2.4253,-2.4137,-2.4079,-2.3904,-2.3774,-2.3774,-2.3774,-2.3891,-2.4066,-2.4079,-2.4137,-2.4355,-2.454,-2.461,-2.461,-2.4894,-2.4667,-2.4337,-2.4624,-2.4681,-2.4794,-2.5425,-2.5605,-2.5646,-2.6096,-2.6204,-2.6204,-2.6204,-2.6204,-2.6272,-2.6447,-2.6342,-2.6121,-2.5843,-2.5633,-2.5249,-2.4416,-2.421,-2.3912,-2.3093,-2.2965,-2.2743,-2.1991,-2.1874,-2.1636,-2.066,-1.9888,-1.9279,-1.8869,-1.8363,-1.7972,-1.7797,-1.7699,-1.7589,-1.7534,-1.7,-1.6673,-1.6821,-1.6513,-1.6192,-1.6019,-1.6019,-1.5894,-1.5594,-1.5768,-1.5894,-1.5894,-1.6134,-1.6202,-1.6259,-1.6627,-1.6775,-1.6832,-1.7329,-1.7744,-1.9165,-1.9502,-1.9754,-2.0577,-2.0597,-2.0435,-2.0394,-1.986,-1.9295,-1.8884,-1.8849,-1.8927,-1.8933,-1.9533,-2.0014,-2.0029,-2.051,-2.0894,-2.0894,-2.167,-2.2303,0.0,0.0,0.0,-2.2351,-2.2144,-2.2333,-2.2917,-2.2463,-2.2803,-2.4042,-2.4123,-2.4409,-2.5007,-2.5007,-2.5007,-2.5007,-2.4811,-2.4684,-2.4684,-2.457,-2.4526,-2.4526,-2.457,-2.4697,-2.4867,-2.4811,-2.4937,-2.5161,-2.5245,-2.53,-2.537,-2.5577,-2.5632,-2.5632,-2.5425,-2.53,-2.5425,-2.6056,-2.6233,-2.6286,-2.6674,-2.6779,-2.6779,-2.6779,-2.6779,-2.6779,-2.6779,-2.6779,-2.6678,-2.6242,-2.6141,-2.5981,-2.5342,-2.5197,-2.4979,-2.4341,-2.4239,-2.4014,-2.325,-2.2805,-2.2387,-2.1893,-2.0797,-1.9895,-1.9368,-1.8963,-1.8673,-1.862,-1.8405,-1.8309,-1.8309,-1.771,-1.7435,-1.7534,-1.7179,-1.7032,-1.7032,-1.7032,-1.7032,-1.7032,-1.7032,-1.692,-1.6694,-1.6694,-1.6665,-1.6612,-1.7259,-1.7619,-1.7008,-1.7648,-1.849,-2.0059,-2.0167,-2.0266,-2.1485,-2.0948,-2.0234,-2.0332,-1.9462,-1.8715,-1.865,0.0,-1.8763,-1.877,-1.9721,-2.0448,-2.0445,-2.1042,-2.1417,0.0,0.0,0.0,0.0,0.0,0.0,-2.3974,0.0,-2.3513,-2.4154,-2.3695,-2.3658,-2.4205,-2.4232,-2.4491,-2.5063,-2.5063,-2.5063,-2.5063,-2.4924,-2.4797,-2.4797,-2.4697,-2.4641,-2.4641,-2.4741,-2.5148,-2.5618,-2.5245,-2.5425,-2.5948,-2.5948,-2.5948,-2.6002,-2.6621,-2.6779,-2.6727,-2.6111,-2.5948,-2.6056,-2.6621,-2.6779,-2.6779,-2.6779,-2.6779,-2.6779,-2.6779,-2.6779,-2.6779,-2.6779,-2.6779,-2.6779,-2.6779,-2.6779,-2.6605,-2.5981,-2.5836,-2.5647,-2.4959,-2.4878,-2.4878,-2.48,-2.3892,-2.3385,-2.4027,-2.3142,-2.1787,-2.0156,-1.9977,-1.9925,-1.99,-1.947,-1.9177,-1.9124,-1.8565,-1.8228,-1.8228,-1.815,-1.8127,-1.8127,-1.8104,-1.8093,-1.8093,-1.8116,-1.7854,-1.729,-1.7312,-1.7245,-1.7137,-1.7872,-1.8452,-1.8845,-1.9535,-2.0072,-2.0955,-2.1369,-2.1536,-2.1384,-2.1324,-2.0951,-1.9703,-1.8632,-1.7648,-1.6797,0.0,0.0,-1.8183,-1.9867,0.0,-2.1161,-2.1636,0.0,-2.1983,0.0,-2.3531,-2.3688,-2.4269,0.0,0.0,-2.4447,-2.4309,-2.5301,-2.4855,-2.5047,-2.6069,-2.6083,-2.6169,-2.6326,-2.6326,-2.6326,-2.6326,-2.6258,-2.6258,-2.6258,-2.6258,-2.6204,-2.6204,-2.6258,-2.6379,-2.65,-2.6379,-2.6433,-2.6568,-2.6568,-2.6568,-2.6621,-2.6727,-2.6779,-2.6779,-2.6621,-2.6568,-2.6621,-2.6727,-2.6779,-2.6779,-2.6779,-2.6779,-2.6779,-2.6779,-2.6779,-2.6779,-2.6779,-2.6779,-2.6779,-2.6779,-2.6779,-2.6736,-2.6562,-2.6533,-2.6344,-2.5676,-2.5168,-2.4863,-2.4878,-2.4572,-2.429,-2.4148,-2.382,-2.3169,-2.1851,-2.2083,-2.2034,-2.1082,-2.1313,-2.1355,-2.0889,-2.031,-1.9948,-1.9948,-1.92,-1.8711,-1.8711,-1.8299,-1.8093,-1.8093,-1.8515,-1.8599,-1.8487,-1.8931,-1.9124,-1.9084,-1.9692,-2.005,-1.992,-2.053,-2.0955,-2.1342,-2.1519,-2.1499,-2.0915,-2.0485,-1.982,-1.8679,-1.7487,0.0,-1.579,-1.6718,0.0,0.0,0.0,0.0,-2.1602,-2.217,-2.2509,0.0,-2.334,0.0,-2.4326,-2.4952,-2.5572,0.0,-2.5417,-2.5308,-2.6199,-2.5954,-2.6112,-2.6779,-2.6779,-2.6779,-2.6779,-2.6779,-2.6779,-2.6779,-2.6779,-2.6779,-2.6779,-2.6779,-2.6779,-2.6779,0.0,-2.6779,-2.6779,-2.6779,-2.6779,-2.6779,-2.6779,-2.6779,-2.6779,-2.6779,-2.6779,-2.6779,-2.6779,-2.6779,-2.6779,-2.6779,-2.6779,-2.6779,-2.6779,-2.6779,-2.6779,-2.6779,-2.6779,-2.6779,-2.6779,-2.6779,-2.6779,-2.6779,-2.6779,-2.6779,-2.6779,-2.6779,-2.6678,-2.63,-2.609,-2.5892,-2.577,-2.5458,-2.5243,-2.5277,-2.5012,-2.4597,-2.3912,-2.3533,-2.3051,-2.2298,-2.2339,-2.2268,-2.1898,-2.1331,-2.0994,-2.0994,-2.0431,-2.0093,-2.0037,-1.9805,-1.9648,-1.9605,-1.9893,-1.9924,-1.9629,-1.9993,-2.0147,-2.0072,-2.0699,-2.1054,-2.0543,-2.0982,-2.1423,-2.1423,-2.1131,-2.0757,-2.0257,-1.9085,-1.7918,-1.7382,0.0,-1.5162,-1.5047,-1.604,-1.7076,-1.7678,0.0,-2.1327,-2.2016,-2.2555,-2.2931,-2.3004,-2.3635,-2.4291,-2.4945,-2.5654,-2.6233,-2.6779,-2.634,-2.6233,-2.6779,-2.6779,-2.6779,-2.6779,-2.6779,-2.6779,-2.6779,-2.6779,-2.6779,-2.6779,-2.6779,-2.6779,-2.6779,-2.6779,-2.6779,-2.6779,-2.6779,-2.6779,-2.6779,-2.6779,-2.6779,-2.6779,-2.6779,-2.6779,-2.6779,-2.6779,-2.6779,-2.6779,-2.6779,-2.6779,-2.6779,-2.6779,-2.6779,-2.6779,-2.6779,-2.6779,-2.6779,-2.6779,-2.6779,-2.6779,-2.6779,-2.6832,-2.6884,-2.6884,-2.6922,-2.6922,-2.6922,-2.6922,-2.6922,-2.6884,-2.7144,-2.7248,-2.6884,-2.63,-2.6112,-2.6692,-2.6286,-2.5923,-2.5923,-2.4638,-2.3705,-2.3519,-2.3138,-2.2802,-2.2653,-2.2185,-2.1875,-2.1763,-2.18,-2.1817,-2.165,-2.1686,-2.1648,-2.1536,-2.1625,-2.1412,-2.0864,-2.0937,-2.0912,-2.0824,-2.1416,-2.191,-2.109,-2.1342,-2.1423,-2.1423,-2.1164,-2.065,-1.9684,-1.8509,0.0,0.0,-1.4692,-1.3879,-1.32,-1.5108,-1.6968,-1.7666,0.0,0.0,0.0,0.0,-2.3091,0.0,0.0,0.0,0.0,0.0,0.0,0.0,-2.6674,-2.6674,-2.6779,-2.6779,-2.6779,-2.6779,-2.6779,-2.6779,-2.6779,-2.6779,-2.6779,-2.6779,-2.6779,-2.6779,-2.6779,-2.6779,-2.6779,-2.6779,-2.6779,0.0,-2.6779,-2.6779,-2.6779,-2.6779,-2.6779,-2.6779,-2.6779,-2.6779,-2.6779,-2.6779,-2.6779,-2.6779,-2.6779,-2.6779,-2.6779,-2.6779,-2.6779,-2.6779,-2.6779,-2.6779,-2.6779,-2.6779,-2.6779,-2.7041,-2.7299,-2.7299,-2.7509,-2.7715,-2.7715,-2.7715,-2.763,-2.7335,-2.735,-2.7248,-2.6884,-2.6678,-2.6649,-2.6765,-2.6678,-2.6605,-2.6605,-2.6347,-2.5797,-2.4721,-2.5112,-2.508,-2.4033,-2.3989,-2.3759,-2.3275,-2.284,-2.2585,-2.2585,-2.2013,-2.1703,-2.1648,-2.2173,-2.2356,-2.2241,-2.2799,-2.3065,-2.3047,-2.3166,-2.3276,-2.126,-2.1423,-2.1423,-2.1423,-2.0931,-2.0108,-1.8947,0.0,0.0,0.0,-1.3418,-1.2722,-1.2735,0.0,0.0,0.0,0.0,0.0,0.0,0.0,0.0,0.0,0.0,0.0,0.0,0.0,0.0,0.0,-2.6779,-2.6779,-2.6779,-2.6779,-2.6779,-2.6779,-2.6779,-2.6779,-2.6779,-2.6779,-2.6779,-2.6779,-2.6779,-2.6779,-2.6779,-2.6779,-2.6779,-2.6779,-2.6779,-2.6779,-2.6779,-2.6779,-2.6779,-2.6779,-2.6779,-2.6779,-2.6779,-2.6779,-2.6779,-2.6779,-2.6779,-2.6779,-2.6779,-2.6779,-2.6779,-2.6779,-2.6779,-2.6779,-2.6779,-2.6779,-2.6779,-2.6832,-2.7041,-2.7248,-2.7437,-2.761,-2.778,-2.7898,-2.7898,-2.8061,-2.811,-2.7745,-2.7645,-2.756,-2.7196,-2.6937,-2.6779,-2.6779,-2.6779,-2.6779,-2.6779,-2.6989,-2.6946,-2.6396,-2.6615,-2.6462,-2.5767,-2.5494,-2.512,-2.4567,-2.4356,-2.4096,-2.3712,-2.3437,-2.3067,-2.2694,-2.2961,-2.3114,-2.3114,-2.3428,-2.3734,-2.4073,-2.4073,-2.4234,-2.1111,-2.128,-2.1396,-2.126,-2.0584,-1.9567,-1.8232,-1.6523,0.0,0.0,-1.2452,-1.1822,-1.2463,0.0,0.0,0.0,0.0,0.0,0.0,0.0,0.0,0.0,0.0,0.0,0.0,0.0,0.0,0.0,-2.6779,-2.6779,-2.6779,-2.6779,-2.6779,-2.6779,-2.6779,-2.6779,-2.6779,-2.6779,-2.6779,-2.6779,-2.6779,-2.6779,-2.6779,-2.6779,-2.6846,-2.6937,-2.6937,-2.6937,-2.6937,-2.6937,-2.6884,-2.6779,-2.6779,-2.6779,-2.6779,-2.6884,-2.6937,-2.6937,-2.6937,-2.6937,-2.6884,-2.6832,-2.6779,-2.6779,-2.6779,-2.6779,-2.6779,-2.6779,-2.6832,-2.6989,-2.7299,-2.7539,-2.7725,-2.8061,-2.8158,-2.8158,-2.8158,-2.8415,-2.8511,-2.811,-2.8012,-2.7929,-2.7575,-2.7181,-2.6937,-2.6937,-2.6846,-2.6779,-2.6779,-2.7233,-2.761,-2.7799,-2.7705,-2.7525,-2.7172,-2.6769,-2.6313,-2.5686,-2.5755,-2.5481,-2.4794,-2.4851,-2.4624,-2.4015,-2.4015,-2.4015,-2.4015,-2.4073,-2.435,-2.4794,-2.4794,-2.5007,-2.0455,-2.0921,-2.1287,-2.0711,-2.0148,-1.9312,-1.7669,0.0,0.0,-1.2935,-1.2033,-1.1477,-1.1615,-1.2858,0.0,0.0,0.0,0.0,0.0,0.0,0.0,0.0,0.0,0.0,0.0,0.0,0.0,0.0,-2.6779,-2.6779,-2.6779,-2.6779,-2.6779,-2.6779,-2.6779,-2.6779,-2.6779,-2.6779,-2.6779,-2.6779,-2.6779,-2.6779,-2.6779,-2.6779,-2.6989,-2.735,-2.735,-2.735,0.0,-2.735,-2.7144,-2.6779,-2.6779,-2.6779,-2.6832,-2.7196,-2.735,-2.735,-2.735,-2.735,-2.7299,-2.6937,-2.6779,-2.6779,-2.6779,-2.6779,-2.6779,-2.6779,-2.7041,-2.735,-2.7401,-2.791,-2.8479,-2.8873,-2.8982,-2.8982,-2.8982,-2.9029,-2.892,-2.8511,-2.8463,-2.8319,-2.7913,-2.756,-2.735,-2.735,-2.7041,-2.6779,-2.6779,-2.7393,-2.7947,-2.8192,-2.8352,-2.8192,-2.7575,-2.7841,-2.7579,-2.6524,-2.6486,-2.625,-2.5728,-2.5563,-2.5508,-2.5398,-2.5398,-2.5398,-2.5398,-2.5563,-2.5618,-2.5673,-2.5673,-2.5728,-2.0105,-2.0563,-2.0732,-2.0549,-2.0121,-1.9225,-1.7472,0.0,-1.4149,-1.291,-1.1723,-1.1175,-1.2066,-1.2446,-1.3441,0.0,-1.662,-1.7752,-2.0227,0.0,0.0,0.0,0.0,0.0,0.0,0.0,0.0,0.0,-2.6779,-2.6779,-2.6779,-2.6779,-2.6779,-2.6779,-2.6779,-2.6779,-2.6779,-2.6779,-2.6779,-2.6779,-2.6779,-2.6779,-2.6779,-2.7041,-2.7144,-2.7041,-2.7509,-2.7458,0.0,-2.7509,-2.7509,-2.7196,-2.7393,-2.7444,-2.7479,-2.7645,-2.7695,-2.7695,-2.7488,-2.7401,-2.735,-2.6937,-2.6779,-2.6779,-2.6779,-2.6989,-2.7144,-2.7144,-2.7423,-2.7745,-2.7993,-2.8431,-2.892,-2.9075,-2.9075,-2.9075,-2.9075,-2.9075,-2.9029,-2.8873,-2.8669,-2.8463,-2.8319,-2.776,-2.7401,-2.7401,-2.7041,-2.6884,-2.7144,-2.7595,-2.8046,-2.84,-2.8842,-2.8935,-2.856,-2.8763,-2.8607,-2.7887,-2.8033,-2.7739,-2.6857,-2.6753,-2.6438,-2.5728,-2.5728,-2.5728,-2.5728,-2.5783,-2.6014,-2.6336,-2.6336,-2.6549,-1.9441,-1.9965,-2.0092,-1.9962,-1.9669,-1.8954,0.0,-1.5537,-1.4087,-1.2882,-1.156,-1.1034,-1.2292,-1.2253,-1.2817,0.0,-1.5897,-1.6834,-1.9127,0.0,0.0,0.0,0.0,0.0,0.0,0.0,0.0,-2.6779,-2.6779,-2.6779,-2.6779,-2.6779,-2.6779,-2.6779,-2.6779,-2.6832,-2.6989,-2.6989,-2.7026,-2.7115,-2.7115,-2.7115,-2.7115,-2.7423,-2.7473,-2.7306,-2.7879,-2.778,0.0,-2.7879,-2.7879,-2.7575,-2.783,-2.7898,-2.7898,-2.8046,-2.8061,-2.8012,-2.766,-2.7575,-2.7473,-2.6989,-2.6779,-2.6832,-2.6937,-2.7196,-2.7401,-2.7524,-2.7795,-2.8158,-2.8559,-2.8873,-2.9075,-2.9075,-2.9075,-2.9075,-2.9075,-2.9075,-2.9075,-2.9075,-2.8873,-2.8669,-2.8669,-2.8155,-2.7725,-2.7725,-2.7372,-2.7218,-2.7524,-2.7879,-2.8207,-2.8463,-2.9044,-2.9335,-2.9227,-2.9483,-2.9422,-2.8966,-2.9166,-2.8919,-2.8015,-2.7819,-2.7369,-2.6558,-2.6414,-2.6322,-2.6322,-2.6322,-2.6549,-2.6997,-2.6997,-2.7203,-1.816,-1.8919,-1.9346,-1.8768,-1.8735,-1.8357,0.0,-1.5182,-1.3961,-1.2738,-1.1533,-1.0996,-1.1928,-1.231,-1.3001,-1.457,-1.5533,-1.6525,-1.7773,-1.894,0.0,0.0,0.0,0.0,0.0,0.0,0.0,-2.6779,-2.6779,0.0,-2.6779,-2.6779,-2.6779,-2.6779,-2.6779,-2.6989,-2.7401,-2.7401,-2.756,-2.7913,-2.7913,-2.7913,-2.7913,-2.7898,-2.811,-2.8463,-2.8511,-2.8511,0.0,-2.8511,-2.8255,-2.7913,-2.7898,-2.7898,-2.7947,-2.8367,-2.8511,-2.8463,-2.8012,-2.7898,-2.7765,-2.7011,-2.6779,-2.6884,-2.7248,-2.7401,-2.7488,-2.783,-2.8158,-2.8574,-2.8982,-2.9075,-2.9075,-2.9075,-2.9075,-2.9075,-2.9075,-2.9075,-2.9075,-2.9075,-2.9075,-2.9075,-2.9075,-2.8779,-2.8463,-2.8463,-2.8158,-2.7898,-2.7898,-2.8271,-2.8527,-2.8511,-2.8873,-2.9213,-2.947,-2.9913,-2.9957,-2.9406,-2.9645,-2.9572,-2.912,-2.8591,-2.8304,-2.8288,-2.7845,-2.7575,-2.7575,-2.7575,-2.7575,-2.7575,-2.7575,-2.7575,-1.6306,-1.701,-1.7343,-1.6913,-1.6996,-1.6824,-1.5505,-1.4179,-1.2983,-1.2177,-1.1395,-1.1122,-1.1994,-1.2529,-1.3618,-1.5918,0.0,0.0,0.0,0.0,0.0,0.0,0.0,0.0,0.0,0.0,0.0,-2.7196,-2.6937,-2.6937,-2.7196,-2.7196,-2.7093,-2.6779,-2.7093,-2.7248,-2.7401,-2.761,-2.7765,-2.7898,-2.7898,-2.7898,-2.7898,-2.8158,-2.8207,-2.811,-2.8669,-2.8622,-2.811,-2.8669,-2.8669,-2.8367,-2.8622,-2.8716,-2.8732,-2.8873,-2.8716,-2.8463,-2.8061,-2.773,-2.7473,-2.6989,-2.6989,-2.7299,-2.7645,-2.773,-2.7879,-2.8527,-2.8826,-2.8936,-2.9075,-2.9075,-2.9075,-2.9075,-2.9075,-2.9075,-2.9075,-2.9075,-2.9075,-2.9075,-2.9075,-2.9075,-2.9075,-2.8779,-2.8511,-2.8511,-2.8158,-2.7997,-2.8255,-2.8415,-2.8622,-2.8873,-2.9029,-2.9121,-2.9213,-2.9649,-2.9853,-2.9689,-3.007,-3.007,-2.9617,-2.9422,-2.8996,-2.8288,-2.8158,-2.7929,-2.7625,-2.7625,-2.7625,-2.7625,-2.7625,-2.7625,0.0,-1.5472,-1.5777,-1.518,-1.5362,-1.5382,-1.4232,-1.311,-1.216,-1.1609,-1.1255,-1.1248,-1.1919,-1.2554,-1.3629,-1.5519,-1.6214,0.0,0.0,0.0,0.0,0.0,0.0,0.0,0.0,0.0,-2.7144,-2.7401,-2.7269,-2.7306,-2.756,-2.756,-2.7458,-2.7203,-2.7458,-2.766,-2.7825,-2.8027,-2.8207,-2.8367,-2.8367,-2.8367,-2.8367,-2.8622,-2.8574,-2.8367,-2.8873,-2.8716,0.0,-2.8826,-2.8873,-2.8559,-2.892,-2.9075,-2.9075,-2.892,-2.8716,-2.8415,-2.7879,-2.761,-2.7488,-2.7093,-2.7335,-2.7825,-2.8076,-2.8207,-2.8463,-2.8967,-2.9075,-2.9075,-2.9075,-2.9075,-2.9075,-2.9075,-2.9075,-2.9075,-2.9075,-2.9075,-2.9075,-2.9075,-2.9075,-2.9075,-2.9075,-2.8873,-2.8732,-2.8732,-2.8511,-2.8463,-2.8669,-2.8732,-2.8826,-2.9075,-2.9075,-2.9075,-2.9075,-2.9544,-2.9853,-2.9941,-3.03,-3.0384,-3.007,-2.9897,-2.9512,-2.8857,-2.848,-2.8158,-2.7845,-2.766,-2.7625,-2.7625,-2.7625,-2.776,0.0,-1.4113,-1.4435,-1.3522,-1.3792,-1.3934,-1.2762,-1.2043,0.0,-1.1043,-1.1131,-1.1382,-1.1763,-1.2507,-1.3322,-1.404,0.0,0.0,0.0,0.0,0.0,0.0,0.0,0.0,0.0,0.0,-2.7386,-2.7452,-2.7745,-2.7898,-2.7947,-2.7947,-2.7947,-2.7947,-2.7963,-2.8158,-2.8511,-2.8527,-2.8716,-2.9075,-2.9075,-2.9075,-2.9075,-2.9075,-2.9075,0.0,-2.9075,-2.8873,-2.8574,-2.8936,-2.8873,-2.8574,-2.8967,-2.9075,-2.9029,-2.8669,-2.8511,-2.8367,-2.7725,-2.759,-2.769,-2.7321,-2.7775,-2.8398,-2.8527,-2.8826,-2.9075,-2.9075,-2.9075,-2.9075,-2.9075,-2.9075,-2.9075,-2.9075,-2.9075,-2.9075,-2.9075,-2.9075,-2.9075,-2.9075,-2.9075,-2.9075,-2.9075,-2.9075,-2.9075,-2.9075,-2.9075,-2.9075,-2.9075,-2.9075,-2.9075,-2.9075,-2.9075,-2.9121,-2.9121,-2.9544,-2.9897,-3.0146,-3.0401,-3.0526,-3.0526,-3.007,-2.9837,-2.9793,-2.881,-2.8288,-2.8288,-2.7845,-2.7625,-2.7625,-2.767,-2.803,-1.0426,0.0,-1.2268,-1.1539,-1.1542,-1.1716,0.0,-1.1027,-1.0483,0.0,0.0,0.0,0.0,0.0,0.0,0.0,0.0,0.0,0.0,0.0,0.0,0.0,0.0,0.0,0.0,0.0,-2.7357,-2.8103,-2.7993,-2.8046,-2.8352,-2.8367,-2.8367,-2.8367,-2.8669,-2.8716,-2.8511,-2.8826,-2.9029,-2.9075,-2.9075,-2.9075,-2.9075,-2.9075,-2.9075,-2.9075,-2.9075,-2.9029,-2.8982,-2.9075,-2.9029,-2.8982,-2.9075,-2.9029,-2.8967,-2.8967,-2.8748,-2.8381,-2.822,-2.7695,-2.7122,-2.7378,-2.786,-2.8477,-2.8842,-2.9029,-2.9075,-2.9075,-2.9075,-2.9075,-2.9075,-2.9075,-2.9075,-2.9075,-2.9075,-2.9075,-2.9075,-2.9075,-2.9075,-2.9075,-2.9075,-2.9075,-2.9075,-2.9075,-2.9075,-2.9075,-2.9075,-2.9075,-2.9075,-2.9075,-2.9075,-2.9075,-2.9075,-2.9167,-2.9396,-2.9633,-2.9853,-2.9897,-3.03,-3.0526,-3.0526,-3.0384,-3.0156,-2.981,-2.881,-2.8288,-2.8288,-2.7845,-2.7625,-2.7625,-2.8113,-2.8671,-0.9429,-1.0701,-1.1807,-1.0929,-1.0915,-1.1087,-1.0967,0.0,0.0,0.0,0.0,0.0,0.0,0.0,0.0,0.0,0.0,0.0,0.0,0.0,0.0,0.0,0.0,0.0,0.0,0.0,-2.753,-2.8348,-2.8446,-2.8574,-2.8764,-2.8779,-2.8779,-2.8779,-2.8982,-2.8982,-2.8779,-2.8982,-2.9075,-2.9075,-2.9075,-2.9075,-2.9075,-2.9075,-2.9075,-2.9075,-2.9075,-2.8982,-2.8826,-2.9029,-2.8982,-2.8811,-2.9045,-2.9013,-2.8904,-2.8826,-2.8653,-2.8365,-2.7795,-2.7327,-2.7108,-2.778,-2.822,-2.8541,-2.8889,-2.9013,-2.9013,-2.9075,-2.9075,-2.9075,-2.9075,-2.9075,-2.9075,-2.9075,-2.9075,-2.9075,-2.9075,-2.9075,-2.9075,-2.9075,-2.9075,-2.9075,-2.9075,-2.9075,-2.9075,-2.9075,-2.9075,-2.9075,-2.9075,-2.9075,-2.9075,-2.9075,-2.9075,-2.9167,-2.9289,-2.9515,-2.9766,-2.9957,-3.03,-3.0526,-3.0526,-3.0526,-3.03,-2.981,-2.9287,-2.8857,-2.8685,-2.8495,-2.8499,-2.8812,-2.92,-2.9724,-0.9465,-1.1009,-1.2107,-1.0919,-1.1025,-1.1283,0.0,0.0,0.0,0.0,0.0,0.0,0.0,0.0,0.0,0.0,0.0,0.0,0.0,0.0,0.0,0.0,0.0,0.0,0.0,-2.6438,-2.7379,-2.8088,-2.8638,-2.887,-2.8775,-2.8965,-2.9028,-2.8979,-2.9028,-2.9075,-2.9075,-2.9075,-2.9075,-2.9075,-2.9075,-2.9075,-2.9075,-2.9075,-2.9075,-2.9075,0.0,0.0,-2.8622,-2.8967,-2.8858,-2.8541,-2.8889,-2.892,-2.8701,-2.8431,-2.8383,-2.8271,-2.7225,-2.7086,-2.7444,-2.8204,-2.8525,-2.8621,-2.8842,-2.8904,-2.8904,-2.9045,-2.9075,-2.9075,-2.9075,-2.9075,-2.9075,-2.9075,-2.9075,-2.9075,-2.9075,-2.9075,-2.9075,-2.9075,-2.9075,-2.9075,-2.9075,-2.9075,-2.9075,-2.9075,-2.9075,-2.9122,-2.9279,-2.9295,-2.9327,-2.9391,-2.9437,-2.9484,-2.9484,-2.9761,-3.0073,-3.0369,-3.0408,-3.0485,-3.0526,-3.0526,-3.03,-2.9897,-2.9853,-2.9617,-2.9212,-2.9354,-2.9697,-3.0196,-3.0526,-3.1006,-0.9833,-1.1361,-1.2115,-1.0582,-1.0841,-1.1382,0.0,0.0,0.0,0.0,0.0,0.0,0.0,0.0,0.0,0.0,0.0,0.0,0.0,0.0,0.0,0.0,0.0,0.0,-2.5313,-2.5412,-2.5807,-2.6867,-2.7666,-2.7895,-2.7446,-2.846,-2.8853,-2.8268,-2.8821,-2.9075,-2.9075,-2.9075,-2.9075,-2.9075,-2.9075,-2.9075,-2.9075,-2.9075,-2.9075,-2.9075,0.0,-2.9075,-2.9029,-2.9075,-2.9045,-2.8982,-2.8685,-2.8367,-2.8061,-2.8012,-2.7963,-2.7963,-2.775,-2.7944,-2.8137,-2.7894,-2.8204,-2.8636,-2.8779,-2.8842,-2.8873,-2.8873,-2.8905,-2.892,-2.892,-2.892,-2.8967,-2.9075,-2.9075,-2.9075,-2.9075,-2.9075,-2.9075,-2.9075,-2.9075,-2.9075,-2.9075,-2.9075,-2.9075,-2.9075,-2.9075,-2.9343,-2.9943,-3.0022,-3.0243,-3.0828,-3.1086,-3.1214,-3.1214,-3.1656,-3.1733,-3.1155,-3.0576,-3.0316,-3.0468,-3.0526,-3.0485,-3.0384,-2.9984,-2.975,-2.9705,-2.9926,-3.0133,-3.0212,-3.1363,-3.2262,-0.9148,-1.0466,-1.1438,-1.15,-1.2356,-1.3119,0.0,0.0,0.0,0.0,0.0,0.0,0.0,0.0,0.0,0.0,0.0,0.0,0.0,0.0,0.0,0.0,0.0,-2.3328,-2.4863,-2.5314,-2.5802,-2.6645,-2.7177,-2.7371,-2.7115,-2.7699,-2.8047,-2.8094,-2.841,-2.8742,-2.9075,-2.9075,-2.9075,-2.9075,-2.9075,-2.9075,-2.9075,-2.9075,-2.9075,-2.9075,0.0,-2.8779,-2.8779,-2.8779,-2.8732,-2.8716,-2.8574,-2.8255,-2.7898,-2.7963,-2.7765,-2.7565,-2.8189,-2.8155,-2.791,-2.8024,-2.8284,-2.8541,-2.8636,-2.8763,-2.8811,-2.8732,-2.8795,-2.8904,-2.8904,-2.8904,-2.892,-2.9075,-2.9075,-2.9075,-2.9075,-2.9075,-2.9075,-2.9075,-2.9075,-2.9075,-2.9075,-2.9075,-2.9264,-2.9643,-2.969,-2.9943,-3.0654,-3.0733,-3.086,-3.1176,-3.1306,-3.1404,-3.1404,-3.1742,-3.1811,-3.1495,-3.0771,-3.0401,-3.0485,-3.0526,-3.0526,-3.0526,-3.0678,-3.0746,-3.0746,-3.1401,-3.1838,-3.2138,-3.2884,-3.3383,-0.8791,-0.9844,-1.0924,-1.2629,0.0,0.0,0.0,0.0,0.0,0.0,0.0,0.0,0.0,0.0,0.0,0.0,0.0,0.0,0.0,0.0,0.0,0.0,-2.2814,-2.3429,-2.4432,-2.5047,-2.5619,-2.6162,-2.6549,-2.6725,-2.6609,-2.6925,-2.7336,-2.7841,-2.7873,-2.8268,-2.9075,-2.8917,-2.8917,-2.9075,-2.9075,-2.9075,-2.9075,-2.9075,-2.9075,-2.9075,-2.8764,-2.8622,-2.8622,-2.8622,-2.859,-2.8525,-2.8494,-2.8125,-2.765,-2.7864,-2.7565,-2.7276,-2.8381,-2.8317,-2.7795,-2.8235,-2.8411,-2.8396,-2.8541,-2.8636,-2.8732,-2.8589,-2.8716,-2.8873,-2.8873,-2.8873,-2.892,-2.9075,-2.9075,-2.9075,-2.9075,-2.9075,-2.9075,-2.9075,-2.9075,-2.9075,-2.9075,-2.9264,-2.9564,-3.0101,-3.0322,-3.067,-3.1381,-3.146,-3.1523,-3.1697,-3.1747,-3.1797,-3.1897,-3.1983,-3.2026,-3.2034,-3.1394,-3.1023,-3.1023,-3.1023,-3.1023,-3.1023,-3.1586,-3.1868,-3.1868,-3.273,-3.3399,-3.3806,-3.4153,-3.43,-0.9754,-1.0481,-1.116,-1.3512,0.0,0.0,0.0,0.0,0.0,0.0,0.0,0.0,0.0,0.0,0.0,0.0,0.0,0.0,0.0,0.0,0.0,-2.3377,-2.3142,-2.3275,-2.4239,-2.4116,-2.4189,-2.4688,-2.5446,-2.5705,-2.5195,-2.6388,-2.713,-2.7178,-2.7178,-2.781,-2.9075,-2.8489,-2.8489,-2.9075,-2.9075,-2.9075,-2.9075,-2.9075,-2.9075,-2.9075,-2.9075,-2.9075,-2.9075,-2.9075,-2.8967,-2.8811,-2.8542,-2.7745,-2.6826,-2.721,-2.7261,-2.7225,-2.8268,-2.8493,-2.8348,-2.8411,-2.8411,-2.8411,-2.8396,-2.8525,-2.859,-2.8444,-2.8604,-2.8794,-2.8794,-2.8794,-2.8842,-2.9045,-2.9075,-2.9075,-2.9075,-2.9075,-2.9075,-2.9075,-2.9075,-2.9075,-2.9075,-2.9674,-3.0117,-3.0164,-3.0733,-3.1397,-3.2159,-3.2238,-3.244,-3.3087,-3.3344,-3.3601,-3.3838,-3.3518,-3.3254,-3.3252,-3.2793,-3.2531,-3.2531,-3.2531,-3.2531,-3.2531,-3.258,-3.2613,-3.2613,-3.3363,-3.3743,-3.3806,-3.4504,-3.4851,-0.9033,-1.0294,-1.1661,-1.3751,0.0,0.0,0.0,0.0,0.0,0.0,0.0,0.0,0.0,0.0,0.0,0.0,0.0,0.0,0.0,0.0,-2.2889,-2.3508,-2.3421,-2.3595,-2.4219,-2.4302,-2.4369,-2.4589,-2.5042,-2.5194,-2.5021,-2.5512,-2.5977,-2.6404,-2.6862,-2.7541,-2.8474,-2.8647,-2.8869,-2.9075,-2.9075,-2.9075,-2.9075,-2.9075,-2.9075,-2.9075,-2.8574,-2.8527,-2.8716,-2.8463,-2.8463,-2.8606,-2.8222,-2.7795,-2.7408,-2.7615,-2.768,-2.7775,-2.8493,-2.8589,-2.8411,-2.8411,-2.8411,-2.8411,-2.8493,-2.8636,-2.8716,-2.8652,-2.8779,-2.8795,-2.8589,-2.8652,-2.8842,-2.9045,-2.9075,-2.9075,-2.9075,-2.9075,-2.9075,-2.9075,-2.9075,-2.9075,-2.9075,-2.9343,-2.9817,-3.0686,-3.1049,-3.1634,-3.2756,-3.2914,-3.3008,-3.3277,-3.3398,-3.3503,-3.3607,-3.3454,-3.3646,-3.4279,-3.3313,-3.268,-3.268,-3.268,-3.268,-3.268,-3.3143,-3.3375,-3.3375,-3.4121,-3.4485,-3.4485,-3.4767,-3.4899,-0.8901,-1.0425,-1.2245,0.0,0.0,0.0,0.0,0.0,0.0,0.0,0.0,0.0,0.0,0.0,0.0,0.0,0.0,0.0,0.0,-2.3334,-2.329,-2.3782,-2.3824,-2.3952,-2.4261,-2.4467,-2.4589,-2.4589,-2.4846,-2.5005,-2.5005,-2.5005,-2.5298,-2.5977,-2.6498,-2.7194,-2.8079,-2.8568,-2.8916,-2.9075,-2.9075,-2.9075,-2.9075,-2.9075,-2.9029,-2.8873,-2.8319,-2.8158,-2.8319,-2.8012,-2.811,-2.8446,-2.8125,-2.7944,-2.786,-2.7929,-2.7993,-2.8024,-2.8541,-2.8636,-2.846,-2.8396,-2.8411,-2.8396,-2.8493,-2.8684,-2.8842,-2.8794,-2.8858,-2.892,-2.8668,-2.8732,-2.8873,-2.9045,-2.9075,-2.9075,-2.9075,-2.9075,-2.9075,-2.9075,-2.9075,-2.9154,-2.9422,-2.9643,-3.0196,-3.1381,-3.1744,-3.2218,-3.3182,-3.3309,-3.3309,-3.3309,-3.3309,-3.3309,-3.3309,-3.345,-3.3848,-3.4594,-3.3846,-3.3375,-3.3375,-3.3375,-3.3375,-3.3375,-3.3889,-3.4137,-3.4137,-3.4651,-3.4899,-3.4899,-3.4899,-3.4899,-0.9682,-1.108,0.0,0.0,0.0,0.0,0.0,0.0,0.0,0.0,0.0,0.0,0.0,0.0,0.0,0.0,0.0,0.0,-2.3595,-2.3595,-2.3782,-2.4261,-2.4302,-2.4302,-2.4302,-2.4467,-2.4589,-2.4589,-2.4846,-2.5005,-2.5005,-2.5005,-2.5282,-2.5977,-2.6009,-2.6672,-2.8063,-2.8094,-2.8442,-2.9075,-2.9075,-2.9075,-2.9075,-2.9075,-2.8873,-2.8511,-2.8511,-2.8255,-2.7898,-2.7898,-2.8091,-2.8411,-2.8235,-2.8107,-2.7913,-2.8107,-2.8057,-2.7963,-2.8414,-2.8589,-2.8573,-2.8444,-2.8411,-2.8411,-2.8411,-2.8636,-2.8858,-2.8842,-2.8967,-2.9075,-2.9075,-2.9013,-2.8967,-2.9075,-2.9075,-2.9075,-2.9075,-2.9075,-2.9075,-2.9075,-2.9075,-2.9343,-3.0038,-3.0749,-3.146,-3.2206,-3.2835,-3.3293,-3.3309,-3.3309,-3.3309,-3.3309,-3.3309,-3.3309,-3.3309,-3.3813,-3.4101,-3.4101,-3.4594,-3.4899,-3.4899,-3.4899,-3.4899,-3.4899,-3.4899,-3.4899,-3.4899,-3.4899,-3.4899,-3.4899,-3.4899,-3.4899,-1.0038,0.0,0.0,0.0,0.0,0.0,0.0,0.0,0.0,0.0,0.0,0.0,0.0,0.0,0.0,0.0,-2.3967,-2.4094,-2.4094,-2.4094,-2.4135,-2.4261,-2.4302,-2.4359,-2.4441,-2.4564,-2.463,-2.4726,-2.4886,-2.5005,-2.5005,-2.5005,-2.51,-2.5306,-2.574,-2.6451,-2.7383,-2.7857,-2.829,-2.8669,-2.8967,-2.9075,-2.9075,-2.9075,-2.9029,-2.8936,-2.8622,-2.8415,-2.8319,-2.8319,-2.8463,-2.8748,-2.8684,-2.8429,-2.8107,-2.7894,-2.7959,-2.8107,-2.7993,-2.8253,-2.8573,-2.8444,-2.8411,-2.846,-2.8604,-2.8668,-2.8732,-2.8951,-2.9045,-2.9075,-2.9075,-2.9075,-2.9075,-2.9075,-2.9075,-2.9075,-2.9075,-2.9075,-2.9075,-2.9075,-2.9075,-2.9185,-2.9406,-3.0433,-3.1286,-3.1492,-3.1697,-3.2187,-3.3182,-3.3309,-3.3309,-3.3309,-3.3309,-3.3309,-3.3309,-3.4151,-3.4643,-3.4643,-3.4787,-3.4899,-3.4899,-3.4899,-3.4899,-3.4899,-3.4899,-3.4899,-3.4899,-3.4899,-3.4899,-3.4899,-3.4899,-3.4899,-1.1847,0.0,0.0,0.0,0.0,0.0,0.0,0.0,0.0,0.0,0.0,0.0,0.0,0.0,0.0,-2.4204,-2.4276,-2.4302,-2.4302,-2.4302,-2.4302,-2.4302,-2.4302,-2.4359,-2.4498,-2.4564,-2.4686,-2.4782,-2.4926,-2.5005,-2.5005,-2.5005,-2.5005,-2.5005,-2.5645,-2.6214,-2.6672,-2.7352,-2.7897,-2.8357,-2.8573,-2.8853,-2.9075,-2.9075,-2.9029,-2.8826,-2.8463,-2.8174,-2.8042,-2.8222,-2.8367,-2.8511,-2.8621,-2.8429,-2.8155,-2.8174,-2.8091,-2.791,-2.7959,-2.8171,-2.8429,-2.8299,-2.8299,-2.846,-2.8604,-2.8621,-2.8622,-2.8905,-2.9045,-2.9075,-2.9075,-2.9075,-2.9075,-2.9075,-2.9075,-2.9075,-2.9075,-2.9075,-2.9075,-2.9075,-2.9075,-2.9075,-2.9075,-2.9817,-3.0765,-3.1887,-3.2045,-3.2345,-3.3198,-3.3309,-3.345,-3.3899,-3.3949,-3.4168,-3.4736,-3.5374,-3.5515,-3.4947,-3.4899,-3.4899,-3.4899,-3.4899,-3.4899,-3.4899,-3.5071,-3.5165,-3.5165,-3.5241,-3.5148,-3.4899,-3.4899,-3.4899,0.0,0.0,0.0,0.0,0.0,0.0,0.0,0.0,0.0,0.0,0.0,0.0,0.0,0.0,0.0,-2.421,-2.4302,-2.4302,-2.4302,-2.4302,-2.4302,-2.4302,-2.4302,-2.4359,-2.4498,-2.4564,-2.4686,-2.4822,-2.4926,-2.5005,-2.5005,-2.5005,-2.5005,-2.5005,-2.5582,-2.5945,-2.6009,-2.6672,-2.7336,-2.7955,-2.8,-2.8318,-2.8934,-2.9059,-2.892,-2.8511,-2.811,-2.7795,-2.759,-2.778,-2.7913,-2.7978,-2.8284,-2.8284,-2.8125,-2.8622,-2.8304,-2.7665,-2.8171,-2.8284,-2.8235,-2.8103,-2.8201,-2.8396,-2.8396,-2.8462,-2.8637,-2.8779,-2.8967,-2.9075,-2.9075,-2.9075,-2.9075,-2.9075,-2.9075,-2.9075,-2.9075,-2.9075,-2.9075,-2.9075,-2.9075,-2.9075,-2.9075,-2.9296,-3.037,-3.2914,-3.3309,-3.3309,-3.3309,-3.3398,-3.3797,-3.4804,-3.5024,-3.5588,-3.6891,-3.6987,-3.6451,-3.5148,-3.5118,-3.5024,-3.4899,-3.4899,-3.4899,-3.4899,-3.5396,-3.5667,-3.565,-3.5837,-3.5616,-3.4977,-3.4977,-3.493,0.0,0.0,0.0,0.0,0.0,0.0,0.0,0.0,0.0,0.0,0.0,0.0,0.0,0.0,0.0,-2.4287,-2.4302,-2.4302,-2.4302,-2.44,-2.44,-2.4302,-2.44,-2.4482,-2.4564,-2.4589,-2.471,-2.4926,-2.4966,-2.5005,-2.5005,-2.5005,-2.5005,-2.5005,-2.5148,-2.5456,-2.5993,-2.6167,-2.6424,-2.6834,-2.7174,-2.752,-2.7875,-2.8731,-2.9029,-2.8936,-2.8574,-2.8527,-2.8685,-2.811,-2.8042,-2.8284,-2.8348,-2.8186,-2.7875,-2.8076,-2.8207,-2.8271,-2.8076,-2.8319,-2.8732,-2.8525,-2.851,-2.8542,-2.8542,-2.851,-2.8541,-2.8905,-2.9091,-2.9075,-2.9075,-2.9075,-2.9075,-2.9075,-2.9075,-2.9075,-2.9075,-2.9075,-2.9075,-2.9075,-2.9075,-2.9075,-2.9075,-3.0954,-3.2613,-3.3214,-3.3309,-3.3309,-3.3309,-3.405,-3.4643,-3.4899,-3.5898,-3.6673,-3.697,-3.6987,-3.6891,-3.6591,-3.655,-3.6071,-3.4947,-3.4899,-3.4899,-3.4899,-3.5543,-3.5924,-3.6131,-3.6199,-3.6011,-3.5688,-3.5688,-3.5391,0.0,0.0,0.0,0.0,0.0,0.0,0.0,0.0,0.0,0.0,0.0,0.0,0.0,0.0,-2.4302,-2.4302,-2.4302,-2.4317,-2.44,-2.4457,-2.4498,-2.4426,-2.4482,-2.4539,-2.4686,-2.463,-2.471,-2.4966,-2.5005,-2.5005,-2.5005,-2.5005,-2.5005,-2.5005,-2.5005,-2.5179,-2.5503,-2.5503,-2.5784,-2.6248,-2.6477,-2.6855,-2.7355,-2.8556,-2.9075,-2.9075,-2.8873,-2.8826,-2.8764,-2.8367,-2.8286,-2.8462,-2.8462,-2.8253,-2.8008,-2.8319,-2.8271,-2.8061,-2.8158,-2.8319,-2.8494,-2.8414,-2.8429,-2.851,-2.851,-2.8444,-2.8444,-2.8684,-2.8951,-2.9075,-2.9075,-2.9075,-2.9075,-2.9075,-2.9075,-2.9075,-2.9075,-2.9075,-2.9075,-2.9075,-3.0212,-3.1128,-3.1128,-3.3113,-3.4752,-3.4752,-3.4752,-3.4752,-3.4752,-3.5419,-3.5898,-3.5898,-3.655,-3.6987,-3.6987,-3.6987,-3.6987,-3.6987,-3.6987,-3.6673,-3.5941,-3.5898,-3.5898,-3.5898,-3.6224,-3.6492,-3.665,-3.665,-3.655,-3.6433,-3.6284,-3.5854,0.0,0.0,0.0,0.0,0.0,0.0,0.0,0.0,0.0,0.0,0.0,0.0,0.0,0.0,-2.4317,-2.4317,-2.4317,-2.4359,-2.4498,-2.4539,-2.4523,-2.4589,-2.4564,-2.462,-2.4782,-2.4686,-2.4726,-2.4966,-2.5005,-2.5005,-2.5005,-2.5005,-2.5005,-2.5005,-2.5045,-2.5068,-2.5005,-2.5045,-2.537,-2.586,-2.5986,-2.6366,-2.6957,-2.8205,-2.8791,-2.8902,-2.9028,-2.892,-2.8622,-2.8527,-2.8511,-2.8511,-2.8511,-2.8367,-2.8222,-2.8873,-2.8527,-2.7864,-2.8415,-2.8446,-2.8268,-2.8268,-2.8381,-2.8493,-2.8396,-2.846,-2.8541,-2.8541,-2.8811,-2.9075,-2.9075,-2.9335,-2.9499,-2.9167,-2.9075,-2.9075,-2.9075,-2.9075,-2.9075,-2.9075,-3.1002,-3.2827,-3.3684,-3.5174,-3.6301,-3.6301,-3.6301,-3.6301,-3.6301,-3.6632,-3.6891,-3.6987,-3.6987,-3.6987,-3.6987,-3.6987,-3.6987,-3.6987,-3.6987,-3.6987,-3.6987,-3.6987,-3.6987,-3.6987,-3.6987,-3.6987,-3.6987,-3.6987,-3.6987,-3.697,-3.6708,-3.6318,0.0,0.0,0.0,0.0,0.0,0.0,0.0,0.0,0.0,0.0,0.0,0.0,0.0,-2.4457,-2.4457,-2.4457,-2.4457,-2.4498,-2.4564,-2.4605,-2.4589,-2.4589,-2.4686,-2.4782,-2.4782,-2.4782,-2.4822,-2.4966,-2.5005,-2.5005,-2.5005,-2.5005,-2.5005,-2.5005,-2.5269,-2.5307,-2.5005,-2.5307,-2.5432,-2.54,-2.5967,-2.622,-2.6182,-2.7004,-2.7683,-2.8268,-2.8869,-2.9075,-2.8982,-2.8622,-2.8511,-2.8511,-2.8511,-2.8463,-2.8511,-2.8936,-2.9029,-2.8873,-2.8982,-2.8982,-2.8982,-2.8982,-2.8982,-2.8951,-2.8541,-2.8668,-2.8998,-2.8998,-2.9029,-2.9075,-2.9075,-3.0251,-3.1044,-2.9454,-2.9075,-2.9075,-2.9075,-2.9075,-2.9075,-2.9075,-2.9375,-3.0969,-3.5186,-3.6114,-3.6301,-3.6301,-3.6301,-3.6301,-3.6301,-3.6343,-3.655,-3.6948,-3.6987,-3.6987,-3.6987,-3.6987,-3.6987,-3.6987,-3.6987,-3.6987,-3.6987,-3.6987,-3.6987,-3.6987,-3.6987,-3.6987,-3.6987,-3.6987,-3.6987,-3.6987,-3.693,-3.6891,0.0,0.0,0.0,0.0,0.0,0.0,0.0,0.0,0.0,0.0,0.0,0.0,-2.3887,-2.4275,-2.4498,-2.4564,-2.4564,-2.4605,-2.4686,-2.4726,-2.4726,-2.4806,-2.4822,-2.4822,-2.4886,-2.4862,-2.4862,-2.4966,-2.5005,-2.5068,-2.5269,-2.5362,-2.5476,-2.561,-2.5799,-2.5799,-2.561,-2.5799,-2.5908,-2.5905,-2.6143,-2.6178,-2.6119,-2.6844,-2.7322,-2.7557,-2.7857,-2.8205,-2.8553,-2.8339,-2.8482,-2.8826,-2.8826,-2.8997,-2.9212,-2.9106,-2.9319,-2.9572,-2.9198,-2.9075,-2.9075,-2.9075,-2.9075,-2.9045,-2.8858,-2.8951,-2.9075,-2.9075,-2.9837,-3.0625,-3.0625,-3.1201,-3.1334,-2.9544,-2.9881,-3.0625,-3.0625,-3.0625,-3.0625,-3.0625,-3.0625,-3.1288,-3.3407,-3.518,-3.6301,-3.6301,-3.6301,-3.6301,-3.6301,-3.6509,-3.6771,-3.6987,-3.6987,-3.6987,-3.6987,-3.6987,-3.6987,-3.6987,-3.6987,-3.6987,-3.6987,-3.6987,-3.6987,-3.6987,-3.6987,-3.6987,-3.6987,-3.6987,-3.6987,-3.6987,-3.6987,-3.6987,0.0,0.0,0.0,0.0,0.0,0.0,0.0,0.0,0.0,0.0,0.0,0.0,-2.303,-2.3819,-2.4378,-2.4614,-2.4645,-2.4686,-2.4822,-2.4822,-2.4862,-2.4966,-2.4886,-2.4902,-2.5005,-2.4902,-2.4926,-2.5107,-2.5146,-2.5269,-2.5652,-2.5779,-2.5924,-2.6175,-2.6298,-2.6317,-2.6158,-2.628,-2.6333,-2.6402,-2.6333,-2.6298,-2.628,-2.6756,-2.6962,-2.696,-2.7246,-2.7609,-2.8001,-2.8291,-2.8718,-2.9154,-2.939,-2.9633,-2.9793,-2.9454,-2.9528,-2.9689,-2.9243,-2.9075,-2.9075,-2.9075,-2.9075,-2.9213,-2.9677,-2.9793,-2.9793,-2.9793,-3.0747,-3.18,-3.18,-3.18,-3.1466,-3.0123,-3.0828,-3.18,-3.18,-3.18,-3.18,-3.18,-3.18,-3.2041,-3.28,-3.4818,-3.6301,-3.6301,-3.6301,-3.6343,-3.6468,-3.6771,-3.6987,-3.6987,-3.6987,-3.6987,-3.6987,-3.6987,-3.6987,-3.6987,-3.6987,-3.6987,-3.6987,-3.6987,-3.6987,-3.6987,-3.6987,-3.6987,-3.6987,-3.6987,-3.6987,-3.6987,-3.6987,-3.6987,0.0,0.0,0.0,0.0,0.0,0.0,0.0,0.0,0.0,0.0,0.0,-2.1792,-2.196,-2.2991,-2.4069,-2.4672,-2.4782,-2.4822,-2.4966,-2.4902,-2.4862,-2.4966,-2.5005,-2.5005,-2.5005,-2.5005,-2.513,-2.5427,-2.5465,-2.5689,-2.6158,-2.6193,-2.6229,-2.6368,-2.6707,-2.669,-2.6368,-2.6573,-2.6573,-2.6402,-2.6573,-2.6573,-2.6368,-2.6418,-2.6452,-2.6499,-2.764,-2.7954,-2.7712,-2.8772,-2.9246,-2.9345,-3.0112,-3.0251,-2.9978,-2.9978,-2.9617,-2.9121,-2.9121,-2.9075,-2.9075,-2.9075,-2.9075,-2.9425,-3.1123,-3.1671,-3.1671,-3.1671,-3.1726,-3.18,-3.18,-3.18,-3.18,-3.1671,-3.1709,-3.18,-3.18,-3.18,-3.18,-3.18,-3.18,-3.2697,-3.5576,-3.6197,-3.6301,-3.6301,-3.6301,-3.6468,-3.6891,-3.697,-3.6987,-3.6987,-3.6987,-3.6987,-3.6987,-3.6987,-3.6987,-3.6987,-3.6987,-3.6987,-3.6987,-3.6987,-3.6987,-3.6987,-3.6987,-3.6987,-3.6987,-3.6987,-3.6987,-3.6987,-3.6987,-3.6987,0.0,0.0,0.0,0.0,0.0,0.0,0.0,0.0,0.0,0.0,0.0,-2.1061,-2.1705,-2.2539,-2.3353,-2.4099,-2.4225,-2.4421,-2.4942,-2.4966,-2.5045,-2.5307,-2.5146,-2.5068,-2.5307,-2.5329,-2.5368,-2.5503,-2.5726,-2.6052,-2.6505,-2.6607,-2.6791,-2.7038,-2.7244,-2.7289,-2.7164,-2.7244,-2.7276,-2.7224,-2.7276,-2.7244,-2.7164,-2.7149,-2.6971,-2.6757,-2.7469,-2.7618,-2.7443,-2.78,-2.8483,-2.927,-2.9239,-2.9774,-3.0485,-2.9689,-3.0038,-3.0828,-3.0828,-3.0828,-3.0828,-3.0828,-3.0828,-3.0965,-3.1579,-3.18,-3.18,-3.18,-3.18,-3.18,-3.18,-3.18,-3.18,-3.18,-3.18,-3.18,-3.18,-3.18,-3.18,-3.18,-3.18,-3.2748,-3.5783,-3.655,-3.6771,-3.6771,-3.6771,-3.6811,-3.6987,-3.6987,-3.6987,-3.6987,-3.6987,-3.6987,-3.6987,-3.6987,-3.6987,-3.6987,-3.6987,-3.6987,-3.6987,-3.6987,-3.6987,-3.6987,-3.6987,-3.6987,-3.6987,-3.6987,-3.6987,-3.6987,-3.6987,-3.6987,0.0,0.0,0.0,0.0,0.0,0.0,0.0,0.0,0.0,0.0,0.0,-2.072,-2.1361,-2.1783,-2.2398,-2.3417,-2.3765,-2.4081,-2.4555,-2.4863,-2.5107,-2.5465,-2.5307,-2.5307,-2.5689,-2.5709,-2.5799,-2.5944,-2.6212,0.0,-2.6956,-2.7068,-2.7244,-2.7496,-2.7587,-2.763,-2.763,-2.763,-2.7659,-2.7701,-2.7659,-2.763,-2.763,-2.76,-2.7413,-2.7192,-2.7448,-2.7392,-2.7192,-2.7532,-2.8272,-2.9177,-2.9154,-2.9978,-3.1123,-3.0293,-3.0868,-3.1982,-3.1982,-3.1982,-3.1982,-3.1982,-3.1982,-3.1982,-3.1837,-3.18,-3.18,-3.18,-3.18,-3.18,-3.18,-3.18,-3.18,-3.18,-3.18,-3.18,-3.18,-3.18,-3.18,-3.18,-3.18,-3.2748,-3.5783,-3.655,-3.6811,-3.6987,-3.6987,-3.6987,-3.6987,-3.6987,-3.6987,-3.6987,-3.6987,-3.6987,-3.6987,-3.6987,-3.6987,-3.6987,-3.6987,-3.6987,-3.6987,-3.6987,-3.6987,-3.6987,-3.6987,-3.6987,-3.6987,-3.6987,-3.6987,-3.6987,-3.6987,-3.6987,0.0,0.0,0.0,0.0,0.0,0.0,0.0,0.0,0.0,0.0,-2.0289,-2.0747,-2.0827,-2.0827,-2.127,-2.2631,-2.3401,-2.3875,-2.3907,-2.4546,-2.5114,-2.5503,-2.554,-2.5709,-2.6177,-2.6229,-2.6368,-2.6774,-2.6872,-2.7083,-2.7496,-2.7557,-2.763,-2.7701,-2.7701,-2.7701,-2.7701,-2.7701,-2.7701,-2.7701,-2.7701,-2.7701,-2.7701,-2.7701,-2.7701,-2.7701,-2.763,-2.7321,-2.7021,-2.8117,-2.8717,-2.8999,-2.9919,-3.0906,-3.1731,-3.1819,-3.2054,-3.2406,-3.2406,-3.2406,-3.2406,-3.2406,-3.2406,-3.2319,-3.1946,-3.1837,-3.1837,-3.1837,-3.1837,-3.1837,-3.1837,-3.1837,-3.1837,-3.1837,-3.1837,-3.1837,-3.1837,-3.1837,-3.18,-3.18,-3.18,-3.2769,-3.5663,-3.6232,-3.6468,-3.693,-3.6987,-3.6987,-3.6987,-3.6987,-3.6987,-3.6987,-3.6987,-3.6987,-3.6987,-3.6987,-3.6987,-3.6987,-3.6987,-3.6987,-3.6987,-3.6987,-3.6987,-3.6987,-3.6987,-3.6987,-3.6987,-3.6987,-3.6987,-3.6987,-3.6987,-3.6987,-0.9798,0.0,0.0,0.0,0.0,0.0,0.0,0.0,0.0,0.0,-1.9151,-1.9686,-2.0973,-2.123,-2.1359,-2.1763,-2.212,-2.2861,-2.4233,-2.4535,-2.5078,-2.6283,-2.6193,-2.6193,-2.659,-2.6674,-2.6757,0.0,-2.7164,-2.7386,-2.7496,-2.7557,-2.763,-2.7701,-2.7701,-2.7701,-2.7701,-2.7701,-2.7701,-2.7701,-2.7701,-2.7701,-2.7701,-2.7701,-2.7701,-2.7701,-2.7672,-2.7612,-2.7491,-2.7705,-2.8157,-2.8665,-2.8404,-2.9136,-3.0508,-3.176,-3.2284,-3.2406,-3.2406,-3.2406,-3.2406,-3.2406,-3.2406,-3.2371,-3.2284,-3.2249,-3.2249,-3.2249,-3.2249,-3.2249,-3.2249,-3.2249,-3.2249,-3.2249,-3.2249,-3.2249,-3.2249,-3.2249,-3.2143,-3.1873,-3.2018,-3.2476,-3.3331,-3.5343,-3.6851,-3.6987,-3.6987,-3.6987,-3.6987,-3.6987,-3.6987,-3.6987,-3.6987,-3.6987,-3.6987,-3.6987,-3.6987,-3.6987,-3.6987,-3.6987,-3.6987,-3.6987,-3.6987,-3.6987,-3.6987,-3.6987,-3.6987,-3.6987,-3.6987,-3.6987,-3.6987,-3.6987,0.0,0.0,0.0,0.0,0.0,0.0,0.0,-1.616,0.0,0.0,-1.9042,-1.9806,-2.0931,-2.1431,-2.1645,-2.1645,-2.1774,-2.2297,-2.3518,-2.4011,-2.4795,-2.6231,-2.6168,-2.6319,-2.7051,-2.7164,-2.7178,-2.7178,-2.743,-2.7569,-2.7569,-2.763,-2.7659,-2.7701,-2.7701,-2.7701,-2.7701,-2.7701,-2.7701,-2.7701,-2.7701,-2.7701,-2.7701,-2.7701,-2.7701,-2.7701,-2.7701,-2.7701,-2.7701,-2.763,-2.7831,-2.8181,-2.7744,-2.853,-3.0064,-3.1073,-3.1844,-3.2406,-3.2406,-3.2406,-3.2406,-3.2406,-3.2406,-3.2406,-3.2406,-3.2406,-3.2406,-3.2406,-3.2406,-3.2406,-3.2406,-3.2406,-3.2406,-3.2406,-3.2406,-3.2406,-3.2406,-3.2406,-3.2319,-3.2107,-3.2249,-3.2406,-3.2406,-3.388,-3.5513,-3.6794,-3.6987,-3.6987,-3.6987,-3.6987,-3.6987,-3.6987,-3.6987,-3.6987,-3.6987,-3.6987,-3.6987,-3.6987,-3.6987,-3.6987,-3.6987,-3.6987,-3.6987,-3.6987,-3.6987,-3.6987,-3.6987,-3.6987,-3.6987,-3.6987,-3.6987,-3.6987,0.0,-1.3059,0.0,0.0,-1.4529,0.0,-1.6559,-1.6505,-1.6387,0.0,0.0,-2.0091,-2.0542,-2.1227,-2.1731,-2.1815,-2.1928,-2.2132,-2.2504,-2.329,-2.434,-2.5575,-2.574,-2.6169,-2.7225,-2.7442,-2.7495,-2.7495,-2.7636,-2.7701,-2.7701,-2.7701,-2.7701,-2.7701,-2.7701,-2.7701,-2.7701,-2.7701,-2.7701,-2.7701,-2.7701,-2.7701,-2.7701,-2.7701,-2.7701,-2.7701,-2.7701,-2.7701,-2.7701,-2.773,-2.773,-2.7701,-2.7701,-2.8579,-2.9892,-2.9983,-3.0949,-3.2264,-3.2248,-3.2318,-3.2406,-3.2406,-3.2406,-3.2406,-3.2406,-3.2406,-3.2406,-3.2406,-3.2406,-3.2406,-3.2406,-3.2406,-3.2406,-3.2406,-3.2406,-3.2406,-3.2406,-3.2406,-3.2406,-3.2406,-3.2406,-3.2406,-3.2406,-3.2687,-3.3828,-3.6566,-3.6987,-3.6987,-3.6987,-3.6987,-3.6987,-3.6987,-3.6987,-3.6987,-3.6987,-3.6987,-3.6987,-3.6987,-3.6987,-3.6987,-3.6987,-3.6987,-3.6987,-3.6987,-3.6987,-3.6987,-3.6987,-3.6987,-3.6987,-3.6987,-3.6987,-3.6987,-1.4606,-1.5095,-1.5987,-1.5643,0.0,0.0,-1.5322,-1.5469,-1.5957,0.0,-1.6277,-1.7139,-1.928,-1.9763,-2.0033,-2.0677,-2.1479,-2.2331,-2.3323,-2.359,-2.4081,-2.5247,-2.5408,-2.5488,-2.5729,-2.6381,-2.6812,-2.6812,-2.7368,-2.7701,-2.7701,-2.7701,-2.7701,-2.7701,-2.7701,-2.7701,-2.7701,-2.7701,-2.7701,-2.7701,-2.7701,-2.7701,-2.7701,-2.7701,-2.7701,-2.7701,-2.7701,-2.7701,-2.7701,-2.7864,-2.7836,-2.7701,-2.7701,-2.7983,-2.8488,-2.9202,-3.0254,-3.137,-3.1419,-3.1861,-3.2406,-3.2406,-3.2406,-3.2406,-3.2406,-3.2406,-3.2406,-3.2406,-3.2406,-3.2406,-3.2406,-3.2406,-3.2406,-3.2406,-3.2406,-3.2406,-3.2406,-3.2406,-3.2406,-3.2406,-3.2406,-3.2406,-3.2406,-3.4442,-3.6303,-3.69,-3.6987,-3.6987,-3.6987,-3.6987,-3.6987,-3.6987,-3.6987,-3.6987,-3.6987,-3.6987,-3.6987,-3.6987,-3.6987,-3.6987,-3.6987,-3.6987,-3.6987,-3.6987,-3.6987,-3.6987,-3.6987,-3.6987,-3.6987,-3.6987,-3.6987,-3.6987,-1.6136,-1.6299,-1.6843,-1.6964,0.0,0.0,0.0,-1.6605,-1.6851,-1.7586,-1.7371,-1.7722,-1.9949,0.0,-2.0506,-2.1317,-2.2202,-2.2852,-2.2965,-2.3241,-2.3737,-2.4699,-2.4866,-2.5024,-2.5312,-2.5743,-2.6202,-2.6672,-2.7032,-2.7448,-2.7818,-2.776,-2.7701,-2.7701,-2.7701,-2.7701,-2.7701,-2.7701,-2.7701,-2.7701,-2.7701,-2.7701,-2.7701,-2.7701,-2.7701,-2.7701,-2.7806,-2.7836,-2.7864,-2.8025,-2.8035,-2.7933,-2.7933,-2.8209,-2.8617,-2.9119,-2.9768,-3.0424,-3.0967,-3.1285,-3.155,-3.2176,-3.2406,-3.2406,-3.2406,-3.2406,-3.2457,-3.2805,-3.2902,-3.2902,-3.2902,-3.2902,-3.2805,-3.2491,-3.2406,-3.2406,-3.2406,-3.2406,-3.2406,-3.2406,-3.2406,-3.288,-3.4424,-3.5969,-3.6987,-3.6987,-3.6987,-3.6987,-3.6987,-3.6987,-3.6987,-3.6987,-3.6987,-3.6987,-3.6987,-3.6987,-3.6987,-3.6987,-3.6987,-3.6987,-3.6987,-3.6987,-3.6987,-3.6987,-3.6987,-3.6987,-3.6987,-3.6987,-3.6987,-3.6987,-3.6987,-3.6987,0.0,0.0,-1.8061,0.0,0.0,-1.8262,0.0,0.0,0.0,-1.9165,-1.8825,0.0,0.0,0.0,0.0,0.0,0.0,0.0,0.0,-2.2571,0.0,-2.3851,-2.4113,-2.4448,-2.4963,-2.4989,-2.5429,-2.6472,-2.6463,-2.6782,-2.7703,-2.7606,-2.7572,-2.7701,-2.7701,-2.7701,-2.7701,-2.7701,-2.7701,-2.7701,-2.773,-2.776,-2.776,-2.7789,-2.7789,-2.7818,-2.7968,-2.8025,-2.8053,-2.8191,-2.8228,-2.8201,-2.8201,-2.851,-2.8976,-2.9045,-2.9323,-2.9728,-3.0526,-3.0716,-3.0818,-3.2015,-3.2491,-3.2592,-3.2592,-3.2592,-3.2725,-3.3244,-3.3393,-3.3393,-3.3393,-3.3393,-3.3274,-3.2707,-3.2592,-3.2592,-3.2592,-3.2705,-3.2816,-3.277,-3.2784,-3.3519,-3.5729,-3.6092,-3.638,-3.7114,-3.7241,-3.7241,-3.7241,-3.669,-3.6531,-3.717,-3.7241,-3.7241,-3.7241,-3.7241,-3.7241,-3.7241,-3.7241,-3.7241,-3.7241,-3.7241,-3.7241,-3.7241,-3.7105,-3.6987,-3.6987,-3.7182,-3.7126,-3.6987,-3.6987,-3.6987,0.0,0.0,0.0,0.0,-2.0813,0.0,0.0,0.0,-1.8661,-1.7486,0.0,0.0,0.0,0.0,0.0,0.0,0.0,0.0,-2.0534,-2.1666,-2.2572,-2.2527,-2.3076,-2.3448,-2.3536,-2.3554,-2.4155,-2.5623,-2.5194,-2.5461,-2.6861,-2.6904,-2.7148,-2.7666,-2.7701,-2.7701,-2.7701,-2.7701,-2.7701,-2.7701,-2.7864,-2.7968,-2.7968,-2.8091,-2.8146,-2.8146,-2.8174,-2.8191,-2.8191,-2.8327,-2.83,-2.8201,-2.8201,-2.8327,-2.847,-2.8371,-2.8863,-2.9617,-2.9728,-3.0313,-3.1186,-3.2105,-3.2805,-3.3274,-3.3274,-3.3274,-3.3304,-3.3364,-3.3393,-3.3393,-3.3393,-3.3393,-3.3364,-3.3304,-3.3274,-3.3274,-3.3274,-3.385,-3.4274,-3.4055,-3.4203,-3.4053,-3.3084,-3.2915,-3.4076,-3.7536,-3.8072,-3.8072,-3.8072,-3.5566,-3.4898,-3.7765,-3.8072,-3.8072,-3.8072,-3.8072,-3.8072,-3.8072,-3.8072,-3.8072,-3.8072,-3.8072,-3.8072,-3.8072,-3.7354,-3.6987,-3.6987,-3.7739,-3.7703,-3.6987,-3.6987,-3.6987,0.0,0.0,0.0,0.0,0.0,0.0,-1.9723,0.0,-1.932,0.0,0.0,0.0,0.0,0.0,0.0,0.0,-2.0493,0.0,0.0,0.0,-2.1384,0.0,0.0,0.0,-2.2678,-2.2776,-2.3504,-2.5057,-2.4456,-2.4706,-2.6247,-2.6703,-2.7004,-2.7166,-2.772,-2.7904,-2.7701,-2.7904,-2.795,-2.7882,-2.8053,-2.8109,-2.8109,-2.8174,-2.8201,-2.8201,-2.8273,-2.8327,-2.8327,-2.8458,-2.8484,-2.8432,-2.8432,-2.8406,-2.8406,-2.8432,-2.8675,-2.9124,-2.9719,-3.0427,-3.126,-3.255,-3.3183,-3.3393,-3.3393,-3.3393,-3.3393,-3.3393,-3.3393,-3.3393,-3.3393,-3.3393,-3.3393,-3.3393,-3.3393,-3.352,-3.3998,-3.4363,-3.458,-3.445,-3.4517,-3.439,-3.3768,-3.3291,-3.3539,-3.5173,-3.5403,-3.5403,-3.5403,-3.4244,-3.3918,-3.5258,-3.7087,-3.8192,-3.8192,-3.8192,-3.8192,-3.8192,-3.8192,-3.8192,-3.8192,-3.8192,-3.8192,-3.8192,-3.7881,-3.7703,-3.7703,-3.8038,-3.8038,-3.7703,-3.7203,-3.6987,-2.2463,0.0,0.0,0.0,0.0,0.0,0.0,0.0,0.0,0.0,0.0,0.0,0.0,0.0,0.0,0.0,0.0,-2.0503,0.0,0.0,0.0,0.0,0.0,0.0,0.0,-2.1906,-2.2506,-2.4109,-2.3502,-2.3786,-2.5578,-2.6126,-2.6534,-2.6845,-2.7531,-2.785,-2.7847,-2.8091,-2.8146,-2.8053,-2.8191,-2.8255,-2.8273,-2.8282,-2.8309,-2.8327,-2.8406,-2.8458,-2.8458,-2.8562,-2.8587,-2.8587,-2.8587,-2.8536,-2.8458,-2.8562,-2.8587,-2.8696,-2.95,-3.0586,-3.1836,-3.3013,-3.3393,-3.3393,-3.3393,-3.3393,-3.3393,-3.3393,-3.3393,-3.3393,-3.3393,-3.3549,-3.3726,-3.3726,-3.3726,-3.3895,-3.4473,-3.4602,-3.4602,-3.4602,-3.4602,-3.4602,-3.4602,-3.4124,-3.3726,-3.3726,-3.3726,-3.3643,-3.3422,-3.3393,-3.3393,-3.3393,-3.6272,-3.8192,-3.8192,-3.8192,-3.8192,-3.8192,-3.8192,-3.8192,-3.8192,-3.8192,-3.8192,-3.8192,-3.8451,-3.859,-3.859,-3.859,-3.859,-3.8559,-3.7913,-3.7578,0.0,0.0,0.0,-2.2697,0.0,0.0,0.0,0.0,-2.0849,0.0,0.0,0.0,0.0,0.0,0.0,0.0,0.0,0.0,0.0,0.0,0.0,0.0,0.0,0.0,0.0,-2.06,-2.0836,0.0,-2.1942,-2.2522,-2.4716,-2.4877,-2.5524,-2.6952,-2.7023,-2.7397,-2.8174,-2.8201,-2.8219,-2.8219,-2.8327,-2.838,-2.8398,-2.8536,-2.8587,-2.8587,-2.8587,-2.8587,-2.8587,-2.8587,-2.8587,-2.8587,-2.8587,-2.8587,-2.8587,-2.8587,-2.8587,-2.8587,-2.8623,-3.0713,-3.3339,-3.3375,-3.3393,-3.3393,-3.3393,-3.3393,-3.3393,-3.3393,-3.3393,-3.3393,-3.3393,-3.3972,-3.4561,-3.4561,-3.4561,-3.4561,-3.4583,-3.4602,-3.4602,-3.4602,-3.4602,-3.4602,-3.4602,-3.458,-3.4561,-3.4561,-3.4561,-3.4269,-3.3509,-3.3393,-3.3393,-3.3393,-3.6272,-3.8192,-3.8192,-3.8192,-3.8192,-3.8192,-3.8192,-3.8192,-3.8192,-3.8192,-3.8192,-3.8192,-3.9092,-3.9552,-3.9552,-3.9552,-3.9552,-3.9552,-3.9183,-3.9027,0.0,0.0,-2.4695,-2.3531,0.0,0.0,0.0,0.0,0.0,0.0,0.0,0.0,0.0,0.0,0.0,0.0,0.0,0.0,0.0,0.0,0.0,0.0,0.0,0.0,0.0,0.0,0.0,0.0,-2.1639,0.0,-2.4039,-2.4635,-2.536,-2.6294,-2.695,-2.7571,-2.8201,-2.838,-2.8432,-2.8327,-2.8458,-2.8536,-2.8536,-2.8587,-2.8612,-2.8644,-2.8612,-2.8637,-2.8687,-2.8687,-2.8687,-2.8687,-2.8669,-2.8669,-2.8651,-2.8612,-2.8587,-2.8587,-2.8587,-3.0007,-3.1981,-3.3049,-3.3393,-3.3393,-3.3393,-3.3393,-3.3393,-3.3393,-3.378,-3.4197,-3.4197,-3.4404,-3.4602,-3.4602,-3.4602,-3.4602,-3.4602,-3.4602,-3.4602,-3.4602,-3.4602,-3.4602,-3.4602,-3.4602,-3.4602,-3.4602,-3.4602,-3.4495,-3.4221,-3.4197,-3.4197,-3.4197,-3.7151,-3.912,-3.912,-3.912,-3.912,-3.912,-3.912,-3.912,-3.912,-3.912,-3.912,-3.912,-3.9432,-3.9602,-3.9602,-3.9602,-3.9602,-3.9596,-3.9483,-3.9309,-2.519,-2.5182,0.0,-2.4132,-2.3518,0.0,-2.2007,0.0,-2.2159,0.0,0.0,0.0,0.0,0.0,0.0,0.0,0.0,0.0,0.0,-1.6842,0.0,0.0,0.0,0.0,0.0,0.0,-1.9626,-2.1007,-2.1079,0.0,0.0,-2.4139,-2.4892,-2.5613,-2.6519,-2.7265,-2.7905,-2.8366,-2.8562,-2.8458,-2.8562,-2.8587,-2.8587,-2.8587,-2.8637,-2.8694,-2.8644,-2.8687,-2.8737,-2.8737,-2.8737,-2.8737,-2.8743,-2.8821,-2.892,-2.8868,-2.885,-2.8874,-2.8797,-2.9366,-3.0405,-3.2017,-3.294,-3.3393,-3.3393,-3.3393,-3.3452,-3.3753,-3.4197,-3.4602,-3.4602,-3.4602,-3.4602,-3.4602,-3.4602,-3.4602,-3.4602,-3.4602,-3.4602,-3.4602,-3.4602,-3.4602,-3.4602,-3.4602,-3.4602,-3.4602,-3.4602,-3.4602,-3.4602,-3.4602,-3.4602,-3.4602,-3.7587,-3.9602,-3.9602,-3.9602,-3.9602,-3.9602,-3.9602,-3.9602,-3.9602,-3.9602,-3.9602,-3.9602,-3.9602,-3.9602,-3.9602,-3.9602,-3.9602,-3.9602,-3.9602,-3.9483]}]]